ECMWFNIL_con_mucape_000.txt.gz
CAPE
0 0 0 0 0 0 0 0 0 0 0 0 0 0 0 0 0 0 0 0 0 0 0 0 0 0 0 0 0 0 0 0 0 0 0 0 0 0 0 0 0 0
0 0 0 0 0 0 0 0 0 0 0 0 0 0 0 0 0 0 0 0 0 0 0 0 0 0 0 0 0 0 0 0 0 0 0 0 0 0 0 0 0 0
0 0 0 0 0 0 0 0 0 0 0 0 0 0 0 0 0 0 0 0 0 0 0 0 0 0 0 0 0 0 0 0 0 0 0 0 0 0 0 0 0 0
0 0 0 0 0 0 0 0 0 0 0 0 0 0 0 0 0 0 0 0 0 0 0 0 0 0 0 0 0 0 0 0 0 0 0 0 0 0 0 0 0 0
0 0 0 0 0 0 0 0 0 0 0 0 0 0 0 0 0 0 0 0 0 0 0 0 0 0 0 0 0 0 0 0 0 0 0 0 0 0 0 0 0 0
0 0 0 0 0 0 0 0 0 0 0 0 0 0 0 0 0 0 0 0 0 0 0 0 0 0 0 0 0 0 0 0 0 0 0 0 0 0 0 0 0 0
0 0 0 0 0 0 0 0 0 0 0 0 0 0 0 0 0 0 0 0 0 0 0 0 0 0 0 0 0 0 0 0 0 0 0 0 0 0 0 0 0 0
0 0 0 0 0 0 0 0 0 0 0 0 0 0 0 0 0 0 0 0 0 0 0 0 0 0 0 0 0 0 0 0 0 0 0 0 0 0 0 0 0 0
0 0 0 0 0 0 0 0 0 0 0 0 0 0 0 0 0 0 0 0 0 0 0 0 0 0 0 0 0 0 0 0 0 0 0 0 0 0 0 0 0 0
68 0 0 0 0 0 0 0 0 0 0 0 0 0 0 0 0 0 0 0 0 0 0 0 0 0 0 0 0 0 0 0 0 0 0 0 0 0 2 4 3 1
284 223 0 0 0 0 0 0 0 0 0 0 0 0 0 0 0 0 0 0 0 0 0 0 0 0 0 0 0 0 0 0 0 0 0 0 0 4 9 11 10 8
390 304 0 0 0 0 0 0 0 0 0 0 0 0 0 0 0 0 0 0 0 0 0 0 0 0 0 0 0 0 0 0 0 0 0 0 4 8 9 13 15 15
486 344 40 0 0 0 0 0 0 0 0 0 0 0 0 0 0 0 0 0 0 0 0 0 0 0 0 0 0 0 0 0 0 0 0 3 8 9 10 10 11 12
574 311 4 3 0 0 0 0 0 0 0 0 0 0 0 0 0 0 0 0 0 0 0 0 0 0 0 0 0 0 0 0 0 0 0 0 5 8 12 14 14 14
624 245 0 6 0 0 0 0 0 0 0 0 0 0 0 0 0 0 0 0 0 0 0 0 0 0 0 0 0 0 0 0 0 0 0 0 0 0 3 5 6 8
630 303 180 0 0 0 0 0 0 0 0 0 0 0 0 0 0 0 0 0 0 0 0 0 0 0 0 0 0 0 0 0 0 0 0 0 0 0 0 0 0 3
377 158 158 0 0 0 0 0 0 0 0 0 0 0 0 0 0 0 0 0 0 0 0 0 0 0 0 0 0 0 0 0 0 0 0 0 0 0 0 0 0 0
154 10 75 54 3 0 0 0 0 0 0 0 0 0 0 0 0 0 0 0 0 0 0 0 0 0 0 0 0 0 0 0 0 0 0 0 0 0 0 0 0 0
159 129 23 0 3 1 0 0 0 0 0 0 0 0 0 0 0 0 0 0 0 0 0 0 0 0 0 0 0 0 0 0 0 0 0 0 0 0 0 0 0 0
103 52 26 2 0 0 0 0 0 0 0 0 0 0 0 0 0 0 0 0 0 0 0 0 0 0 0 0 0 0 0 0 0 0 0 0 0 0 0 0 0 0
0 28 3 2 0 0 0 0 0 0 0 0 0 0 0 0 0 0 0 0 0 0 0 0 0 0 0 0 0 0 0 0 0 0 0 0 0 0 0 0 0 0
72 42 34 7 0 0 0 0 0 0 0 0 0 0 0 0 0 0 0 0 0 0 0 0 0 0 0 0 0 0 0 0 0 0 0 0 0 0 0 0 0 0
62 89 36 0 0 0 0 0 0 0 0 0 0 0 0 0 0 0 0 0 0 0 0 0 0 0 0 0 0 0 0 0 0 0 0 0 0 0 0 0 0 0
47 36 4 0 0 0 0 0 0 0 0 0 0 0 0 0 0 0 0 0 0 0 0 0 0 0 0 0 0 0 0 0 0 0 0 0 0 0 0 0 0 0
55 10 0 0 0 0 0 0 0 0 0 0 0 0 0 0 0 0 0 0 0 0 0 0 0 0 0 0 0 0 0 0 0 0 0 0 0 0 0 1 1 1
2 0 3 0 0 0 0 0 0 0 0 0 0 0 0 0 0 0 0 0 0 0 0 0 0 0 0 0 0 0 0 0 0 0 0 0 0 0 2 2 4 3

ECMWFNIL_con_mucape_003.txt.gz
CAPE
0 0 0 0 0 0 0 0 0 0 0 0 0 0 0 0 0 0 0 0 0 0 0 0 0 0 0 0 0 0 0 0 0 0 0 0 0 0 0 0 0 0
0 0 0 0 0 0 0 0 0 0 0 0 0 0 0 0 0 0 0 0 0 0 0 0 0 0 0 0 0 0 0 0 0 0 0 0 0 0 0 0 0 0
0 0 0 0 0 0 0 0 0 0 0 0 0 0 0 0 0 0 0 0 0 0 0 0 0 0 0 0 0 0 0 0 0 0 0 0 0 0 0 0 0 0
0 0 0 0 0 0 0 0 0 0 0 0 0 0 0 0 0 0 0 0 0 0 0 0 0 0 0 0 0 0 0 0 0 0 0 0 0 0 0 0 0 0
98 0 0 0 0 0 0 0 0 0 0 0 0 0 0 0 0 0 0 0 0 0 0 0 0 0 0 0 0 0 0 0 0 0 0 0 0 0 0 0 0 0
163 136 22 0 0 0 0 0 0 0 0 0 0 0 0 0 0 0 0 0 0 0 0 0 0 0 0 0 0 0 0 0 0 0 0 0 0 0 0 0 0 0
202 188 140 9 0 0 0 0 0 0 0 0 0 0 0 0 0 0 0 0 0 0 0 0 0 0 0 0 0 0 0 0 0 0 0 0 0 0 0 0 0 0
231 222 176 104 0 0 0 0 0 0 0 0 0 0 0 0 0 0 0 0 0 0 0 0 0 0 0 0 0 0 0 0 0 0 0 0 0 0 0 0 0 0
262 257 218 164 96 0 0 0 0 0 0 0 0 0 0 0 0 0 0 0 0 0 0 0 0 0 0 0 0 0 0 0 0 0 0 0 0 0 0 0 0 0
298 295 266 224 164 91 0 0 0 0 0 0 0 0 0 0 0 0 0 0 0 0 0 0 0 0 0 0 0 0 0 0 0 0 0 0 0 0 0 0 0 0
366 331 310 279 238 172 91 0 0 0 0 0 0 0 0 0 0 0 0 0 0 0 0 0 0 0 0 0 0 0 0 0 0 0 0 0 0 0 0 0 1 2
393 419 400 351 291 232 163 32 0 0 0 0 0 0 0 0 0 0 0 0 0 0 0 0 0 0 0 0 0 0 0 0 0 0 0 0 0 0 0 0 2 4
452 425 412 432 371 309 222 0 0 0 0 0 0 0 0 0 0 0 0 0 0 0 0 0 0 0 0 0 0 0 0 0 0 0 0 0 0 0 0 0 0 1
467 453 435 424 410 350 249 0 0 0 0 0 0 0 0 0 0 0 0 0 0 0 0 0 0 0 0 0 0 0 0 0 0 0 0 0 0 0 0 0 0 0
362 483 466 418 413 418 102 0 0 0 0 0 0 0 0 0 0 0 0 0 0 0 0 0 0 0 0 0 0 0 0 0 0 0 0 0 0 0 0 0 0 0
453 431 433 412 437 422 0 0 0 0 0 0 0 0 0 0 0 0 0 0 0 0 0 0 0 0 0 0 0 0 0 0 0 0 0 0 0 0 0 0 0 0
644 505 12 80 493 314 0 0 0 0 0 0 0 0 0 0 0 0 0 0 0 0 0 0 0 0 0 0 0 0 0 0 0 0 0 0 0 0 0 0 0 0
624 547 181 308 390 3 3 0 0 0 0 0 0 0 0 0 0 0 0 0 0 0 0 0 0 0 0 0 0 0 0 0 0 0 0 0 0 0 0 0 0 0
610 589 444 356 16 10 0 1 0 0 0 0 0 0 0 0 0 0 0 0 0 0 0 0 0 0 0 0 0 0 0 0 0 0 0 0 0 0 0 0 0 0
584 609 457 226 105 33 15 5 0 0 0 0 0 0 0 0 0 0 0 0 0 0 0 0 0 0 0 0 0 0 0 0 0 0 0 0 0 0 0 0 0 0
681 574 406 131 83 67 22 1 0 1 0 0 0 0 0 0 0 0 0 0 0 0 0 0 0 0 0 0 0 0 0 0 0 0 0 0 0 0 0 0 0 0
594 543 467 285 97 18 18 0 1 2 0 0 0 0 0 0 0 0 0 0 0 0 0 0 0 0 0 0 0 0 0 0 0 0 0 0 0 0 0 0 0 0
530 462 355 229 200 137 73 0 0 0 0 0 0 0 0 0 0 0 0 0 0 0 0 0 0 0 0 0 0 0 0 0 0 0 0 0 0 0 0 0 0 0
331 335 298 240 246 180 23 0 0 0 0 0 0 0 0 0 0 0 0 0 0 0 0 0 0 0 0 0 0 0 0 0 0 0 0 0 0 0 0 0 0 0
230 289 213 34 128 34 0 0 0 0 0 0 0 0 0 0 0 0 0 0 0 0 0 0 0 0 0 0 0 0 0 0 0 0 0 0 0 0 0 0 0 0
255 191 73 92 134 78 18 0 0 0 0 0 0 0 0 0 0 0 0 0 0 0 0 0 0 0 0 0 0 0 0 0 0 0 0 0 0 0 0 2 2 3

ECMWFNIL_con_mucape_006.txt.gz
CAPE
0 0 0 0 0 0 0 0 0 0 0 0 0 0 0 0 0 0 0 0 0 0 0 0 0 0 0 0 0 0 0 0 0 0 0 0 0 0 0 0 0 0
0 0 0 0 0 0 0 0 0 0 0 0 0 0 0 0 0 0 0 0 0 0 0 0 0 0 0 0 0 0 0 0 0 0 0 0 0 0 0 0 0 0
0 0 0 0 0 0 0 0 0 0 0 0 0 0 0 0 0 0 0 0 0 0 0 0 0 0 0 0 0 0 0 0 0 0 0 0 0 0 0 0 0 0
0 0 0 0 0 0 0 0 0 0 0 0 0 0 0 0 0 0 0 0 0 0 0 0 0 0 0 0 0 0 0 0 0 0 0 0 0 0 0 0 0 0
0 0 0 0 0 0 0 0 0 0 0 0 0 0 0 0 0 0 0 0 0 0 0 0 0 0 0 0 0 0 0 0 0 0 0 0 0 0 0 0 0 0
31 2 0 0 0 0 0 0 0 0 0 0 0 0 0 0 0 0 0 0 0 0 0 0 0 0 0 0 0 0 0 0 0 0 0 0 0 0 0 0 0 0
120 50 68 28 0 0 0 0 0 0 0 0 0 0 0 0 0 0 0 0 0 0 0 0 0 0 0 0 0 0 0 0 0 0 0 0 0 0 0 0 0 0
0 0 0 0 0 0 0 0 0 0 0 0 0 0 0 0 0 0 0 0 0 0 0 0 0 0 0 0 0 0 0 0 0 0 0 0 0 0 0 0 0 0
70 237 66 179 136 0 0 0 0 0 0 0 0 0 0 0 0 0 0 0 0 0 0 0 0 0 0 0 0 0 0 0 0 0 0 0 0 0 0 0 0 0
266 238 234 214 42 177 167 0 0 0 0 0 0 0 0 0 0 0 0 0 0 0 0 0 0 0 0 0 0 0 0 0 0 0 0 0 0 0 0 0 0 0
316 315 237 176 225 0 0 128 58 0 0 0 0 0 0 0 0 0 0 0 0 0 0 0 0 0 0 0 0 0 0 0 0 0 0 0 0 0 0 0 0 0
566 467 392 318 262 176 0 0 0 0 0 0 0 0 0 0 0 0 0 0 0 0 0 0 0 0 0 0 0 0 0 0 0 0 0 0 0 0 0 0 0 0
669 658 568 456 332 286 138 2 232 189 55 0 0 0 0 0 0 0 0 0 0 0 0 0 0 0 0 0 0 0 0 0 0 0 0 0 0 0 0 0 0 0
708 750 730 632 496 366 77 38 0 246 185 62 0 0 0 0 0 0 0 0 0 0 0 0 0 0 0 0 0 0 0 0 0 0 0 0 0 0 0 0 0 0
684 730 731 710 623 518 392 154 97 134 251 198 0 0 0 0 0 0 0 0 0 0 0 0 0 0 0 0 0 0 0 0 0 0 0 0 0 0 0 0 0 0
609 644 695 723 715 619 574 318 79 14 124 262 0 0 0 0 0 0 0 0 0 0 0 0 0 0 0 0 0 0 0 0 0 0 0 0 0 0 0 0 0 0
472 557 605 645 664 674 625 586 438 100 1 0 0 0 0 0 0 0 0 0 0 0 0 0 0 0 0 0 0 0 0 0 0 0 0 0 0 0 0 0 0 0
348 490 574 625 657 708 693 621 260 80 75 10 7 3 0 0 0 0 0 0 0 0 0 0 0 0 0 0 0 0 0 0 0 0 0 0 0 0 0 0 0 0
202 399 522 595 653 701 659 514 415 313 153 44 66 0 0 0 0 0 0 0 0 0 0 0 0 0 0 0 0 0 0 0 0 0 0 0 0 0 0 0 0 0
0 320 442 538 604 631 584 423 345 93 140 108 91 32 0 0 0 0 0 0 0 0 0 0 0 0 0 0 0 0 0 0 0 0 0 0 0 0 0 0 0 0
0 292 396 466 539 580 546 434 254 0 94 85 71 19 18 18 0 0 0 0 0 0 0 0 0 0 0 0 0 0 0 0 0 0 0 0 0 0 0 0 0 0
62 301 358 415 475 504 535 469 328 187 14 0 30 43 53 20 0 0 0 0 0 0 0 0 0 0 0 0 0 0 0 0 0 0 0 0 0 0 0 0 0 0
0 246 322 383 453 513 546 477 219 51 20 13 26 11 6 4 4 2 0 0 0 0 0 0 0 0 0 0 0 0 0 0 0 0 0 0 0 0 0 0 0 0
0 186 269 331 384 472 451 120 142 35 10 20 6 2 3 2 3 1 0 0 0 0 0 0 0 0 0 0 0 0 0 0 0 0 0 0 0 0 0 0 0 0
0 73 207 275 342 316 51 0 3 29 16 42 4 2 1 0 1 2 0 0 0 0 0 0 0 0 0 0 0 0 0 0 0 0 0 0 0 0 0 0 0 0
0 59 140 206 285 351 217 15 0 7 51 31 8 3 1 0 0 0 0 0 0 0 0 0 0 0 0 0 0 0 0 0 0 0 0 0 0 0 0 0 0 0

ECMWFNIL_con_mucape_009.txt.gz
CAPE
32 25 23 6 5 1 3 0 0 14 20 18 10 8 0 0 0 0 0 0 0 0 0 0 0 0 0 0 0 0 0 0 0 0 0 0 0 0 0 0 0 0
29 27 13 10 3 0 0 2 0 12 24 27 26 11 4 0 0 0 0 0 0 0 0 0 0 0 0 0 0 0 0 0 0 0 0 0 0 0 0 0 0 0
24 18 19 18 10 2 0 0 0 1 19 32 55 20 2 0 0 0 0 0 0 0 0 0 0 0 0 0 0 0 0 0 0 0 0 0 0 0 0 0 0 0
8 2 6 8 7 3 1 0 0 0 0 2 0 3 2 0 0 0 0 0 0 0 0 0 0 0 0 0 0 0 0 0 0 0 0 0 0 0 0 0 0 0
0 0 0 0 0 0 0 0 0 0 0 0 1 0 0 0 0 0 0 0 0 0 0 0 0 0 0 0 0 0 0 0 0 0 0 0 0 0 0 0 0 0
21 0 0 0 0 0 0 0 0 0 0 0 0 0 0 0 0 0 0 0 0 0 0 0 0 0 0 0 0 0 0 0 0 0 0 0 0 0 0 0 0 0
23 16 0 0 0 0 0 0 0 0 0 0 0 0 0 0 0 0 0 0 0 0 0 0 0 0 0 0 0 0 0 0 0 0 0 0 0 0 0 0 0 0
217 177 17 0 1 2 0 0 0 0 0 0 0 0 0 0 0 0 0 0 0 0 0 0 0 0 0 0 0 0 0 0 0 0 0 0 0 0 0 0 0 0
264 255 220 68 17 10 0 0 0 0 0 0 0 0 0 0 0 0 0 0 0 0 0 0 0 0 0 0 0 0 0 0 0 0 0 0 0 0 0 0 0 0
389 352 307 256 211 195 136 0 0 0 0 0 0 0 0 0 0 0 0 0 0 0 0 0 0 0 0 0 0 0 0 0 0 0 0 0 0 0 0 0 0 0
529 472 417 376 297 222 60 6 0 0 0 0 0 0 0 0 0 0 0 0 0 0 0 0 0 0 0 0 0 0 0 0 0 0 0 0 0 0 0 0 0 0
539 583 568 499 405 288 222 204 168 0 0 0 0 0 0 0 0 0 0 0 0 0 0 0 0 0 0 0 0 0 0 0 0 0 0 0 0 0 0 0 0 0
542 573 589 622 594 463 373 287 255 246 92 0 0 0 0 0 0 0 0 0 0 0 0 0 0 0 0 0 0 0 0 0 0 0 0 0 0 0 0 0 0 0
418 500 556 602 653 652 610 556 498 418 327 172 6 0 9 26 1 0 0 0 0 0 0 0 0 0 0 0 0 0 0 0 0 0 0 0 0 0 0 0 0 0
351 404 438 483 567 587 665 684 657 618 562 460 267 211 185 73 55 5 19 7 0 0 0 0 0 0 0 0 0 0 0 0 0 0 0 0 0 0 0 0 0 0
168 296 309 392 472 519 551 566 567 582 581 526 473 322 219 177 84 146 47 64 42 8 0 0 0 0 0 0 0 0 0 0 0 0 0 0 0 0 0 0 0 0
81 185 264 221 308 423 490 514 548 548 530 530 494 423 354 257 156 16 3 15 58 52 19 0 0 0 0 0 0 0 0 0 0 0 0 0 0 0 0 0 0 0
24 130 162 168 127 259 375 456 476 502 522 530 516 512 412 322 265 213 112 67 57 61 31 0 0 0 0 0 0 0 0 0 0 0 0 0 0 0 0 0 0 0
0 95 136 158 130 42 254 323 400 424 470 488 506 468 397 295 220 22 25 49 66 64 78 17 0 0 0 0 0 0 0 0 0 0 0 0 0 0 0 0 0 0
0 14 130 140 104 23 0 229 260 324 391 425 446 411 329 248 198 0 0 16 54 66 77 37 3 0 0 0 0 0 0 0 0 0 0 0 0 0 0 0 0 0
0 0 57 83 61 8 0 24 29 233 287 347 374 325 234 188 0 0 0 24 40 66 32 10 18 6 0 0 0 0 0 0 0 0 0 0 0 0 0 0 0 0
0 0 12 36 35 4 48 34 15 137 214 270 326 338 264 183 146 71 19 11 23 6 4 14 19 9 2 0 0 0 0 0 0 0 0 0 0 0 0 0 0 0
0 0 0 4 5 0 20 79 99 145 190 215 267 283 294 204 147 91 0 8 1 0 0 4 19 10 11 5 2 0 0 0 0 0 0 0 0 0 0 0 0 0
0 0 1 2 4 0 0 59 97 122 216 232 273 248 169 199 134 10 7 8 10 3 3 3 9 6 1 0 0 0 0 0 0 0 0 0 0 0 0 0 0 0
0 0 1 2 3 0 1 54 119 170 67 0 256 207 5 55 10 0 1 6 6 7 5 7 8 5 1 1 0 0 0 0 0 0 0 0 0 0 0 0 0 0
0 0 2 3 2 0 36 110 165 183 233 262 226 55 24 11 0 1 7 3 5 6 6 6 3 0 0 0 0 0 0 0 0 0 0 0 0 0 0 0 0 0

ECMWFNIL_con_mucape_012.txt.gz
CAPE
586 537 486 194 25 14 77 3 2 1 0 1 2 6 0 0 0 0 0 0 0 0 0 0 0 0 0 0 0 0 0 0 0 0 0 0 0 0 0 0 0 0
748 701 453 357 128 28 145 60 5 1 0 16 0 12 1 0 0 0 0 0 0 0 0 0 0 0 0 0 0 0 0 0 0 0 0 0 0 0 0 0 0 0
839 830 739 631 419 389 390 262 58 18 8 48 20 56 65 74 0 0 0 0 0 0 0 0 0 0 0 0 0 0 0 0 0 0 0 0 0 0 0 0 0 0
787 877 869 836 763 723 558 395 206 50 20 68 155 87 228 144 61 24 8 0 0 0 0 0 0 0 0 0 0 0 0 0 0 0 0 0 0 0 0 0 0 0
766 813 882 886 906 862 728 486 303 106 71 138 228 83 210 147 106 77 32 4 0 0 0 0 0 0 0 0 0 0 0 0 0 0 0 0 0 0 0 0 0 0
817 770 754 821 943 922 783 619 395 235 161 148 170 113 132 168 90 67 64 21 4 0 0 0 0 0 0 0 0 0 0 0 0 0 0 0 0 0 0 0 0 0
740 788 787 751 834 907 833 698 524 346 267 220 190 146 88 158 81 51 40 52 5 0 0 0 0 0 0 0 0 0 0 0 0 0 0 0 0 0 0 0 0 0
624 674 774 756 755 874 867 683 593 490 438 288 254 214 74 143 58 74 66 64 30 1 0 0 0 0 0 0 0 0 0 0 0 0 0 0 0 0 0 0 0 0
515 517 582 792 844 798 854 741 614 555 483 423 326 266 122 144 45 94 86 63 61 31 1 0 0 0 0 0 0 0 0 0 0 0 0 0 0 0 0 0 0 0
734 615 544 625 892 937 828 820 644 600 518 459 336 254 238 153 55 57 103 60 64 41 10 0 0 0 0 0 0 0 0 0 0 0 0 0 0 0 0 0 0 0
776 755 654 788 869 942 866 785 715 598 557 448 389 290 277 231 79 143 156 58 84 52 24 2 0 0 0 0 0 0 0 0 0 0 0 0 0 0 0 0 0 0
805 776 886 952 896 1034 962 853 713 640 596 546 340 292 323 281 201 202 118 72 71 74 24 1 0 0 0 0 0 0 0 0 0 0 0 0 0 0 0 0 0 0
862 898 1047 1053 995 1039 1019 933 823 720 639 550 386 312 365 367 359 250 192 83 68 89 15 0 0 0 0 0 0 0 0 0 0 0 0 0 0 0 0 0 0 0
259 546 806 915 1036 1049 1081 1098 982 833 715 576 441 366 366 444 216 72 76 208 105 70 6 0 0 0 3 3 0 0 0 0 0 0 0 0 0 0 0 0 0 0
0 5 286 410 638 814 923 989 955 874 707 515 458 499 452 464 373 286 278 266 101 32 18 25 0 7 45 43 15 0 0 0 0 0 0 0 0 0 0 0 0 0
0 6 77 261 515 666 692 826 836 896 674 592 601 629 612 574 555 509 420 389 278 197 150 58 45 0 0 72 45 37 23 5 0 0 0 0 0 0 0 0 0 0
0 4 70 194 380 506 617 783 896 801 788 680 559 554 667 658 591 573 514 366 370 220 247 214 172 160 137 97 80 51 28 4 0 0 0 0 0 0 0 0 0 0
0 0 0 49 197 327 512 578 668 643 592 675 623 498 548 576 400 405 521 475 443 370 319 256 224 187 138 106 43 49 35 31 31 8 0 0 0 0 0 0 0 0
0 0 0 0 99 308 430 540 482 426 448 522 548 467 445 576 584 542 387 148 120 311 340 79 61 48 35 25 65 79 65 40 36 33 14 1 0 0 0 0 0 0
0 0 0 0 4 222 352 410 430 386 369 354 430 451 390 479 580 568 507 440 344 322 300 232 61 4 0 0 18 57 63 58 27 30 34 8 0 0 0 0 0 0
0 0 0 0 0 14 217 297 345 363 272 238 263 371 356 383 524 549 478 401 343 278 255 242 193 134 0 12 0 4 28 29 26 13 1 14 0 0 0 0 0 0
0 0 0 0 0 0 57 186 284 286 217 237 227 204 182 264 237 294 300 264 208 234 256 134 152 30 20 8 0 3 23 23 13 19 13 2 0 0 0 0 0 0
0 0 0 0 0 0 6 132 233 246 161 146 149 125 74 63 250 287 278 230 214 257 190 138 0 0 0 0 0 8 2 0 1 0 1 0 0 0 0 0 0 0
0 0 0 0 0 0 15 125 235 212 160 126 126 75 41 0 69 50 242 260 193 127 8 0 0 0 0 0 4 4 1 1 0 0 0 0 0 0 0 0 0 0
0 0 0 0 0 10 60 163 196 147 93 82 81 21 25 36 0 2 2 22 0 73 0 1 1 0 0 0 2 2 1 1 0 0 0 0 2 0 0 0 0 0
0 0 0 0 1 33 113 196 178 105 109 108 61 20 3 0 0 0 190 0 0 1 1 2 0 0 0 1 2 2 0 0 0 0 1 1 0 0 0 0 0 0

ECMWFNIL_con_mucape_015.txt.gz
CAPE
241 176 173 101 44 48 69 26 78 70 18 26 50 39 0 0 0 0 0 0 0 0 0 0 0 0 0 0 0 0 0 0 0 0 0 0 0 0 0 0 0 0
541 361 248 114 35 22 127 61 93 112 28 48 74 96 32 1 0 0 1 0 0 0 0 0 0 0 0 0 0 0 0 0 0 0 0 0 0 0 0 0 0 0
702 665 618 352 134 73 282 153 118 143 44 78 113 119 124 31 0 14 7 0 0 0 0 0 0 0 0 0 0 0 0 0 0 0 0 0 0 0 0 0 0 0
831 822 825 699 454 250 285 365 174 108 77 95 88 171 199 160 7 54 49 0 0 0 0 0 0 0 0 0 0 0 0 0 0 0 0 0 0 0 0 0 0 0
1101 1055 972 826 702 567 545 543 348 129 89 147 128 184 258 283 64 86 87 17 16 2 0 0 0 0 0 0 0 0 0 0 0 0 0 0 0 0 0 0 0 0
926 897 791 663 641 645 570 677 281 258 123 166 250 239 298 399 112 110 103 48 37 19 9 0 0 0 0 0 0 0 0 0 0 0 0 0 0 0 0 0 0 0
669 700 805 702 579 666 881 682 677 254 9 204 268 393 333 454 172 134 98 87 43 28 19 8 0 0 0 0 0 0 0 0 0 0 0 0 0 0 0 0 0 0
612 927 1065 1041 739 751 968 999 701 383 252 249 315 457 310 420 286 173 138 130 59 48 29 9 0 0 0 0 0 0 0 0 0 0 0 0 0 0 0 0 0 0
578 662 696 742 844 658 756 892 608 752 659 327 188 210 370 392 344 229 190 173 115 98 51 24 6 0 0 0 0 0 0 0 0 0 0 0 0 0 0 0 0 0
853 858 800 684 622 479 451 839 1011 759 632 605 410 262 448 38 144 272 231 222 194 166 114 72 45 9 1 0 0 0 0 0 0 0 0 0 0 0 0 0 0 0
917 924 875 1168 1026 1019 1121 1015 401 582 641 422 332 337 348 298 30 177 281 272 300 248 208 154 104 42 14 1 0 0 0 0 0 0 0 0 0 0 0 0 0 0
990 1046 960 1073 1021 1073 1182 1136 1117 955 668 705 498 446 283 301 196 72 123 319 323 297 274 224 167 96 46 10 0 0 0 0 0 0 0 0 0 0 0 0 0 0
363 707 975 987 964 1120 1239 1120 844 912 802 879 583 490 286 207 100 466 369 232 331 316 296 266 206 132 52 27 1 0 0 0 0 0 0 0 0 0 0 0 0 0
0 0 0 9 350 802 1116 1018 991 1156 1002 655 532 788 755 384 300 223 596 423 129 262 314 170 142 148 99 19 100 38 0 0 0 10 14 14 4 2 0 0 0 0
0 2 0 0 0 16 13 380 890 1185 755 581 470 527 430 438 573 651 690 640 566 232 31 71 61 194 186 30 134 236 168 115 0 24 31 8 2 5 11 6 0 0
0 0 0 0 25 115 241 369 320 376 706 881 704 664 538 598 601 734 802 728 562 574 60 58 43 77 146 202 213 217 24 0 119 58 5 0 0 0 1 8 11 0
0 0 0 0 0 17 183 296 274 353 482 558 724 828 895 843 810 736 751 756 411 335 129 132 539 84 198 39 123 281 237 235 212 172 0 0 0 0 0 0 11 33
0 0 0 0 0 0 6 79 258 406 426 452 552 682 819 850 768 754 638 616 462 336 337 168 174 155 346 346 156 125 182 208 157 94 54 0 0 0 0 24 10 0
0 0 0 0 0 0 0 24 105 256 397 382 392 448 610 826 794 695 663 463 419 286 208 148 170 250 379 362 308 339 226 146 51 23 25 31 14 0 18 16 7 0
0 0 0 0 0 0 0 0 14 87 215 338 352 358 493 718 828 789 688 596 364 230 268 206 125 269 343 318 376 334 280 229 58 7 0 9 7 13 4 0 0 0
0 0 0 0 0 0 0 0 0 0 87 242 296 254 295 484 722 758 717 627 447 361 233 57 0 174 214 295 306 243 244 172 57 6 0 1 0 0 0 0 0 0
0 0 0 0 0 0 0 0 0 0 43 222 214 248 231 253 378 504 555 500 378 359 102 0 0 0 126 258 219 239 205 14 16 0 4 10 0 0 0 0 0 0
0 0 0 0 0 0 0 0 0 0 7 116 178 227 246 256 246 367 443 397 283 155 30 0 0 0 0 77 128 159 156 0 9 1 2 1 0 0 0 0 0 0
0 0 0 0 0 0 0 0 0 0 0 92 145 145 170 157 180 318 336 308 242 151 0 0 0 0 21 17 100 106 21 2 0 0 0 0 0 0 0 0 0 0
0 0 0 0 0 0 0 0 0 0 2 66 139 142 124 82 91 177 212 108 66 1 0 0 0 48 54 39 48 72 18 0 0 4 0 0 0 0 0 0 0 0
0 0 0 0 1 5 15 9 2 2 28 123 138 97 80 49 68 86 60 0 8 20 3 6 18 8 0 2 5 1 4 0 0 0 0 0 0 0 0 0 0 1

ECMWFNIL_con_mucape_018.txt.gz
CAPE
724 500 553 565 668 515 385 594 379 454 411 505 290 118 31 200 1 9 39 0 0 0 0 0 0 0 0 0 0 0 0 0 0 0 0 0 0 0 0 0 0 0
638 698 413 466 576 522 498 782 503 501 466 602 498 312 110 152 12 72 97 22 0 0 0 0 0 0 0 0 0 0 0 0 0 0 0 0 0 0 0 0 0 0
677 828 516 558 444 730 493 575 867 595 415 581 774 506 270 189 52 202 136 28 0 1 0 0 0 0 0 0 0 0 0 0 0 0 0 0 0 0 0 0 0 0
1000 970 857 768 549 910 726 474 750 834 537 546 839 657 396 220 55 244 215 85 15 18 0 0 0 0 0 0 0 0 0 0 0 0 0 0 0 0 0 0 0 0
1232 1255 1352 1202 952 966 887 574 645 592 628 558 598 686 470 311 116 246 273 124 106 30 6 7 0 0 0 0 0 0 0 0 0 0 0 0 0 0 0 0 0 0
1260 1216 1185 1278 1358 854 608 1038 764 616 704 626 658 563 731 459 173 199 249 158 96 122 50 11 2 0 0 0 0 0 0 0 0 0 0 0 0 0 0 0 0 0
1562 1535 1464 1407 1085 1149 1005 1242 953 748 788 765 523 456 484 657 353 207 198 192 96 138 58 17 0 0 0 0 0 0 0 0 0 0 0 0 0 0 0 0 0 0
1388 984 903 905 1173 1091 727 1323 1078 986 927 1026 932 709 466 706 575 272 260 239 135 109 97 33 2 0 0 0 0 0 0 0 0 0 0 0 0 0 0 0 0 0
1153 835 732 1067 918 780 791 997 1180 1197 987 760 696 686 635 541 575 528 317 265 197 164 105 91 38 0 0 0 0 0 0 0 0 0 0 0 0 0 0 0 0 0
677 545 908 1306 1144 621 830 1049 999 1216 1222 1076 994 900 574 550 689 540 393 400 283 199 131 124 82 30 10 0 0 0 0 0 0 0 0 0 0 0 0 0 0 0
607 98 630 1115 1202 958 1058 1156 922 818 1029 952 1140 1154 780 648 480 462 438 356 427 330 206 158 117 61 21 4 0 0 0 0 0 0 0 0 0 0 0 0 0 0
1240 1181 1032 1140 1054 618 523 802 1113 1112 377 962 997 852 529 524 284 232 175 221 198 313 252 147 114 106 75 29 2 0 0 0 0 0 0 0 0 0 0 0 0 0
1610 1483 1222 1038 1050 831 811 959 1124 1200 946 786 665 606 634 103 143 111 76 142 239 151 66 41 27 67 128 126 116 4 0 0 0 0 0 0 0 0 0 0 0 0
401 410 389 286 493 957 1262 1224 1284 1076 673 639 667 904 690 583 540 522 60 64 75 36 95 48 176 197 92 101 99 97 43 0 0 0 0 0 0 0 0 0 0 0
18 23 23 18 3 0 64 300 1216 1098 826 711 579 548 505 456 444 467 434 346 325 356 251 164 78 302 113 74 220 202 154 140 135 28 0 0 0 0 0 0 0 0
10 38 20 15 12 26 96 165 90 538 1152 757 608 572 550 449 378 426 402 415 366 265 328 291 247 154 40 52 77 189 139 160 140 58 66 0 0 0 0 5 6 0
0 8 46 74 87 117 238 423 446 680 976 1283 931 720 731 639 575 511 399 323 287 344 274 283 253 136 108 222 58 50 90 184 135 0 0 121 136 146 131 26 97 37
0 0 0 0 0 0 0 0 98 340 427 543 573 1016 1136 1041 976 836 743 663 604 499 390 236 200 269 210 207 201 60 100 4 0 0 0 0 0 0 130 145 111 10
0 0 0 0 0 0 1 0 0 12 60 289 403 511 642 860 942 931 922 913 721 521 469 399 363 336 347 321 262 215 91 10 0 65 0 4 0 1 0 0 51 45
0 0 0 0 0 0 0 0 0 0 43 165 297 420 478 497 678 853 936 892 859 590 481 341 291 328 269 258 280 248 191 127 0 0 5 0 1 0 0 3 1 4
0 0 0 0 0 0 0 0 0 7 7 2 66 301 360 391 472 624 817 823 772 685 421 362 290 252 224 222 262 268 198 0 0 1 0 0 0 0 0 0 0 0
0 0 0 0 0 0 0 0 0 0 2 10 36 198 294 306 342 445 662 699 754 695 450 362 306 254 164 221 188 195 0 0 0 0 1 1 0 0 0 0 0 0
0 0 0 0 0 0 0 0 0 0 3 1 0 61 204 240 294 263 242 433 532 384 333 274 279 275 233 206 0 0 120 0 0 1 0 0 0 0 0 0 0 0
0 0 0 0 0 0 0 0 0 0 0 2 4 51 147 195 232 220 136 208 266 117 0 139 201 203 0 0 0 0 99 16 5 7 6 0 0 0 0 0 0 0
0 0 0 0 0 0 14 9 6 4 1 3 6 15 77 149 120 63 146 8 0 177 151 54 132 71 0 0 0 13 70 63 36 9 5 0 0 0 0 2 7 8
0 0 4 4 2 15 46 44 52 37 44 20 14 11 32 78 99 21 12 0 0 0 0 6 7 0 89 54 37 32 32 27 20 8 6 2 1 3 6 5 3 4

ECMWFNIL_con_mucape_021.txt.gz
CAPE
0 5 5 0 0 1 5 3 2 0 0 0 0 0 0 0 0 0 0 0 0 0 0 0 0 0 0 0 0 0 0 0 0 0 0 0 0 0 0 0 0 0
0 38 36 1 4 9 23 5 9 0 0 0 0 0 0 0 0 0 0 0 0 0 0 0 0 0 0 0 0 0 0 0 0 0 0 0 0 0 0 0 0 0
2 34 40 21 13 2 204 40 12 0 16 0 0 0 0 0 0 0 0 0 0 0 0 0 0 0 0 0 0 0 0 0 0 0 0 0 0 0 0 0 0 0
11 0 4 15 23 0 12 267 140 4 248 24 0 0 0 0 0 0 0 7 0 0 0 0 0 0 0 0 0 0 0 0 0 0 0 0 0 0 0 0 0 0
174 23 42 2 85 8 4 361 167 109 226 171 20 0 0 0 0 2 0 0 0 0 0 0 0 0 0 0 0 0 0 0 0 0 0 0 0 0 0 0 0 0
476 61 167 35 285 70 5 241 238 166 112 339 236 17 0 0 0 17 0 0 0 0 0 0 0 0 0 0 0 0 0 0 0 0 0 0 0 0 0 0 0 0
809 810 725 524 433 416 162 188 260 259 175 155 346 228 199 77 75 83 68 0 0 0 0 0 0 0 0 0 0 0 0 0 0 0 0 0 0 0 0 0 0 0
988 858 782 678 555 613 457 344 334 524 540 390 322 350 293 288 288 283 247 202 192 3 0 0 0 0 0 0 0 0 0 0 0 0 0 0 0 0 0 0 0 0
733 694 648 585 571 604 771 820 770 648 524 320 342 352 402 414 340 321 304 290 252 230 187 15 0 0 0 0 0 0 0 0 0 0 0 0 0 0 0 0 0 0
715 716 706 636 537 522 671 712 828 802 646 544 412 7 27 492 486 446 406 364 332 298 245 198 156 31 0 0 0 0 0 0 0 0 0 0 0 0 0 0 0 0
570 625 497 457 459 495 562 563 580 678 725 701 621 412 260 524 398 432 502 464 429 385 302 248 204 173 101 168 171 159 94 0 0 0 0 0 0 0 0 0 0 0
472 473 387 565 553 554 590 676 753 602 553 604 483 322 29 604 575 406 282 292 317 282 254 227 259 244 217 189 186 199 189 158 0 0 0 0 0 0 0 1 1 0
954 587 516 766 700 645 546 433 653 630 480 341 403 452 326 417 385 337 35 56 50 36 22 25 203 264 257 239 191 161 161 154 145 126 101 0 0 0 1 8 13 16
716 672 694 892 860 916 729 468 420 647 659 528 456 338 281 95 186 147 97 68 62 64 56 134 231 246 112 249 175 60 7 10 148 141 0 0 0 0 0 0 0 0
727 705 672 674 635 776 803 844 751 641 678 771 669 571 483 368 243 104 98 152 215 49 95 44 95 202 238 247 196 141 0 0 125 168 150 50 0 0 0 0 0 1
0 0 0 0 0 0 178 300 756 998 963 880 754 638 649 620 568 502 444 399 370 315 165 8 0 103 289 263 195 72 18 97 171 167 161 149 132 125 116 0 0 43
0 0 0 0 0 0 0 0 0 327 811 743 597 534 532 535 518 495 500 482 486 454 407 406 405 394 401 317 231 173 132 0 8 188 189 161 135 116 2 0 0 50
0 0 0 0 0 0 0 0 4 48 82 238 607 658 573 521 579 580 574 554 523 552 535 499 436 424 432 422 339 208 0 0 0 39 157 179 152 121 24 0 32 35
0 0 0 0 0 0 0 0 0 0 0 2 220 513 559 666 709 700 678 619 641 679 670 646 632 576 540 444 332 259 9 0 0 24 222 190 144 114 63 6 0 0
0 0 0 0 0 0 0 0 0 0 0 0 0 0 12 455 732 789 791 840 760 671 658 626 603 596 546 493 403 343 296 283 82 82 80 51 55 52 85 84 53 0
0 0 0 0 0 0 0 0 0 0 0 0 0 0 2 42 47 83 470 606 610 584 523 526 565 573 512 432 380 278 221 263 329 54 0 0 0 7 0 0 0 8
0 0 0 0 0 0 0 0 0 0 0 0 0 0 0 0 37 66 206 381 499 506 523 552 544 520 488 423 328 26 0 164 199 227 174 0 6 3 1 2 2 5
0 0 0 0 0 0 0 0 0 0 0 0 0 0 0 0 0 0 116 331 490 550 511 513 535 534 509 452 358 263 63 59 65 0 0 0 0 0 4 4 4 3
0 0 0 0 0 0 0 0 0 0 0 0 0 0 0 0 0 0 0 0 103 293 354 412 471 446 425 387 317 237 192 135 0 0 1 0 0 0 1 2 5 6
0 0 0 0 0 0 0 0 0 0 0 0 0 0 0 0 0 0 0 0 0 0 109 213 259 242 234 241 228 226 220 105 45 0 0 0 0 1 3 2 2 0
0 0 0 0 0 0 0 0 0 0 0 0 0 0 0 0 0 0 0 0 0 0 0 0 0 0 0 3 163 174 177 182 191 139 57 16 14 18 16 15 16 13

ECMWFNIL_con_mucape_024.txt.gz
CAPE
1 0 0 0 0 0 0 0 0 0 0 0 0 0 0 0 0 0 0 0 0 0 0 0 0 0 0 0 0 0 0 0 0 0 0 0 0 0 0 0 0 0
0 0 0 0 0 0 0 0 0 0 0 0 0 0 0 0 0 0 0 0 0 0 0 0 0 0 0 0 0 0 0 0 0 0 0 0 0 0 0 0 0 0
0 0 0 0 0 0 0 0 0 0 0 0 0 0 0 0 0 0 0 0 0 0 0 0 0 0 0 0 0 0 0 0 0 0 0 0 0 0 0 0 0 0
14 5 0 0 0 0 0 0 0 0 68 0 0 0 0 0 0 0 0 0 0 0 0 0 0 0 0 0 0 0 0 0 0 0 0 0 0 0 0 0 0 0
8 3 0 0 0 0 0 0 0 124 113 150 104 30 0 0 0 0 0 0 0 0 0 0 0 0 0 0 0 0 0 0 0 0 0 0 0 0 0 0 0 0
12 1 0 0 0 0 4 0 0 195 183 213 130 170 163 81 0 0 0 0 0 0 0 0 0 0 0 0 0 0 0 0 0 0 0 0 0 0 0 0 0 0
23 0 0 5 1 0 3 323 227 238 280 250 184 199 197 189 139 44 0 0 0 0 0 0 0 0 0 0 0 0 0 0 0 0 0 0 0 0 0 0 0 0
35 12 0 0 0 10 3 36 308 300 341 270 242 230 209 212 196 202 196 166 149 171 2 0 0 0 0 0 0 0 0 0 0 0 0 0 0 0 0 0 0 0
38 128 38 5 16 21 26 31 33 267 360 273 280 255 256 55 65 172 146 21 22 202 216 182 17 0 0 0 0 0 0 0 0 0 0 0 0 0 0 0 0 0
17 38 104 268 44 28 45 22 33 26 344 347 329 330 340 344 350 96 99 89 65 40 230 51 30 0 0 0 0 0 0 0 0 0 0 0 0 0 0 0 0 0
19 352 340 326 227 81 117 380 426 461 448 433 417 445 443 421 406 377 367 338 323 310 311 292 266 176 78 0 0 0 0 0 0 0 0 0 0 0 0 0 0 0
169 53 222 382 102 352 264 492 413 515 424 545 510 462 407 445 467 422 393 403 374 359 349 355 341 314 288 277 250 216 183 29 0 0 0 0 0 0 0 0 0 0
276 118 224 58 70 42 34 106 212 446 652 662 609 590 573 526 385 494 504 517 496 444 414 397 362 348 323 297 272 244 216 209 183 0 0 0 0 0 2 1 0 0
402 444 473 448 401 233 149 160 71 276 500 576 564 601 550 426 196 19 346 406 428 357 226 232 249 309 321 316 287 252 235 234 214 199 47 0 0 0 0 0 0 0
472 512 538 701 608 636 705 708 611 550 536 517 447 427 419 412 356 275 13 3 0 0 0 0 0 0 1 56 265 260 238 240 230 214 206 165 0 0 0 0 13 0
588 703 656 730 687 676 722 740 779 705 619 577 637 650 631 635 667 643 588 524 421 342 142 115 0 123 119 0 5 156 256 255 250 227 224 210 172 90 0 0 114 73
561 377 441 453 349 190 16 144 306 360 660 763 768 815 806 767 724 642 631 640 589 535 455 448 466 427 375 350 278 0 216 234 225 272 245 190 190 170 140 137 145 125
0 0 0 0 0 0 0 0 0 0 15 354 664 739 704 579 506 442 435 477 512 530 533 541 549 594 598 562 501 440 401 370 343 325 299 240 213 203 181 160 147 125
0 0 0 0 0 0 0 0 0 0 0 27 114 160 182 308 310 385 443 486 532 589 610 604 642 641 619 617 627 594 542 479 431 389 314 257 196 180 162 160 156 134
0 0 0 0 0 0 0 0 0 0 0 0 0 0 1 19 147 300 447 532 570 636 741 732 690 667 622 605 583 513 463 400 389 371 304 162 0 0 0 191 163 132
0 0 0 0 0 0 0 0 0 0 0 0 0 0 0 0 0 0 133 346 482 676 855 804 714 648 565 547 514 439 366 293 283 295 331 351 321 294 0 0 0 4
0 0 0 0 0 0 0 0 0 0 0 0 0 0 0 0 0 0 0 40 278 617 814 761 608 508 508 490 426 367 307 237 94 49 191 225 213 41 0 79 0 11
0 0 0 0 0 0 0 0 0 0 0 0 0 0 0 0 0 0 0 0 144 444 602 598 561 474 409 328 286 255 208 0 0 0 0 0 0 0 0 0 7 2
0 0 0 0 0 0 0 0 0 0 0 0 0 0 0 0 0 0 0 0 72 352 456 519 559 517 466 384 280 228 201 73 0 0 0 0 0 28 32 10 8 4
0 0 0 0 0 0 0 0 0 0 0 0 0 0 0 0 0 0 0 0 0 113 332 389 377 339 244 209 200 188 173 172 108 0 0 0 20 20 14 6 5 6
0 0 0 0 0 0 0 0 0 0 0 0 0 0 0 0 0 0 0 0 0 8 215 297 264 215 176 174 178 63 7 147 136 0 62 36 8 4 4 7 8 6

ECMWFNIL_con_mucape_027.txt.gz
CAPE
0 0 0 0 8 6 0 0 0 0 0 0 0 0 0 0 0 0 0 0 0 0 0 0 0 0 0 0 0 0 0 0 0 0 0 0 0 0 0 0 0 0
0 0 0 0 2 3 0 0 0 0 0 0 0 0 0 0 0 0 0 0 0 0 0 0 0 0 0 0 0 0 0 0 0 0 0 0 0 0 0 0 0 0
0 0 0 0 0 0 0 0 0 0 0 0 0 0 0 0 0 0 0 0 0 0 0 0 0 0 0 0 0 0 0 0 0 0 0 0 0 0 0 0 0 0
0 0 0 0 0 0 0 0 0 0 0 0 0 0 0 0 0 0 0 0 0 0 0 0 0 0 0 0 0 0 0 0 0 0 0 0 0 0 0 0 0 0
1 0 0 0 0 0 0 0 0 0 0 0 0 0 0 0 0 0 0 0 0 0 0 0 0 0 0 0 0 0 0 0 0 0 0 0 0 0 0 0 0 0
51 3 0 0 0 0 0 0 0 0 0 0 0 0 0 0 0 0 0 0 0 0 0 0 0 0 0 0 0 0 0 0 0 0 0 0 0 0 0 0 0 0
71 5 0 0 0 0 0 0 0 0 0 0 0 0 0 0 0 0 0 0 0 0 0 0 0 0 0 0 0 0 0 0 0 0 0 0 0 0 0 0 0 0
146 65 0 0 0 10 0 0 3 0 0 0 1 88 71 68 0 0 0 0 0 0 0 0 0 0 0 0 0 0 0 0 0 0 0 0 0 0 0 0 0 0
127 62 47 21 15 24 29 19 10 0 0 0 130 135 124 3 8 15 17 8 1 0 0 0 0 0 0 0 0 0 0 0 0 0 0 0 0 0 0 0 0 0
240 158 108 77 65 52 40 17 32 0 32 251 226 203 183 0 0 4 3 0 0 1 2 6 0 0 0 0 0 0 0 0 0 0 0 0 0 0 0 0 0 0
190 172 87 136 51 24 36 39 47 20 0 0 0 0 0 0 0 0 0 96 0 0 3 4 2 84 8 6 1 0 0 0 0 0 0 0 0 0 0 0 0 0
387 303 126 122 57 31 59 48 57 63 44 0 0 0 0 0 0 0 0 11 244 0 0 36 267 7 40 20 3 4 1 0 0 0 0 0 0 0 0 0 0 0
180 187 223 34 51 48 60 48 37 48 41 13 0 203 0 0 0 8 0 111 232 319 360 368 369 358 360 362 232 85 8 8 174 162 0 0 8 0 0 0 0 0
248 210 121 110 92 186 305 47 48 68 46 256 191 53 28 333 16 6 269 222 214 292 445 471 491 441 415 424 362 332 300 95 22 236 226 229 223 210 176 42 0 0
227 0 20 112 120 56 49 462 155 62 45 10 110 35 98 44 64 299 318 266 149 412 564 548 535 510 372 0 0 16 40 48 59 59 254 254 228 217 193 166 123 99
367 354 354 363 128 268 294 336 223 56 56 5 106 91 75 26 66 87 247 247 330 393 401 409 372 290 282 257 192 80 90 92 86 104 144 262 249 233 209 183 140 125
374 301 247 253 252 248 303 315 341 326 454 553 552 476 362 253 66 576 722 697 644 628 632 609 576 510 519 502 490 464 426 378 336 306 264 238 219 200 231 205 179 151
611 580 586 680 668 612 584 581 555 565 551 544 528 550 634 747 727 751 725 638 512 501 507 552 580 588 595 578 565 539 497 485 469 466 456 440 422 390 376 316 285 223
0 0 64 293 202 0 0 0 0 0 0 0 4 85 142 205 258 238 268 348 424 450 466 553 606 617 614 578 539 516 507 529 539 523 522 501 479 474 448 393 314 250
0 0 0 0 0 0 0 0 0 0 0 0 0 60 110 138 147 114 38 61 207 313 397 538 674 714 660 590 526 485 425 365 326 309 335 349 368 391 359 308 263 232
0 0 0 0 0 0 0 0 0 0 0 0 0 0 0 0 0 0 0 0 0 0 282 451 672 723 656 587 488 389 347 294 250 220 224 255 284 303 320 347 361 339
0 0 0 0 0 0 0 0 0 0 0 0 0 0 0 0 0 0 0 0 0 0 183 397 540 602 601 504 398 320 228 71 0 0 0 0 152 188 233 282 278 248
0 0 0 0 0 0 0 0 0 0 0 0 0 0 0 0 0 0 0 0 0 0 16 248 442 485 446 337 230 189 117 0 0 0 0 0 0 0 104 105 0 30
0 0 0 0 0 0 0 0 0 0 0 0 0 0 0 0 0 0 0 0 0 0 0 22 267 339 375 334 277 205 132 0 0 0 0 0 0 0 0 0 0 0
0 0 0 0 0 0 0 0 0 0 0 0 0 0 0 0 0 0 0 0 0 0 0 0 108 250 330 347 274 189 137 0 0 0 0 0 0 0 0 0 0 0
0 0 0 0 0 0 0 0 0 0 0 0 0 0 0 0 0 0 0 0 0 0 0 0 0 178 247 272 186 50 0 0 0 0 0 0 0 0 0 2 4 8

ECMWFNIL_con_mucape_030.txt.gz
CAPE
0 0 0 0 0 0 0 3 3 0 0 0 0 0 0 0 0 0 0 0 0 0 0 0 0 0 0 0 0 0 0 0 0 0 0 0 0 0 0 0 0 0
8 0 0 0 0 0 0 0 0 0 0 0 0 0 0 0 0 0 0 0 0 0 0 0 0 0 0 0 0 0 0 0 0 0 0 0 0 0 0 0 0 0
238 8 0 0 0 0 0 0 0 0 0 0 0 0 0 0 0 0 0 0 0 0 0 0 0 0 0 0 0 0 0 0 0 0 0 0 0 0 0 0 0 0
362 188 0 0 0 0 0 0 0 0 0 0 0 0 0 0 0 0 0 0 0 0 0 0 0 0 0 0 0 0 0 0 0 0 0 0 0 0 0 0 0 0
445 138 0 0 0 0 0 0 0 0 0 0 0 0 0 0 0 0 0 0 0 0 0 0 0 0 0 0 0 0 0 0 0 0 0 0 0 0 0 0 0 0
485 39 20 0 0 0 0 0 0 0 0 0 0 0 0 0 0 0 0 0 0 0 0 0 0 0 0 0 0 0 0 0 0 0 0 0 0 0 0 0 0 0
424 6 14 28 33 22 2 0 0 0 0 0 0 0 0 0 0 0 0 0 0 0 0 0 0 0 0 0 0 0 0 0 0 0 0 0 0 0 0 0 0 0
338 2 40 56 49 54 11 0 0 0 0 0 0 0 0 0 0 0 0 0 0 0 0 0 0 0 0 0 0 0 0 0 0 0 0 0 0 0 0 0 0 0
542 352 91 111 90 31 0 0 0 0 0 0 0 0 0 0 0 0 0 0 0 0 0 0 0 0 0 0 0 0 0 0 0 0 0 0 0 0 0 0 0 0
764 723 444 158 44 38 11 0 0 0 0 0 0 0 0 0 0 0 0 0 0 0 0 0 0 0 0 22 0 0 0 0 0 0 0 0 0 0 0 0 0 0
787 745 447 0 0 59 44 9 6 1 0 0 0 0 0 191 192 178 12 0 0 0 0 0 0 0 0 58 0 0 0 0 0 0 0 0 0 0 0 0 0 0
787 520 320 147 163 104 86 53 15 4 0 0 16 0 0 0 0 239 245 175 72 0 0 0 0 0 2 4 5 47 123 30 0 0 0 0 0 0 12 10 30 6
654 395 353 311 216 217 157 149 88 0 0 0 0 0 3 0 0 0 0 28 0 0 0 0 2 4 9 5 23 48 0 202 224 211 0 0 0 76 0 0 44 32
788 575 455 400 289 288 263 222 124 32 4 0 0 0 0 0 0 0 0 0 0 2 0 0 0 0 0 0 13 169 65 87 299 303 268 225 62 140 0 0 1 2
672 621 477 384 336 261 160 127 54 17 9 0 213 196 1 9 7 0 0 0 19 3 0 0 0 0 77 312 258 268 262 16 0 0 28 120 213 176 0 0 0 5
527 520 496 440 375 393 263 71 200 255 394 307 121 6 18 10 11 2 1 6 11 232 236 132 41 154 322 318 313 250 87 90 84 54 42 0 0 0 94 96 75 7
458 416 354 287 302 356 422 464 185 296 384 372 343 17 14 8 12 4 0 0 0 0 0 250 462 476 459 407 380 347 329 302 284 278 257 241 232 219 222 219 213 189
556 494 403 351 323 323 332 338 221 85 67 48 156 372 496 449 382 372 290 69 21 324 559 597 519 464 437 452 470 470 480 457 428 393 381 367 344 304 283 256 248 231
513 528 479 416 398 485 509 545 518 488 483 476 306 224 91 338 370 414 455 402 443 511 460 388 448 508 493 475 444 424 411 403 390 376 386 388 386 405 405 399 394 377
225 172 235 451 662 655 519 278 178 140 91 13 15 6 56 102 203 237 246 249 289 344 327 301 410 546 582 522 439 385 349 317 260 247 235 228 230 235 252 273 302 300
0 0 0 0 0 21 54 0 0 0 0 0 0 0 0 0 0 89 92 76 0 0 0 18 290 515 609 562 468 373 299 244 198 36 0 0 0 131 190 230 258 278
0 0 0 0 0 0 0 0 0 0 0 0 0 0 0 0 0 0 0 0 0 0 0 0 0 334 499 551 439 387 260 173 0 0 0 0 0 0 0 41 166 224
0 0 0 0 0 0 0 0 0 0 0 0 0 0 0 0 0 0 0 0 0 0 0 0 0 0 295 445 452 364 223 35 0 0 0 0 0 0 0 0 50 116
0 0 0 0 0 0 0 0 0 0 0 0 0 0 0 0 0 0 0 0 0 0 0 0 0 0 59 232 323 292 205 56 0 0 0 0 0 0 0 0 0 0
0 0 0 0 0 0 0 0 0 0 0 0 0 0 0 0 0 0 0 0 0 0 0 0 0 0 0 153 231 273 233 135 0 0 0 0 0 0 0 0 0 0
0 0 0 0 0 0 0 0 0 0 0 0 0 0 0 0 0 0 0 0 0 0 0 0 0 0 0 127 182 206 187 140 86 0 0 0 0 0 0 0 0 0

ECMWFNIL_con_mucape_033.txt.gz
CAPE
496 559 496 390 299 181 87 50 50 33 10 25 15 0 0 0 0 0 0 0 0 0 0 0 0 0 0 0 0 0 0 0 0 0 0 0 0 0 0 0 0 0
308 285 239 334 143 32 89 148 49 25 17 18 9 2 2 2 0 0 0 0 0 0 0 0 0 0 0 0 0 0 0 0 0 0 0 0 0 0 0 0 0 0
288 234 309 402 248 113 48 31 9 49 90 43 21 23 9 28 0 0 0 0 0 0 0 0 0 0 0 0 0 0 0 0 0 0 0 0 0 0 0 0 0 0
262 302 360 444 226 201 176 51 20 0 0 2 37 21 55 21 21 1 37 0 0 0 0 0 0 0 0 0 0 0 0 0 0 0 0 0 0 0 0 0 0 0
308 170 187 364 335 376 193 130 3 0 0 85 66 4 24 53 2 0 1 0 10 1 3 0 0 0 0 0 0 0 0 0 0 0 0 0 0 0 0 0 0 0
254 191 216 150 279 278 264 239 10 0 0 12 168 37 102 148 47 0 1 0 0 0 0 0 0 0 0 0 0 0 0 0 0 0 0 0 0 0 0 0 0 0
414 220 281 212 219 318 401 382 99 0 14 31 1 63 37 60 32 4 0 0 0 0 0 0 0 0 0 0 0 0 0 0 0 0 0 0 0 0 0 0 0 0
490 304 296 266 362 351 506 479 116 5 0 0 23 7 27 26 25 32 4 0 0 0 0 0 0 0 0 0 0 0 0 0 0 0 0 0 0 0 0 0 0 0
570 471 422 348 477 201 495 453 273 48 0 18 8 15 15 39 60 59 14 2 0 0 0 0 0 0 0 0 0 0 0 0 0 0 0 0 0 0 0 0 0 0
625 564 599 531 489 508 113 82 453 294 90 73 50 100 50 73 127 103 60 57 85 64 67 43 8 7 1 0 0 0 0 0 0 0 0 0 0 0 0 0 0 0
747 696 649 646 737 657 689 298 343 507 274 130 207 265 320 252 167 110 174 118 232 148 138 84 58 40 24 34 111 43 0 0 0 0 0 0 0 0 0 0 0 0
775 742 731 713 677 670 708 627 635 560 385 358 324 377 358 321 213 286 273 248 129 115 149 160 162 172 101 71 32 7 4 0 0 2 0 4 2 22 5 27 0 0
869 832 796 801 782 731 684 619 561 672 602 505 517 554 511 444 114 23 116 170 260 299 249 158 110 103 189 182 71 19 0 0 2 0 0 0 1 0 2 0 14 21
982 943 858 766 785 568 521 572 609 665 622 627 492 448 478 413 265 249 291 239 96 355 395 259 206 259 336 325 205 132 64 37 24 20 0 0 0 0 95 0 42 0
821 798 703 432 327 417 428 438 460 459 41 12 234 608 579 483 454 397 411 212 256 432 315 320 354 414 476 575 503 258 240 251 209 181 56 7 4 0 22 65 173 153
665 696 716 601 359 336 403 426 408 414 398 192 175 534 629 643 622 661 649 572 309 321 289 11 144 324 81 0 1 158 225 81 70 82 68 74 65 102 97 17 2 3
526 558 557 565 532 454 358 331 414 50 56 48 26 569 52 236 470 423 454 436 5 168 324 397 453 346 0 0 228 333 356 357 328 316 277 244 203 185 179 185 184 154
558 524 496 464 450 463 441 421 442 447 132 333 502 244 262 183 290 295 395 24 29 231 543 601 580 14 357 472 439 426 443 466 420 400 384 379 359 359 335 307 257 206
490 549 566 521 462 402 343 397 432 431 556 114 486 533 326 325 403 368 18 32 268 404 432 435 590 363 292 362 445 484 457 427 388 509 482 503 379 359 359 375 377 373
302 430 448 427 542 429 372 382 370 214 299 59 230 73 199 23 7 27 69 56 316 398 416 340 376 374 417 496 490 442 386 358 363 787 827 690 511 387 366 328 252 234
0 0 0 73 230 401 610 486 241 58 20 56 82 80 25 29 13 13 62 37 236 237 203 326 423 560 594 556 479 412 340 317 169 149 273 337 239 145 86 109 139 143
0 0 0 0 0 0 0 22 9 27 29 34 21 17 29 42 51 44 19 31 30 25 23 39 171 420 581 541 472 408 354 276 46 15 189 106 1 0 0 0 0 4
0 0 0 0 0 0 0 0 0 0 0 0 0 0 0 0 2 0 0 0 0 0 12 31 0 0 202 459 469 446 356 281 89 22 0 0 0 0 0 0 0 0
0 0 0 0 1 0 0 0 0 0 0 0 0 0 0 0 0 0 0 0 0 13 24 154 7 0 0 66 342 411 364 242 90 19 0 0 0 0 0 0 0 0
0 0 0 0 0 0 0 0 0 0 0 0 0 0 0 0 0 0 0 0 0 0 0 3 0 0 0 0 197 266 286 259 142 0 0 0 0 0 0 0 0 0
0 0 0 0 0 0 0 0 0 0 0 0 0 1 0 0 0 0 0 0 0 0 0 0 0 0 0 0 0 193 237 225 137 0 0 0 0 0 0 0 0 0

ECMWFNIL_con_mucape_036.txt.gz
CAPE
1229 1067 860 450 156 104 59 6 0 0 0 0 2 1 3 9 0 0 0 0 0 0 0 0 0 0 0 0 0 0 0 0 0 0 0 0 0 0 0 0 0 0
1389 1064 581 385 156 91 75 33 0 0 0 0 2 6 6 13 2 0 0 0 0 0 0 0 0 0 0 0 0 0 0 0 0 0 0 0 0 0 0 0 0 0
1505 1219 830 447 171 244 172 146 10 1 1 0 7 12 33 33 4 0 0 0 0 0 0 0 0 0 0 0 0 0 0 0 0 0 0 0 0 0 0 0 0 0
1415 1176 890 567 333 459 372 290 149 25 35 8 15 12 51 37 21 1 0 0 0 0 0 0 0 0 0 0 0 0 0 0 0 0 0 0 0 0 0 0 0 0
1408 1124 1001 766 331 326 268 440 358 480 363 136 50 26 4 38 23 2 2 2 0 0 0 0 0 0 0 0 0 0 0 0 0 0 0 0 0 0 0 0 0 0
1208 1143 1115 743 323 25 36 462 202 18 75 352 216 18 11 14 4 2 3 12 1 0 2 0 0 0 0 0 0 0 0 0 0 0 0 0 0 0 0 0 0 0
1280 1240 1202 900 488 470 247 229 2 15 62 216 221 126 53 14 2 2 0 0 0 0 0 7 1 1 7 3 0 0 0 0 0 0 0 0 0 0 0 0 0 0
1441 1420 1384 1161 1034 753 770 452 67 217 374 426 450 438 189 49 4 30 6 0 0 0 1 5 7 27 12 12 6 15 6 0 0 0 0 0 0 0 0 0 0 0
1380 1351 1298 1384 1380 1021 596 321 64 190 411 426 430 284 275 84 111 136 28 6 3 2 1 1 0 2 20 31 32 59 34 43 45 28 12 3 0 0 0 0 0 0
1199 1049 1257 1343 1407 1058 662 713 508 159 104 447 519 415 270 229 152 179 120 181 166 170 150 120 108 142 122 101 82 65 42 60 57 58 44 46 32 1 1 0 0 0
1101 1010 981 1196 1248 1093 1096 726 953 196 23 108 525 716 559 535 444 324 319 301 454 345 394 418 392 347 332 363 458 355 195 149 133 140 172 84 108 78 8 7 3 0
1008 1048 952 1034 1091 1138 1214 1088 1210 989 720 32 91 545 662 784 736 679 560 568 545 424 480 500 468 521 538 525 543 540 442 418 462 405 294 185 130 48 4 2 10 4
881 813 747 824 938 968 994 885 1016 1106 984 658 423 231 656 768 827 836 913 789 710 651 640 671 692 699 685 597 568 634 616 630 771 462 342 363 454 391 192 83 43 5
1141 1119 1008 932 868 727 594 774 761 886 927 742 728 578 720 690 778 872 1000 927 892 944 846 891 916 825 720 635 538 635 648 642 641 643 516 485 584 468 421 364 202 80
1104 925 882 910 906 968 870 637 724 812 990 922 1111 1120 950 758 865 901 1132 1032 1099 1089 1024 995 970 812 784 874 888 859 829 904 1028 972 896 912 967 923 802 672 557 411
1066 948 871 879 859 850 859 698 732 1159 1373 1418 1372 1214 1207 1007 914 956 1042 1021 915 934 1072 1214 1108 979 1122 502 570 815 999 790 948 884 828 957 969 955 892 700 562 559
818 1014 869 994 790 834 880 842 781 940 1269 1149 1126 1048 1072 1063 1037 938 1029 1028 943 1030 1202 1327 1204 928 0 0 0 13 740 1195 1167 1243 1220 1130 1108 1124 1078 969 1007 777
727 750 781 774 847 890 830 856 810 843 995 1156 1116 1130 1116 1209 1183 1114 1078 1165 1191 1092 1117 1200 1238 630 16 4 14 9 4 1069 1203 1266 1392 1383 1336 1259 1088 980 878 905
864 927 940 986 988 914 898 937 994 824 1046 1166 1101 696 644 635 382 830 657 798 918 863 675 733 1072 618 23 14 28 392 423 570 1413 1346 1124 1134 1057 1030 927 798 811 798
218 396 618 844 914 918 890 944 1062 1131 1200 1153 714 207 472 519 530 251 173 519 538 682 830 678 600 574 216 350 208 465 454 518 1174 767 527 400 375 345 445 306 352 312
0 0 2 83 518 938 999 993 1007 1098 1007 869 643 650 423 382 83 53 60 324 488 672 788 1047 667 372 353 416 468 523 446 372 680 370 142 104 164 383 370 469 517 495
0 0 0 0 0 102 450 615 743 734 721 645 489 471 417 291 341 323 289 116 244 585 721 879 472 502 481 551 570 418 466 791 350 154 50 73 86 204 182 264 313 451
0 0 0 0 0 0 0 24 211 319 360 324 270 264 357 288 261 338 299 311 321 506 426 620 623 573 648 567 587 371 368 498 178 61 140 115 138 137 123 119 92 100
0 0 0 0 0 0 0 15 147 250 286 140 161 126 102 91 94 50 24 8 9 55 122 66 485 248 583 619 528 521 496 450 161 123 207 120 78 78 34 0 0 0
0 0 0 0 0 2 14 46 133 162 146 143 79 48 54 14 0 0 0 0 0 18 1 127 167 2 73 226 527 531 402 751 127 187 220 139 52 9 0 0 0 0
0 0 0 0 0 0 5 60 71 36 59 14 8 0 0 0 0 0 0 0 0 0 27 63 98 115 0 0 13 350 409 416 201 145 289 216 68 0 0 0 0 0

ECMWFNIL_con_mucape_039.txt.gz
CAPE
864 639 317 203 137 65 47 13 14 50 40 54 42 5 0 0 0 0 0 0 0 0 0 0 0 0 0 0 0 0 0 0 0 0 0 0 0 0 0 0 0 0
703 747 282 178 34 11 23 32 35 50 59 16 5 1 0 0 0 0 0 0 0 0 0 0 0 0 0 0 0 0 0 0 0 0 0 0 0 0 0 0 0 0
756 781 366 180 19 56 29 35 15 2 2 6 6 1 0 0 0 0 0 0 0 0 0 0 0 0 0 0 0 0 0 0 0 0 0 0 0 0 0 0 0 0
992 891 446 109 82 118 91 6 1 0 1 15 3 4 1 0 0 0 0 0 0 0 0 0 0 0 0 0 0 0 0 0 0 0 0 0 0 0 0 0 0 0
1257 1077 500 88 85 105 98 38 2 0 0 0 5 2 0 0 0 0 0 0 0 0 0 0 0 0 0 0 0 0 0 0 0 0 0 0 0 0 0 0 0 0
1268 902 760 197 41 114 104 119 117 34 1 2 1 0 0 2 0 0 0 0 0 0 0 0 0 0 0 0 0 0 0 0 0 0 0 0 0 0 0 0 0 0
1283 1082 987 362 16 49 88 274 221 331 218 26 0 0 4 4 1 2 4 2 0 0 0 0 0 0 0 0 0 0 0 0 0 0 0 0 0 0 0 0 0 0
1443 1202 1164 605 169 24 120 170 3 4 253 205 62 0 0 0 1 3 4 5 0 0 0 0 0 1 8 7 0 0 0 0 0 0 0 0 0 0 0 0 0 0
1369 1018 1162 915 518 219 246 215 1 2 92 395 466 13 0 0 0 1 0 0 0 2 4 4 6 10 83 93 30 10 4 27 22 0 0 0 0 0 0 0 0 0
1348 1291 1234 1166 874 433 413 200 74 221 140 439 324 253 51 0 0 0 0 0 0 0 10 26 22 47 73 63 45 94 67 55 111 153 63 43 1 0 0 0 0 0
1041 1062 1085 1436 1424 854 484 236 61 153 147 18 194 66 118 51 44 0 0 0 1 0 11 28 66 108 154 192 227 244 257 221 150 146 136 122 159 200 117 80 39 15
1171 1300 1150 1116 1206 1083 668 603 206 47 48 57 136 125 67 114 66 2 5 1 15 3 8 26 62 186 326 375 465 477 401 370 342 389 370 264 304 294 126 236 248 169
1141 1277 1327 1169 1131 1124 1126 869 681 303 24 0 51 168 139 32 43 65 68 26 32 9 6 166 159 232 326 456 772 638 595 581 621 586 542 434 372 336 257 128 158 190
1366 1180 1184 1286 1234 1200 1178 1118 774 676 452 186 174 128 184 148 21 54 46 27 311 292 325 256 268 433 613 784 801 828 795 797 961 724 510 458 434 430 602 406 320 359
1242 1173 1130 1313 1040 830 947 859 959 1135 1126 875 509 359 245 156 104 57 78 178 306 638 600 590 734 830 886 919 816 556 814 726 820 856 705 671 799 687 759 759 680 671
1054 1094 1154 1179 1045 1016 855 1000 1026 880 689 791 935 865 655 899 320 102 51 437 510 640 787 952 1035 1214 1780 542 579 1294 1004 900 988 1066 1016 1047 1000 843 816 614 728 792
1202 1134 1214 1078 931 1087 974 1025 838 909 920 983 1012 861 597 313 574 695 448 927 967 754 898 1041 1082 595 607 671 609 638 1014 1228 1157 1118 721 1012 932 646 657 948 777 609
821 938 1005 1038 997 929 826 698 662 782 964 991 719 554 358 296 503 519 509 466 551 693 872 576 333 482 655 626 288 0 0 337 1033 960 434 486 562 252 389 670 453 638
836 921 882 898 989 1030 756 951 1027 1010 809 667 690 660 595 691 616 711 896 852 975 1058 959 590 576 619 682 622 148 0 0 32 679 400 62 4 2 458 503 821 615 662
374 594 806 1000 967 984 962 1013 1191 1348 1317 1055 1172 808 727 802 928 1123 1157 1133 1011 981 1013 830 969 708 530 513 194 0 0 1 628 378 162 80 106 234 469 656 685 772
0 0 41 107 356 685 865 1212 1261 1404 1409 1431 1295 1195 866 975 1098 1161 1163 1082 1004 964 754 676 734 555 441 463 403 0 1 309 321 668 101 175 178 376 283 220 182 158
0 0 0 0 0 22 143 262 572 882 1294 1364 979 878 933 1006 1030 967 923 959 984 887 777 1079 628 452 440 484 412 98 362 402 717 669 319 84 85 41 22 49 102 108
0 0 0 0 0 0 0 0 79 285 353 383 437 471 531 548 555 459 426 511 645 870 714 760 390 0 0 14 397 532 564 281 473 20 1 21 54 0 120 251 126 103
0 0 0 0 0 0 0 0 0 34 98 215 250 294 359 465 501 329 428 550 421 543 734 948 944 4 6 368 570 495 420 515 144 3 51 40 59 38 64 0 0 0
0 0 0 0 2 9 26 38 25 24 36 138 127 142 164 283 283 314 324 340 411 301 534 590 797 350 463 623 679 418 336 223 365 56 275 171 56 74 11 0 0 0
0 0 0 0 4 17 31 44 45 53 80 98 75 92 116 128 43 6 29 51 107 235 306 194 590 287 615 703 651 467 394 448 183 145 356 332 258 126 10 0 0 0

ECMWFNIL_con_mucape_042.txt.gz
CAPE
930 912 1022 814 876 822 613 591 417 388 711 566 163 7 16 14 0 0 0 0 0 0 0 0 0 0 0 0 0 0 0 0 0 0 0 0 0 0 0 0 0 0
819 1061 568 746 786 451 657 655 462 614 788 557 325 107 4 1 0 0 0 0 0 0 0 0 0 0 0 0 0 0 0 0 0 0 0 0 0 0 0 0 0 0
1157 896 537 674 616 458 630 600 625 828 530 524 321 59 2 0 0 0 0 0 0 0 0 0 0 0 0 0 0 0 0 0 0 0 0 0 0 0 0 0 0 0
1251 901 524 758 516 556 517 564 549 518 634 379 205 59 3 0 5 0 0 0 0 0 0 0 0 0 0 0 0 0 0 0 0 0 0 0 0 0 0 0 0 0
1126 941 589 564 507 500 347 380 291 384 439 398 270 39 5 1 0 0 0 0 0 0 0 0 0 0 0 0 0 0 0 0 0 0 0 0 0 0 0 0 0 0
1106 966 491 321 462 474 363 258 199 304 420 354 220 30 14 0 0 0 4 0 0 0 0 0 0 0 0 0 0 0 0 0 0 0 0 0 0 0 0 0 0 0
979 1122 754 409 459 454 387 259 289 99 281 298 28 129 16 5 0 0 0 2 0 0 0 4 0 0 5 1 0 1 0 0 0 0 0 0 0 0 0 0 0 0
1130 914 1100 405 387 458 429 667 628 449 472 60 30 137 14 4 0 10 3 1 0 0 2 0 0 0 0 4 0 0 0 0 0 0 0 0 0 0 0 0 0 0
1148 927 1205 540 420 347 603 277 473 590 370 299 134 165 59 23 6 53 15 1 4 2 0 0 0 13 100 37 6 0 0 0 15 0 5 0 0 0 0 0 0 0
983 1102 1159 884 220 290 603 118 179 193 435 465 327 15 3 108 110 1 8 15 15 3 5 3 6 136 176 66 3 0 53 23 62 62 0 6 0 0 1 0 26 0
1229 1308 1246 1085 533 295 621 272 254 161 252 526 837 399 44 143 76 0 10 0 102 2 2 31 53 44 79 176 279 283 146 258 180 55 147 55 187 272 82 96 2 49
1431 1474 1595 1446 1256 928 708 260 203 302 367 480 497 274 374 325 196 2 8 5 0 0 1 27 37 81 109 167 211 354 453 389 337 385 251 236 262 294 119 216 186 214
1445 1360 1136 900 808 675 306 429 237 187 354 190 330 251 331 323 201 110 116 64 0 5 28 11 65 125 216 362 442 421 505 491 495 666 603 524 483 331 291 375 262 273
813 780 979 838 928 761 455 250 320 686 220 112 134 410 337 159 186 149 303 85 87 105 56 114 197 220 77 155 444 453 590 637 669 811 761 707 636 493 514 412 285 322
880 751 905 874 806 710 525 390 369 571 536 980 597 770 1255 871 454 161 218 131 101 272 319 280 339 142 100 65 170 368 256 411 550 529 659 398 213 371 338 562 648 363
696 1096 1128 960 904 798 640 590 628 855 973 588 764 1054 1018 847 494 393 679 593 456 508 503 135 369 349 201 0 5 475 576 516 491 567 387 56 20 82 324 350 426 311
793 768 818 1062 1089 1065 1042 944 1025 1051 807 820 873 999 601 593 541 576 811 607 605 758 458 339 326 229 8 0 293 379 416 705 815 324 348 277 338 406 26 111 223 324
820 739 977 1030 1133 846 1034 1039 991 1049 943 866 1152 1003 859 799 612 599 621 656 741 810 660 544 416 230 0 0 335 410 411 461 454 427 343 337 236 421 299 170 86 156
604 614 654 786 839 775 1061 1195 1017 1043 954 982 1132 1020 894 716 740 641 514 708 928 961 732 543 516 404 345 0 312 397 437 489 421 372 452 254 184 130 184 286 407 337
486 559 630 748 788 817 887 879 739 692 1040 1048 913 743 723 767 672 600 589 696 1015 1086 1072 851 809 564 233 0 422 447 449 452 329 638 386 467 330 494 561 389 462 296
0 0 0 8 373 685 771 840 953 1152 820 911 816 767 691 667 683 756 760 736 892 897 905 1081 812 609 548 521 556 556 538 400 302 724 607 360 386 178 135 3 191 216
0 1 2 0 0 0 4 94 737 1107 1000 875 890 786 647 713 717 720 608 546 572 770 1005 834 727 763 706 581 495 460 433 325 270 589 588 479 306 284 6 4 41 138
0 0 0 0 0 4 0 2 12 162 533 751 778 726 555 546 593 607 549 490 566 782 869 792 763 687 625 576 494 442 426 298 344 522 608 487 298 126 55 4 0 0
0 0 0 0 0 0 10 66 56 25 76 203 354 472 548 527 546 568 550 547 611 732 696 782 771 723 695 598 434 336 345 342 402 708 775 542 102 25 0 0 0 0
0 0 0 0 0 3 16 16 56 61 48 54 134 159 207 348 311 366 394 437 526 590 609 634 782 711 498 165 0 212 375 439 523 715 428 14 7 0 0 0 0 0
0 0 0 0 0 0 0 0 0 1 23 107 167 57 38 63 123 85 234 275 300 432 693 665 847 702 347 0 189 418 508 519 340 356 91 50 27 0 0 0 0 0

ECMWFNIL_con_mucape_045.txt.gz
CAPE
5 1 0 0 0 0 4 0 8 1 0 0 0 0 0 0 0 0 0 0 0 0 0 0 0 0 0 0 0 0 0 0 0 0 0 0 0 0 0 0 0 0
29 30 0 3 0 0 0 0 0 2 0 0 0 0 0 0 0 0 0 0 0 0 0 0 0 0 0 0 0 0 0 0 0 0 0 0 0 0 0 0 0 0
266 19 0 12 0 0 0 0 0 1 0 0 0 0 0 0 0 0 0 0 0 0 0 0 0 0 0 0 0 0 0 0 0 0 0 0 0 0 0 0 0 0
84 0 0 1 0 0 0 0 3 0 0 0 0 0 0 0 0 0 0 0 0 0 0 0 0 0 0 0 0 0 0 0 0 0 0 0 0 0 0 0 0 0
69 0 8 0 0 0 0 0 0 0 0 0 0 0 0 0 0 0 0 0 0 0 0 0 0 0 0 0 0 0 0 0 0 0 0 0 0 0 0 0 0 0
96 0 4 0 0 0 0 0 0 0 0 0 0 0 0 0 0 0 0 0 0 0 0 0 0 0 0 0 0 0 0 0 0 0 0 0 0 0 0 0 0 0
313 5 0 0 0 0 0 0 0 0 0 0 0 0 0 0 0 0 0 0 0 0 0 0 0 0 0 0 0 0 0 0 0 0 0 0 0 0 0 0 0 0
585 287 0 1 2 0 2 1 0 0 0 0 0 0 0 0 0 0 0 0 0 0 0 0 0 0 0 0 0 0 0 0 0 0 0 0 0 0 0 0 0 0
653 348 19 10 18 30 47 19 6 1 0 0 0 0 0 0 0 0 0 0 0 0 0 0 0 0 0 0 0 0 0 0 0 0 0 0 0 0 0 0 0 0
652 436 259 83 120 160 135 72 28 37 0 0 0 0 0 0 0 0 0 0 0 0 0 0 0 0 0 0 0 0 0 0 0 0 0 0 0 0 0 0 0 0
467 579 317 161 216 237 218 131 122 67 16 0 1 0 0 0 0 0 0 0 0 0 0 0 0 0 0 0 0 0 0 0 0 0 0 0 0 0 0 0 0 0
414 250 288 171 226 227 229 206 155 67 72 42 139 0 0 0 0 0 0 0 0 0 0 0 0 0 0 0 0 0 0 0 0 0 0 2 0 0 0 0 0 0
350 411 264 225 274 264 210 224 192 122 31 129 370 0 0 0 0 0 0 0 0 0 0 0 0 0 0 0 0 13 34 0 48 0 37 85 3 0 0 0 0 0
233 542 364 230 244 310 311 247 180 187 27 171 275 5 16 8 0 0 0 0 0 0 0 0 0 0 14 44 59 49 175 145 337 292 76 46 13 0 33 44 2 2
463 628 536 441 342 410 426 314 266 225 351 393 482 445 339 104 62 69 14 0 0 0 2 0 0 0 0 0 10 282 318 356 312 334 368 348 324 176 68 193 0 0
604 604 650 594 540 504 446 411 314 450 499 521 719 720 486 370 155 105 60 87 8 0 1 4 6 24 0 0 0 189 426 330 308 320 353 331 193 2 0 25 297 158
594 504 559 604 605 621 601 441 330 625 454 513 571 646 505 434 42 128 271 99 32 20 31 44 26 80 0 0 0 0 347 517 375 311 289 326 242 0 0 0 0 15
448 440 499 517 461 402 346 370 487 717 611 680 727 681 537 473 296 211 187 257 147 82 41 18 12 14 0 0 0 0 193 416 498 498 456 452 420 178 0 0 0 0
304 89 380 365 373 93 263 533 769 857 849 763 890 817 711 610 486 296 256 445 474 305 130 86 54 0 0 0 0 0 144 335 424 482 463 435 413 366 113 0 0 0
222 86 335 299 15 100 22 474 472 788 877 768 881 893 810 702 576 527 433 253 517 613 560 513 486 302 259 241 222 338 312 151 4 0 0 338 370 338 141 0 0 0
0 0 102 0 298 488 471 453 482 771 795 868 912 854 762 636 556 534 522 456 453 645 762 785 721 677 616 549 450 360 0 0 0 0 0 0 0 0 0 0 0 0
1 0 0 0 0 0 0 416 415 582 702 784 756 691 642 659 658 631 606 555 532 538 680 820 927 888 802 672 535 360 0 0 0 145 0 0 0 0 0 0 0 0
0 0 0 0 0 0 0 0 0 349 614 702 684 694 728 704 659 592 553 578 577 524 502 657 822 905 891 827 716 574 532 491 457 426 464 342 6 0 0 0 0 0
0 0 0 0 0 0 0 0 0 0 0 355 525 565 667 630 575 456 435 444 458 431 345 400 650 825 872 848 774 676 587 522 461 381 282 439 298 0 0 0 0 3
0 0 0 0 0 0 0 0 0 0 0 0 0 0 0 358 405 430 423 370 363 370 363 424 580 752 800 758 698 689 665 622 493 405 295 437 347 0 0 0 0 0
0 0 0 0 0 0 0 0 0 0 0 0 0 0 0 0 9 419 427 392 360 309 264 345 464 638 744 705 659 646 637 558 401 400 375 468 365 0 0 0 0 0

ECMWFNIL_con_mucape_048.txt.gz
CAPE
283 282 269 0 0 0 143 138 0 0 0 0 0 0 0 0 0 0 0 0 0 0 0 0 0 0 0 0 0 0 0 0 0 0 0 0 0 0 0 0 0 0
362 314 164 0 42 140 83 4 0 0 0 0 0 0 0 0 0 0 0 0 0 0 0 0 0 0 0 0 0 0 0 0 0 0 0 0 0 0 0 0 0 0
273 229 112 0 0 0 87 194 213 62 0 0 0 0 0 0 0 0 0 0 0 0 0 0 0 0 0 0 0 0 0 0 0 0 0 0 0 0 0 0 0 0
250 214 93 2 0 0 141 270 227 176 0 0 0 0 0 0 0 0 0 0 0 0 0 0 0 0 0 0 0 0 0 0 0 0 0 0 0 0 0 0 0 0
282 272 80 0 0 0 0 272 210 184 28 0 0 0 0 0 0 0 0 0 0 0 0 0 0 0 0 0 0 0 0 0 0 0 0 0 0 0 0 0 0 0
379 93 0 0 0 0 0 107 160 175 15 0 0 0 0 0 0 0 0 0 0 0 0 0 0 0 0 0 0 0 0 0 0 0 0 0 0 0 0 0 0 0
172 0 0 0 0 0 0 115 152 134 5 0 0 0 0 0 0 0 0 0 0 0 0 0 0 0 0 0 0 0 0 0 0 0 0 0 0 0 0 0 0 0
0 0 0 6 128 0 4 146 116 99 0 0 0 0 0 0 0 0 0 0 0 0 0 0 0 0 0 0 0 0 0 0 0 0 0 0 0 0 0 0 0 0
0 0 0 0 0 0 0 0 0 0 0 0 0 0 0 0 0 0 0 0 0 0 0 0 0 0 0 0 0 0 0 0 0 0 0 0 0 0 0 0 0 0
36 36 33 12 4 0 0 0 0 0 0 0 0 3 0 0 0 0 0 0 0 0 0 0 0 0 0 0 0 0 0 0 0 0 0 0 0 0 0 0 0 0
25 38 25 4 0 0 0 0 1 0 0 0 0 5 0 0 0 0 0 0 0 0 0 0 0 0 0 0 0 0 0 0 0 0 0 0 0 0 0 0 0 0
0 24 53 91 28 0 0 0 0 20 53 3 4 7 0 0 0 0 0 0 0 0 0 0 0 0 0 0 0 0 0 0 0 0 0 0 0 0 0 0 0 0
44 56 52 104 48 11 0 0 0 103 66 32 1 5 0 0 0 0 0 0 0 0 0 0 0 0 0 0 0 0 0 0 0 0 0 0 0 0 0 0 0 0
202 144 154 46 19 0 0 0 67 168 88 45 121 9 1 0 0 0 0 0 0 0 0 0 0 0 0 0 0 0 0 0 0 0 0 0 0 0 0 0 0 0
290 170 110 66 11 0 187 94 202 250 159 66 92 207 0 0 0 0 0 0 0 0 0 0 0 0 0 0 0 0 0 0 0 0 0 0 0 0 0 0 0 0
175 206 132 0 0 76 0 261 294 283 198 96 164 270 196 0 0 0 0 0 0 0 0 0 0 0 0 0 0 0 0 0 0 0 0 155 0 0 0 0 0 0
278 326 240 0 0 0 0 207 297 284 312 434 341 246 168 0 6 4 0 1 1 3 6 0 0 0 0 0 0 0 0 203 314 0 0 310 341 355 335 37 0 0
480 549 445 474 337 35 132 284 299 325 336 397 403 452 424 335 0 6 16 15 23 34 33 15 0 0 0 0 0 0 0 177 383 399 410 409 398 391 394 125 0 0
425 398 429 487 520 483 454 442 375 351 338 433 438 563 547 490 452 413 104 23 166 18 0 0 0 0 0 0 0 0 0 0 0 31 282 21 22 258 370 414 384 22
157 212 199 177 183 178 252 346 444 447 395 426 466 506 520 603 571 594 576 557 449 327 201 0 0 0 0 0 0 0 0 0 368 414 446 493 531 548 544 542 530 466
0 0 0 0 90 107 94 25 0 154 210 185 0 221 279 343 500 499 504 494 503 496 469 459 79 0 0 0 112 254 246 0 0 0 0 215 430 428 414 0 0 364
10 11 13 1 0 1 6 5 101 146 173 0 0 0 272 320 292 403 288 383 446 432 434 509 600 587 612 576 527 485 409 290 263 0 0 0 0 0 163 306 317 227
19 29 12 1 4 2 11 3 0 0 0 250 156 339 365 409 237 231 404 451 424 452 504 523 582 627 735 823 835 753 608 502 419 204 0 0 0 0 0 256 145 0
2 0 0 0 0 0 0 0 0 189 32 0 35 40 0 0 0 0 0 0 0 69 351 335 435 437 504 721 907 885 810 732 665 577 466 352 247 0 134 285 198 0
0 0 0 0 0 0 0 0 0 0 0 0 0 0 0 0 0 0 0 0 0 0 0 0 0 45 190 461 716 852 850 811 732 636 552 479 406 362 322 267 220 0
0 0 0 0 0 0 0 0 0 0 0 0 0 0 0 0 0 0 0 0 0 0 0 0 0 0 293 367 561 732 795 765 715 639 586 537 479 397 307 256 78 0

ECMWFNIL_con_mucape_054.txt.gz
CAPE
644 547 437 332 0 0 0 0 0 0 0 0 0 0 0 0 0 0 0 0 0 0 0 0 0 0 0 0 0 0 0 0 0 0 0 198 186 86 0 0 137 179
642 561 413 351 42 56 87 0 0 0 0 0 0 0 0 0 0 0 0 0 0 0 0 0 0 0 0 0 0 0 0 0 0 0 0 0 0 0 0 0 0 0
563 482 390 297 123 131 68 0 0 0 0 0 0 0 0 0 0 0 0 0 0 0 0 0 0 0 0 0 0 0 0 0 0 0 0 0 0 0 0 0 0 0
504 478 468 186 61 58 36 0 0 0 0 0 0 0 0 0 0 0 0 0 0 0 0 0 0 0 0 0 0 0 0 0 0 0 0 0 0 0 0 0 0 0
600 602 434 28 47 0 0 0 0 0 0 0 0 0 0 0 0 0 0 0 0 0 0 0 0 0 0 0 0 0 0 0 0 0 0 0 0 0 0 0 0 0
704 629 233 190 196 0 0 0 0 0 0 0 0 0 0 0 0 0 0 0 0 0 0 0 0 0 0 0 0 0 0 0 0 0 0 0 0 0 0 0 0 0
730 416 243 300 21 0 0 0 0 0 0 0 0 0 0 0 0 0 0 0 0 0 0 0 0 0 0 0 0 0 0 0 0 0 0 0 0 0 0 0 0 0
615 222 362 278 0 0 0 0 0 0 0 0 0 0 0 0 0 0 0 0 0 0 0 0 0 0 0 0 0 0 0 0 0 0 0 0 0 0 0 0 0 0
364 420 337 173 0 0 0 0 0 0 0 0 0 0 0 0 0 0 0 0 0 0 0 0 0 0 0 0 0 0 0 0 0 0 0 0 0 0 0 0 0 0
519 443 276 0 0 0 0 0 0 0 0 0 0 0 0 0 0 0 0 0 0 0 0 0 0 0 0 0 0 0 0 0 0 0 0 0 0 0 0 0 0 0
465 334 241 0 0 0 0 0 0 0 0 0 0 0 0 0 0 0 0 0 0 0 0 0 0 0 0 0 0 0 0 0 0 0 0 0 0 0 0 0 0 0
387 259 85 0 0 0 0 0 0 0 0 0 0 0 0 0 0 0 0 0 0 0 0 0 0 0 0 0 0 0 0 0 0 0 0 0 0 0 0 0 0 0
333 74 0 0 0 0 0 0 0 0 0 0 0 0 0 0 0 0 0 0 0 0 0 0 0 0 0 0 0 0 0 0 0 0 0 0 0 0 0 0 0 0
0 0 0 0 0 0 0 0 0 0 0 0 0 0 0 0 0 0 0 0 0 0 0 0 0 0 0 0 0 0 0 0 0 0 0 0 0 0 0 0 0 0
0 0 0 0 0 0 1 0 0 0 0 0 0 0 0 0 0 0 0 0 0 0 0 0 0 0 0 0 0 0 0 0 0 0 0 0 0 0 0 0 0 0
8 4 6 4 10 0 1 0 0 0 0 0 0 0 0 0 0 0 0 0 0 0 0 0 0 0 0 0 0 0 0 0 0 0 0 0 0 0 0 0 0 0
13 6 12 5 0 0 0 0 0 0 0 0 0 0 0 0 0 0 0 0 0 0 0 0 0 0 0 0 0 0 0 0 0 0 0 0 0 0 0 0 0 0
0 0 5 0 0 0 0 0 17 9 4 9 10 0 0 0 0 0 0 0 0 0 0 0 0 0 0 0 0 0 0 0 0 0 0 0 0 0 0 0 0 0
0 38 13 0 0 0 10 25 36 40 32 21 8 0 0 0 0 0 0 0 0 0 0 0 0 0 0 0 0 0 0 0 0 0 0 0 0 0 0 0 0 0
9 4 4 0 4 9 2 18 25 38 32 0 70 179 148 0 0 0 0 0 0 0 0 0 0 0 0 0 0 0 0 0 0 0 0 0 0 0 0 0 0 0
2 2 6 9 12 9 13 12 8 27 4 0 32 221 244 231 229 222 199 175 151 155 144 27 6 0 0 0 0 0 0 0 0 0 0 0 0 0 0 0 0 0
30 7 16 22 24 19 5 0 10 2 52 0 0 135 147 242 278 257 268 250 222 189 172 156 138 143 161 134 130 0 0 0 0 0 0 0 0 0 0 0 83 182
2 0 0 2 4 4 29 20 34 46 36 2 1 1 2 3 0 0 163 155 223 221 229 211 190 154 151 155 157 194 213 220 28 293 96 114 196 195 180 157 145 135
6 10 3 8 3 18 5 0 22 31 98 84 70 37 0 0 0 0 3 0 0 0 0 0 0 0 0 0 0 0 0 0 0 44 277 371 461 472 407 341 315 307
10 7 2 1 3 0 9 21 18 13 13 0 73 0 5 18 0 11 3 2 0 0 0 58 97 107 45 0 0 0 0 0 0 0 0 120 300 452 553 582 586 556
5 3 2 0 1 3 5 9 5 7 10 8 5 2 1 0 3 19 9 4 0 0 0 0 1 0 0 0 0 0 0 0 0 0 0 0 0 51 322 482 555 575

ECMWFNIL_con_mucape_057.txt.gz
CAPE
1103 1013 820 837 752 631 482 517 593 638 555 430 312 334 426 287 184 440 392 380 500 463 288 225 114 122 40 94 168 171 283 331 251 270 498 674 908 967 1015 857 1056 1097
930 811 604 697 495 294 332 455 451 538 475 499 508 289 189 130 124 283 321 334 190 116 10 0 0 1 0 0 8 105 62 140 86 143 194 236 258 363 635 710 907 988
806 678 509 525 375 258 210 248 397 541 473 244 152 204 109 93 106 161 291 252 107 1 0 0 0 0 0 0 0 0 1 1 0 0 1 0 6 105 109 302 624 840
710 637 496 533 438 275 154 131 160 170 135 64 97 71 37 3 78 78 95 34 76 0 0 0 0 0 0 0 0 0 0 0 0 0 0 0 0 3 13 162 339 474
637 615 522 385 385 251 184 227 178 144 168 160 38 2 0 2 42 58 30 10 7 0 0 0 0 0 0 0 0 0 0 0 0 0 0 0 0 0 0 82 378 606
549 537 481 331 302 214 241 372 228 169 98 77 120 3 6 19 38 16 1 0 0 0 0 0 0 0 0 0 0 0 0 0 0 1 0 0 0 0 0 80 329 512
467 468 389 352 259 265 369 386 226 115 129 131 17 16 0 0 2 0 0 0 0 0 0 0 0 0 0 0 0 0 0 0 0 0 0 0 0 0 0 7 93 277
505 449 222 267 303 247 346 197 139 74 35 13 67 3 0 0 0 0 0 0 0 0 0 0 0 0 0 0 0 0 0 0 0 0 0 0 1 0 0 0 22 67
546 442 194 234 246 212 244 150 132 31 1 38 45 0 0 0 0 0 0 0 0 0 0 0 0 0 0 0 0 0 0 0 0 0 0 0 0 0 0 0 0 2
622 463 245 228 232 212 270 197 84 13 1 28 9 0 0 0 0 0 0 0 0 0 0 0 0 0 0 0 0 0 0 0 0 0 0 0 0 0 0 0 0 0
725 451 252 285 224 226 281 144 65 9 0 0 0 0 0 0 0 0 0 0 0 0 0 0 0 0 0 0 12 12 0 0 0 0 0 0 0 0 6 0 4 3
646 393 304 291 252 243 144 82 26 5 0 0 0 0 0 0 0 0 0 0 0 0 0 0 0 0 0 0 0 6 9 8 1 0 0 0 0 0 0 0 7 1
553 374 382 298 123 29 1 0 0 0 0 0 0 0 0 0 0 0 0 0 0 0 0 0 0 0 0 14 8 12 14 5 9 4 0 2 1 0 0 0 0 0
489 467 412 245 76 0 0 0 0 0 0 0 0 0 0 0 0 0 0 0 1 5 9 10 6 0 1 5 7 32 44 57 53 51 2 7 13 0 0 0 0 3
426 425 47 0 0 0 3 2 0 0 0 0 0 0 0 0 1 0 0 0 0 1 0 14 32 64 41 42 32 38 54 90 71 10 26 18 53 26 21 10 1 12
6 87 51 0 0 0 0 3 12 34 39 2 0 0 0 0 0 0 0 0 0 0 6 42 67 138 14 0 0 35 83 28 82 123 76 75 105 175 316 117 84 186
0 0 40 93 0 0 0 0 0 0 0 4 0 0 0 0 0 0 0 2 2 10 41 72 124 3 0 0 0 0 2 134 111 223 206 203 219 219 169 439 609 295
47 14 19 14 2 3 2 0 4 10 11 9 6 0 0 0 0 0 0 0 0 0 14 50 26 0 0 0 0 0 0 16 82 158 316 300 312 387 453 583 701 837
58 22 9 3 8 9 4 0 0 0 0 3 9 3 12 0 1 0 0 1 19 22 45 23 0 0 0 0 0 0 0 0 8 88 80 209 326 383 454 602 736 728
5 6 2 0 2 6 0 0 0 2 4 17 32 34 33 36 0 0 0 0 10 59 22 0 2 0 0 0 0 0 0 0 8 81 140 176 196 249 399 490 629 632
1 0 10 3 1 10 8 2 1 5 28 46 45 48 48 58 52 7 0 0 0 0 0 0 1 0 0 0 0 0 0 0 0 11 91 176 217 196 173 212 252 252
2 4 7 2 5 5 9 4 11 24 35 42 46 42 38 42 42 44 44 40 0 0 0 0 0 0 0 0 0 0 0 0 0 19 151 264 313 296 243 277 241 292
14 11 12 1 2 2 1 13 18 26 22 18 51 55 24 6 82 81 80 76 22 0 0 0 0 0 0 0 0 0 0 0 0 1 54 190 397 385 287 257 272 229
19 23 10 7 4 2 0 1 3 1 7 0 0 0 0 0 0 9 27 86 97 18 11 66 74 82 66 65 0 0 0 0 0 0 0 4 169 292 240 236 227 342
0 2 1 4 8 7 0 1 0 0 0 0 2 14 6 1 0 0 0 0 1 0 3 14 4 10 30 45 30 0 0 0 0 0 0 0 0 15 84 175 221 70
3 3 4 7 7 1 6 3 1 0 1 2 4 0 12 13 0 0 0 0 0 1 0 0 0 0 0 1 3 10 14 0 0 0 0 0 0 0 0 1 12 113

ECMWFNIL_con_mucape_060.txt.gz
CAPE
1232 1306 1069 1019 787 767 805 828 662 637 570 331 306 347 408 595 665 653 575 508 441 418 375 479 506 612 661 758 843 239 407 1291 1274 1309 1373 1397 1246 1350 1308 1219 1272 1206
962 845 1247 995 826 824 836 864 725 486 456 390 448 421 445 642 687 583 601 548 346 248 202 420 402 415 372 281 585 400 353 861 780 842 1313 1499 1349 1466 1515 1396 1596 1604
730 815 1313 1078 939 1057 878 791 693 521 447 469 494 512 425 665 679 552 542 410 236 103 106 210 310 232 187 232 370 219 281 383 329 376 297 532 855 1150 1248 1440 1555 1630
504 772 1455 1531 1116 1056 912 870 596 553 523 631 531 376 395 617 648 624 582 307 188 63 28 90 168 137 71 87 189 157 142 99 82 146 182 235 360 591 925 1343 1436 1414
804 1213 1447 1600 1038 885 799 765 724 679 676 531 628 456 286 448 558 482 420 288 136 32 4 13 89 184 75 22 55 75 8 0 61 34 47 124 270 640 870 1132 1357 1557
893 1167 1421 1378 1108 976 758 688 596 659 752 795 630 340 362 346 362 353 356 280 135 28 0 0 15 92 27 4 0 0 0 0 0 0 0 6 56 234 515 1156 1318 1379
800 1050 1345 1020 1032 888 671 686 592 573 720 704 506 427 382 369 374 362 254 240 92 2 0 0 4 95 2 0 0 0 0 0 0 0 0 0 2 157 222 549 348 520
1137 1308 1393 1088 1213 875 743 674 650 626 748 606 483 438 347 266 245 236 205 179 74 0 0 0 0 38 4 0 0 0 0 0 0 0 0 0 0 3 110 417 279 134
1389 1456 1367 1382 1264 948 734 588 606 570 551 440 342 238 208 210 182 144 86 96 18 0 0 0 0 8 5 0 0 0 0 0 0 0 0 0 0 0 1 99 196 264
1413 1336 1420 1408 1271 841 556 557 564 532 457 392 161 128 162 138 85 34 34 37 1 0 0 0 0 0 1 0 0 0 0 0 0 0 0 0 0 0 0 3 55 118
1272 1281 1429 1263 1203 871 664 616 641 528 485 353 189 108 97 76 21 24 30 7 0 0 0 0 0 0 0 0 0 0 0 0 0 0 0 0 0 0 0 0 2 16
558 962 1548 1459 1238 912 915 718 682 551 515 405 174 77 42 7 10 3 0 0 0 0 0 0 0 0 0 0 0 0 0 0 0 0 0 0 0 0 0 7 9 0
324 394 930 1207 1123 973 899 680 591 566 466 352 236 88 25 6 0 0 0 0 0 0 0 0 0 0 0 0 0 0 0 0 0 0 0 0 0 0 0 0 0 9
295 416 444 902 1241 941 707 580 561 492 430 364 232 78 2 0 0 0 0 0 0 0 0 0 0 0 0 0 0 0 0 0 1 3 0 0 0 0 1 19 22 6
342 415 196 158 405 641 545 486 417 374 289 245 197 106 27 0 0 0 0 0 0 4 0 0 0 0 0 0 2 0 1 2 1 0 0 0 0 2 4 20 30 91
165 168 114 80 234 328 316 299 283 239 154 84 35 13 16 19 17 0 0 0 0 1 5 6 20 259 0 0 4 115 4 2 19 31 3 2 4 12 33 20 30 82
145 265 94 85 55 27 63 92 157 356 309 202 107 84 74 5 16 8 32 0 0 0 6 185 0 0 0 0 0 0 430 129 35 17 16 6 10 41 78 80 80 46
55 155 248 171 13 32 0 0 0 21 173 322 211 118 103 110 61 30 32 30 13 73 248 2 0 0 0 0 0 0 0 109 170 117 125 52 71 103 118 146 135 123
5 1 7 24 21 0 2 2 5 22 64 110 60 12 32 36 18 22 34 127 79 4 0 0 0 0 0 0 0 0 0 41 85 221 206 121 125 162 135 119 197 620
1 5 13 0 1 1 9 1 0 0 0 4 5 0 1 0 0 0 22 71 15 0 0 0 0 0 0 0 0 0 0 0 214 379 416 328 361 442 576 578 647 792
0 0 0 1 0 0 1 5 0 0 0 1 2 2 2 4 1 1 25 33 1 0 0 0 0 0 0 0 0 0 0 4 797 934 647 604 647 787 943 848 920 942
0 0 0 1 0 0 3 3 2 2 3 3 2 1 3 6 15 30 46 50 31 0 0 0 0 0 0 0 0 0 0 264 931 922 1034 1001 1133 1193 1081 969 1024 1044
0 1 0 2 2 0 0 1 4 0 0 8 24 31 28 29 34 38 50 59 69 70 74 62 0 0 0 0 0 0 0 359 484 678 816 1038 1128 1328 1198 1062 1161 1126
0 0 4 0 3 3 2 4 5 3 8 7 13 16 20 26 30 40 43 50 65 85 80 78 66 26 0 0 0 0 0 3 18 155 416 536 777 851 643 572 608 318
6 3 0 0 1 1 0 0 1 0 1 0 0 2 0 12 16 26 36 40 28 26 43 0 0 24 0 0 0 0 0 0 0 0 0 40 7 49 154 268 557 424
1 0 0 0 2 9 4 4 9 9 7 2 2 2 1 2 0 1 0 0 1 5 2 0 0 0 0 0 1 1 0 0 0 0 0 0 0 0 0 0 12 166

ECMWFNIL_con_mucape_063.txt.gz
CAPE
1061 1276 813 597 767 708 620 628 574 604 644 620 500 565 498 488 484 547 484 498 507 516 543 570 595 572 474 476 569 176 1065 1326 1334 1477 1575 1154 1214 1317 1266 1170 1092 859
831 734 748 796 989 784 783 805 625 598 700 504 430 457 437 514 589 512 549 543 456 426 401 561 660 586 478 434 489 328 739 1356 1396 937 1476 1471 1442 1488 1307 959 1141 1107
898 703 943 1338 1016 895 810 768 726 609 641 415 530 510 574 666 734 552 540 473 303 271 262 341 454 366 260 331 399 259 323 354 369 653 922 1299 1318 1499 1374 1324 926 1336
1129 1087 1171 1390 1239 835 777 775 646 582 565 611 588 622 602 679 808 544 470 258 198 131 164 345 333 214 114 182 235 215 232 235 291 378 515 597 970 1231 1444 1385 1268 926
1422 1382 1543 1611 1192 731 814 635 608 558 597 626 675 586 568 629 650 492 256 253 170 41 69 187 226 201 134 114 134 169 157 138 164 186 201 316 357 881 1268 1500 1136 1164
1575 1314 1451 1330 849 629 566 539 505 726 550 662 695 391 370 474 507 443 294 240 111 9 12 78 264 177 73 100 110 74 28 46 75 75 94 172 243 583 968 1067 1412 1297
1334 1298 1476 1166 627 389 599 492 504 482 519 561 606 501 354 384 437 403 333 231 72 0 0 28 153 104 79 76 53 6 13 10 1 2 12 49 112 156 261 1041 1053 1032
1264 1529 1331 979 563 552 468 466 457 481 555 546 558 593 458 373 469 290 254 178 36 0 0 3 134 85 50 16 4 5 12 5 2 0 0 29 113 62 88 65 314 994
1663 1523 1352 796 663 532 499 522 498 610 626 578 581 521 452 464 385 347 256 182 23 0 0 0 88 33 10 15 16 3 0 0 0 1 8 37 70 68 70 80 66 196
1438 1511 1242 938 666 462 503 698 661 639 565 483 482 426 395 382 322 284 202 138 14 0 0 0 46 11 0 0 0 0 0 0 0 5 4 6 20 41 70 102 96 156
1482 1770 1391 800 653 553 635 695 720 534 475 328 406 301 340 327 220 97 89 92 12 0 0 0 28 6 0 0 0 0 0 0 0 0 0 0 0 2 42 110 84 107
1178 1102 856 934 584 702 621 629 651 337 420 298 110 123 272 223 32 48 27 37 0 0 0 0 0 0 0 0 0 0 0 0 0 0 0 0 0 0 5 28 63 20
904 1273 999 950 769 619 660 664 674 552 389 316 98 110 140 53 34 62 27 9 0 0 0 0 0 0 0 0 0 0 0 0 0 0 0 0 0 0 3 6 10 10
1459 1498 1580 848 677 573 611 611 572 484 451 347 176 35 1 8 2 7 20 0 0 0 0 0 0 0 0 0 0 0 0 0 0 0 0 0 0 0 3 7 12 16
1105 1364 1497 1168 679 367 229 376 383 494 544 394 185 11 0 0 0 0 0 0 0 0 0 0 0 109 0 0 13 0 0 0 2 0 4 13 17 18 24 29 11 4
864 965 1204 1279 840 584 486 474 486 532 534 403 161 7 2 0 0 0 0 63 0 0 0 376 28 0 0 0 0 0 26 1 3 21 18 19 15 28 21 49 76 97
706 676 813 777 776 669 604 429 448 247 308 140 46 23 50 40 46 0 0 13 11 146 183 0 0 0 0 0 0 0 0 246 31 66 32 44 56 79 65 60 85 85
366 422 421 574 609 546 465 442 287 160 104 111 143 90 39 34 61 177 231 351 148 21 1 0 0 0 0 0 0 0 0 203 118 43 28 49 46 43 73 70 56 44
103 167 156 213 90 57 91 175 221 205 187 194 219 314 372 286 207 307 172 4 0 0 0 0 0 0 0 0 0 0 0 8 48 158 129 58 61 72 69 83 124 131
68 15 8 0 0 0 0 2 81 62 0 0 25 10 17 44 194 210 13 0 0 0 0 0 0 0 0 0 0 0 0 1 76 179 234 164 94 83 93 117 162 189
2 52 63 16 0 0 0 0 0 3 3 10 4 1 1 0 3 2 0 0 0 0 0 0 0 0 0 0 0 0 0 0 403 385 222 210 172 174 292 594 761 877
8 5 5 10 7 0 0 0 0 0 4 1 0 0 0 2 0 0 0 0 0 0 0 0 0 0 0 0 12 0 79 54 507 418 199 234 508 708 833 873 734 607
4 2 5 4 4 3 0 0 0 0 0 0 0 0 0 1 3 3 1 0 0 0 0 0 0 0 0 0 0 0 0 225 342 208 195 737 891 898 1095 1046 1055 1079
7 7 2 2 0 1 1 0 0 1 0 0 0 0 4 0 0 0 0 0 1 0 0 0 0 0 0 0 0 0 55 94 107 109 421 356 651 969 891 646 650 410
3 2 2 2 1 1 1 0 1 1 0 0 0 0 13 13 9 3 6 13 19 26 29 0 1 0 0 0 12 72 92 64 47 24 88 142 84 75 64 54 396 246
5 4 0 0 2 2 3 1 2 2 1 3 3 2 0 3 2 2 4 3 6 28 47 54 62 56 55 72 95 96 88 78 74 62 16 0 0 0 0 0 0 78

ECMWFNIL_con_mucape_069.txt.gz
CAPE
808 874 770 598 474 344 112 310 450 401 417 384 123 140 87 126 112 99 108 217 196 160 164 270 400 444 561 619 661 805 903 929 911 940 912 912 879 783 679 714 697 722
945 907 790 594 480 290 386 479 294 121 74 355 78 103 117 134 136 136 244 336 370 293 189 266 289 352 446 557 561 625 687 747 946 904 866 966 930 874 787 741 683 661
1114 956 707 592 461 386 510 423 157 161 210 73 32 388 100 106 214 239 243 242 134 172 294 132 120 202 269 350 480 448 495 563 683 822 954 936 920 824 834 783 637 722
1153 1036 696 585 469 409 582 272 163 466 375 108 124 142 155 262 233 201 203 323 66 313 305 133 135 132 126 337 413 373 361 455 507 648 836 819 886 862 1020 846 795 712
1073 968 667 620 526 591 657 411 279 470 345 283 324 177 281 274 266 215 235 195 5 62 131 284 279 56 37 69 246 358 369 372 542 629 659 802 793 907 1077 899 768 645
1014 841 671 690 644 716 612 430 277 386 352 365 342 283 273 250 206 205 194 22 0 11 65 70 126 32 14 39 14 27 150 145 368 559 626 618 744 1007 1032 967 852 736
979 719 698 743 718 607 463 313 330 428 391 407 346 302 266 204 223 178 0 0 0 0 11 40 4 8 47 10 10 42 15 3 51 369 371 492 588 768 854 786 862 688
905 674 768 835 778 516 437 468 468 477 393 408 358 285 239 246 72 175 1 0 0 0 0 44 1 30 20 3 14 22 38 18 6 20 21 353 410 499 572 672 868 876
921 680 846 863 699 519 388 506 499 418 382 360 345 288 291 301 100 87 0 0 0 0 0 18 12 13 0 0 0 0 0 0 0 0 0 225 327 378 498 529 709 820
843 832 952 769 607 533 498 573 491 402 368 332 300 287 245 247 168 34 1 0 0 0 0 17 16 0 0 0 0 0 0 0 50 100 7 1 286 434 483 526 619 698
788 983 888 658 608 456 468 529 501 444 390 340 269 207 213 230 179 40 12 0 0 0 0 0 0 0 0 0 0 0 0 8 23 23 0 0 83 360 449 468 551 730
712 856 724 545 518 412 461 414 430 434 364 267 198 167 296 217 94 64 12 0 0 0 0 0 0 0 0 0 0 0 0 0 0 0 0 0 0 1 263 440 452 438
628 610 533 388 300 391 408 400 370 393 412 411 323 266 228 190 157 85 1 0 0 0 0 0 0 0 0 0 0 0 0 0 0 0 0 32 0 0 0 0 4 1
428 755 387 265 297 376 414 394 403 446 389 355 326 235 188 145 127 85 0 0 0 0 0 0 0 0 0 0 0 0 0 0 0 0 58 39 24 0 0 0 0 0
376 559 291 294 240 405 439 359 393 406 354 301 270 215 164 129 0 0 0 0 0 0 0 0 0 0 0 0 0 0 0 0 0 0 2 16 17 0 0 0 0 0
604 391 278 173 201 399 430 401 356 312 302 273 225 141 58 54 0 0 0 0 0 0 0 0 0 0 0 0 0 0 0 0 0 0 0 2 8 6 0 35 0 0
564 230 142 120 272 320 328 317 249 255 236 210 56 3 0 0 0 0 0 0 0 0 0 0 0 0 0 0 0 0 0 0 0 0 0 0 0 0 0 0 0 0
464 254 267 137 201 275 216 227 169 94 31 1 0 0 0 0 0 0 0 0 0 0 0 0 0 0 0 0 0 0 0 0 0 0 0 0 0 0 0 0 0 0
415 348 237 176 142 160 185 162 70 18 3 0 0 0 0 0 0 0 0 0 0 0 0 0 0 0 0 0 0 0 0 0 0 0 0 0 0 0 0 41 71 0
344 238 152 254 216 170 146 116 91 44 0 0 0 0 0 0 0 0 0 0 0 0 0 0 0 0 0 0 0 0 39 81 3 0 0 0 0 1 5 7 1 0
208 63 165 271 215 171 208 198 111 28 0 0 0 0 0 0 0 0 0 0 0 0 0 0 0 0 0 0 0 0 0 0 5 0 0 0 0 10 52 81 7 8
100 35 51 174 142 141 128 208 117 27 0 0 0 0 0 0 0 0 0 0 0 0 0 0 0 0 0 0 0 2 14 11 4 0 0 1 10 2 0 4 8 22
30 8 24 57 51 34 99 115 87 50 15 0 0 0 0 0 0 0 0 0 0 0 0 0 0 0 0 0 0 0 0 1 10 13 0 2 51 53 53 71 91 109
92 59 49 48 36 36 45 32 18 30 1 0 0 0 0 0 0 0 0 0 0 0 0 0 0 0 0 0 0 0 0 0 16 0 0 0 0 0 20 66 114 142
8 6 36 69 59 36 48 58 22 12 0 0 0 3 0 0 0 0 0 0 0 0 0 0 0 0 0 0 0 0 0 0 0 0 0 0 0 0 0 0 0 0
19 46 9 4 5 0 14 34 17 3 1 0 0 0 0 0 0 0 0 0 0 0 2 1 3 5 5 6 3 1 4 7 7 1 0 0 0 0 0 0 0 0

ECMWFNIL_con_mucape_072.txt.gz
CAPE
884 813 772 767 763 662 476 378 148 413 421 468 526 529 545 606 570 619 600 620 620 517 473 629 694 814 908 973 976 964 937 903 802 606 542 511 460 462 474 504 461 56
950 886 759 742 744 592 365 177 360 405 463 544 417 466 508 457 513 587 566 533 500 504 490 620 656 744 856 988 1045 1019 990 927 812 703 671 626 502 528 611 570 460 495
981 887 770 757 714 577 359 168 387 458 497 524 464 435 438 406 412 456 427 430 423 430 438 485 571 628 726 888 1001 1037 1015 934 866 778 737 748 586 524 600 623 585 591
925 939 948 856 676 563 371 331 474 567 626 538 471 447 409 343 343 366 399 402 392 392 372 420 497 633 696 745 829 962 1006 974 916 863 851 775 768 679 613 598 593 617
1033 954 846 798 608 533 396 432 401 486 505 390 466 427 389 362 327 399 427 401 397 384 370 328 399 488 561 561 610 697 800 836 843 877 841 802 813 776 706 612 563 535
1139 997 963 828 637 473 502 466 453 306 359 410 388 395 395 348 383 412 391 384 408 399 367 317 318 325 365 441 493 510 608 688 751 834 860 776 729 776 780 688 548 592
1120 1118 1053 830 661 452 542 568 469 297 406 419 425 408 413 380 405 392 368 394 408 392 362 320 305 263 384 432 404 387 467 558 573 720 745 689 653 801 930 788 617 605
1077 1093 1020 836 669 583 619 529 418 386 259 475 466 403 384 402 364 354 353 377 368 348 323 319 293 202 225 272 298 341 397 503 641 653 629 709 720 863 1000 868 621 459
976 1004 947 688 550 682 653 509 390 411 341 350 320 381 443 380 310 317 280 264 266 268 257 256 257 0 178 26 190 278 364 398 535 643 629 669 795 909 982 868 730 553
647 920 938 642 701 671 716 553 384 294 323 324 353 397 348 236 257 236 164 170 225 198 161 232 42 0 0 0 0 0 0 174 331 389 447 524 658 799 871 821 796 581
674 923 767 584 757 652 644 507 402 377 395 377 381 362 272 235 254 197 96 58 152 193 158 124 28 0 0 0 0 0 0 0 0 144 301 395 446 572 650 718 817 694
660 716 752 578 590 603 486 429 376 291 404 409 408 340 259 276 222 133 3 5 94 162 118 12 0 0 0 0 0 0 0 0 0 0 286 357 397 492 575 625 780 734
642 587 690 399 655 470 414 351 323 361 425 387 316 356 308 258 214 68 12 1 46 98 35 0 0 0 0 0 0 0 0 0 0 0 17 283 395 521 568 581 670 683
588 548 696 435 578 373 322 350 358 386 391 299 257 293 316 259 174 93 52 0 0 94 38 0 0 0 0 0 0 0 0 0 0 0 0 0 286 463 463 439 516 422
470 470 625 424 518 408 268 320 331 291 377 286 264 283 274 172 194 109 52 0 0 57 89 0 0 0 0 0 0 0 0 0 0 0 0 0 141 307 207 79 25 149
424 501 636 460 495 414 296 334 188 105 307 164 188 243 226 123 149 88 56 0 0 36 89 0 0 0 0 0 0 0 0 0 0 0 66 67 76 127 199 172 0 0
439 516 564 431 504 306 280 238 103 7 115 154 207 228 187 193 171 101 73 0 0 44 108 0 0 0 0 0 0 0 0 0 0 51 132 140 0 0 0 0 0 0
327 485 555 501 391 266 194 132 112 115 138 266 212 210 187 172 157 94 46 0 0 26 82 0 0 0 0 0 0 0 0 0 0 0 53 81 98 0 0 0 0 0
243 358 496 426 331 167 191 111 128 98 0 194 220 181 197 139 130 81 36 0 0 0 0 0 0 0 0 0 0 0 0 0 0 0 0 0 84 123 0 0 0 0
21 244 338 328 242 208 192 181 49 33 55 247 212 142 188 128 86 75 21 0 0 0 0 0 0 0 0 0 0 0 0 0 0 0 0 0 0 20 0 0 0 0
197 328 329 273 185 222 215 147 8 33 86 238 153 57 38 44 58 62 11 0 0 0 0 0 0 0 0 0 0 0 0 0 0 0 0 0 8 8 38 9 10 0
102 181 106 82 37 164 116 70 20 62 75 33 13 0 0 0 12 14 0 0 0 0 0 0 0 0 0 0 0 0 0 0 0 0 0 20 6 0 32 51 62 48
20 61 77 66 90 67 28 8 27 48 39 24 28 16 0 0 0 13 2 6 4 0 0 0 0 0 0 0 0 1 1 8 7 1 1 0 0 0 0 0 0 13
49 81 101 101 62 22 28 24 5 36 34 20 0 0 0 0 0 7 10 14 8 2 0 0 0 0 0 0 0 11 14 14 0 0 0 0 0 0 0 0 0 25
23 49 82 93 46 44 50 56 28 30 40 33 14 10 0 0 0 0 12 12 6 3 0 0 0 0 0 0 0 0 12 31 15 0 3 0 0 0 0 44 50 57
1 0 14 54 105 47 45 47 32 25 28 22 1 0 13 5 0 0 1 3 2 0 0 0 0 0 0 0 0 0 5 24 37 44 38 0 0 0 0 13 0 0

ECMWFNIL_con_mucape_075.txt.gz
CAPE
942 908 655 810 834 756 764 762 676 522 474 502 552 512 480 486 490 486 536 604 702 784 847 999 985 830 752 704 652 619 588 585 575 526 498 514 571 602 527 448 465 457
962 884 741 740 772 804 822 628 569 492 445 541 512 482 490 533 494 566 603 694 736 795 831 792 772 808 762 729 700 627 594 601 588 594 581 557 582 596 591 574 533 448
1050 974 968 916 890 816 770 587 542 452 408 512 472 460 537 574 594 632 675 655 521 600 505 546 700 688 618 648 651 595 626 628 718 672 660 573 391 464 536 567 476 456
1050 1019 954 900 870 802 731 652 522 377 308 474 483 450 550 587 618 631 590 548 526 497 411 360 545 596 675 695 659 650 658 718 766 730 644 500 462 422 444 452 490 504
898 888 864 866 857 785 677 553 408 302 328 496 492 479 471 550 496 502 538 498 509 446 418 390 513 584 694 776 806 830 842 859 819 781 656 613 615 590 514 548 578 567
772 794 841 866 835 712 694 543 329 313 440 497 471 451 444 518 387 474 514 472 366 335 338 365 415 479 584 716 836 871 868 828 809 780 720 710 717 668 596 554 611 608
826 867 881 869 817 777 718 600 330 322 443 472 489 443 391 475 388 402 423 335 310 291 296 293 323 439 533 615 704 772 828 844 857 824 782 780 727 694 684 665 633 592
876 870 877 869 745 744 672 555 361 431 500 611 550 442 375 417 378 327 286 293 272 274 271 254 224 342 456 468 474 505 588 747 774 771 727 764 714 688 687 746 721 590
902 932 890 835 710 668 640 515 414 394 345 578 543 352 366 391 366 299 316 301 308 305 276 254 228 0 0 0 274 356 421 514 607 645 704 760 692 616 696 775 766 574
687 826 760 867 732 680 604 474 449 389 292 424 425 404 409 390 335 324 362 337 339 304 262 240 225 12 0 0 223 302 339 422 483 512 621 664 600 560 668 821 854 671
483 620 672 723 674 656 595 449 384 420 372 409 438 437 433 382 319 361 351 310 282 296 284 252 236 64 0 0 0 239 262 326 437 558 603 606 590 587 664 826 918 767
472 392 461 560 606 677 575 385 376 476 394 428 431 428 440 409 386 350 290 234 248 278 264 243 224 0 0 0 0 84 170 228 346 461 531 570 579 594 700 878 908 751
416 502 484 476 508 594 498 408 402 485 287 278 433 456 450 421 376 299 293 252 173 222 210 180 108 135 0 0 0 0 0 0 0 76 288 302 360 449 654 823 693 679
386 443 444 450 567 482 471 526 440 443 246 169 364 445 391 389 273 291 30 0 6 180 142 129 107 23 0 0 0 0 0 0 0 0 0 143 169 265 434 611 561 528
259 218 243 314 393 461 424 488 495 386 261 86 194 71 345 275 231 171 16 0 95 162 124 85 51 0 0 0 0 0 0 0 0 0 0 0 112 253 402 497 505 400
72 50 197 261 408 410 476 462 436 380 195 125 81 167 128 198 190 72 0 0 80 180 122 40 0 0 0 0 0 0 0 0 0 0 0 0 70 310 466 460 394 174
71 43 62 210 282 391 429 430 277 248 128 169 175 0 2 203 145 8 0 0 48 127 0 22 0 0 0 0 0 0 0 0 0 0 0 0 36 275 245 230 44 0
20 55 55 73 14 312 410 346 278 136 91 136 168 19 0 166 108 4 0 0 29 30 0 0 0 0 0 0 0 0 0 0 0 0 0 11 225 190 163 51 0 0
15 46 68 72 58 30 297 345 334 250 154 177 122 0 29 167 100 52 0 0 21 75 34 0 0 0 0 0 0 0 0 0 0 0 121 162 213 191 186 142 0 0
15 17 35 46 11 62 274 332 275 277 230 108 38 2 18 158 116 75 0 0 0 22 50 0 0 0 0 0 0 0 0 0 0 92 153 160 164 137 0 0 0 0
0 12 8 22 19 28 154 321 271 196 42 31 8 46 21 96 83 58 49 0 0 0 60 61 2 0 0 0 0 0 0 0 0 0 134 130 117 81 0 0 0 0
0 12 13 15 8 79 232 286 290 218 61 15 6 146 66 93 95 75 61 0 0 0 57 66 6 0 0 0 0 0 0 0 0 0 25 61 20 96 121 123 70 0
3 7 23 26 50 70 81 274 224 116 39 39 0 177 54 17 58 66 16 0 0 0 0 0 0 0 0 0 0 0 0 0 0 0 0 4 50 78 96 97 70 45
12 0 6 21 68 107 178 163 140 70 40 8 29 105 64 0 53 64 19 0 0 0 0 0 0 0 0 0 0 0 0 0 0 0 0 0 4 32 41 36 28 28
7 4 0 16 23 23 96 140 124 75 40 34 15 17 68 14 60 73 47 0 0 0 0 0 0 0 0 0 0 0 0 0 0 0 0 0 0 10 30 31 36 35
0 3 1 0 5 24 2 49 54 66 37 27 34 29 45 67 68 50 49 22 0 0 2 2 1 0 0 0 0 0 6 10 15 0 0 0 0 0 1 12 19 5

ECMWFNIL_con_mucape_078.txt.gz
CAPE
756 796 858 842 812 781 775 739 721 398 307 462 587 578 537 463 353 300 343 442 496 584 688 715 778 934 984 857 771 777 823 870 850 666 505 520 549 565 543 526 517 493
871 849 786 730 710 682 652 653 695 508 395 579 671 608 538 430 410 348 431 470 488 546 605 698 800 956 1017 875 771 789 845 884 863 712 660 634 620 553 531 539 540 478
600 834 830 723 622 557 538 538 604 601 513 619 706 533 484 480 369 394 434 434 459 514 594 720 770 954 1049 902 726 678 704 768 761 742 686 592 530 490 534 576 551 470
696 926 916 778 640 597 563 630 681 683 611 644 675 501 477 548 419 391 424 444 496 582 673 769 814 900 1048 960 720 670 676 675 648 624 610 566 549 550 560 576 589 543
579 781 811 794 694 541 499 700 798 834 745 662 603 492 515 544 462 450 444 507 589 652 704 771 849 878 864 850 804 750 772 700 638 642 638 662 627 576 481 493 550 578
419 532 517 506 520 655 679 772 784 792 741 646 547 461 527 537 522 561 572 606 661 704 699 678 620 613 724 745 688 679 732 684 674 688 720 725 646 504 428 406 425 439
525 450 513 607 623 725 826 725 773 717 738 694 515 416 483 533 487 585 650 664 722 714 619 553 498 421 580 665 682 702 686 698 708 769 802 784 654 586 588 560 492 459
622 565 525 533 578 675 777 764 785 764 747 612 426 385 477 528 505 598 710 728 694 653 610 576 525 470 577 678 758 794 801 816 867 864 852 820 685 705 703 654 568 542
649 634 680 726 713 722 918 953 823 738 762 543 373 390 529 542 535 618 698 652 630 609 545 455 421 426 524 607 717 824 874 897 894 871 843 828 778 757 739 690 654 636
514 512 566 689 671 742 863 918 860 773 741 584 388 482 580 563 518 593 632 579 606 584 443 383 367 375 403 538 641 753 815 826 855 887 892 879 820 786 733 681 686 690
472 497 470 428 482 496 652 799 751 705 665 534 453 545 549 556 511 544 574 479 551 473 363 349 350 359 396 499 563 570 502 534 618 741 830 823 769 761 722 658 685 746
420 446 448 420 453 572 632 721 728 692 661 538 431 433 473 480 522 504 530 494 400 384 346 346 354 364 352 287 278 296 328 380 458 594 674 673 707 745 683 605 679 788
347 400 434 451 453 513 644 727 741 680 548 477 442 355 450 619 450 453 479 479 406 382 366 370 372 361 325 304 274 308 322 348 398 482 533 580 628 629 601 577 655 777
193 246 310 380 464 476 521 589 689 738 606 489 426 348 403 497 407 417 480 428 385 404 400 374 351 332 321 285 246 258 261 313 328 385 513 592 600 602 577 566 678 772
1 162 209 295 398 476 436 395 456 643 708 496 410 340 354 438 450 442 436 351 410 415 320 332 326 319 299 267 209 193 203 220 0 50 334 364 345 352 403 468 575 660
1 1 28 226 272 299 344 411 418 535 711 524 406 345 329 436 505 470 406 396 393 356 248 278 304 302 269 218 167 130 0 0 0 0 0 0 0 0 269 364 481 555
1 1 3 15 128 197 234 292 369 471 587 472 398 363 341 402 424 372 409 413 360 317 228 204 224 258 205 174 20 0 0 0 0 0 0 0 0 0 249 373 493 490
0 1 1 1 10 71 91 183 240 294 380 419 396 278 256 291 383 274 341 348 330 304 193 157 186 192 132 93 0 0 0 0 0 0 0 0 0 0 332 436 508 380
0 1 1 1 5 41 41 53 114 193 178 394 374 250 197 214 190 173 243 278 271 99 66 107 174 144 77 11 0 0 0 0 0 0 0 0 0 197 252 249 321 0
0 0 1 1 7 33 36 52 62 46 203 254 296 197 194 124 217 107 187 170 25 0 16 91 132 116 65 0 0 0 0 0 0 0 0 0 0 201 137 117 21 0
0 0 0 0 0 6 13 34 28 21 12 276 308 216 134 140 113 72 137 62 0 0 48 104 97 106 74 22 0 0 0 0 0 0 0 104 176 188 167 113 64 55
0 0 0 0 0 16 24 14 17 26 54 210 272 148 105 165 41 110 129 23 0 0 45 96 98 95 76 0 0 0 0 0 0 0 0 151 191 207 185 148 86 72
0 0 0 0 0 8 16 7 4 27 63 176 192 78 130 102 52 98 110 35 0 0 58 103 88 66 52 0 0 0 0 0 0 0 93 168 192 183 166 140 98 60
0 0 1 0 0 0 5 9 6 18 37 138 175 134 120 146 57 86 98 87 0 0 39 111 98 58 48 0 0 0 0 0 0 20 116 178 165 138 147 144 104 66
0 0 0 0 0 0 0 8 17 24 20 109 142 136 85 28 33 98 109 107 75 15 0 57 106 97 59 52 2 0 0 0 0 0 73 124 134 114 110 138 157 110
0 0 0 0 2 0 0 4 1 3 18 28 73 96 81 70 27 83 44 2 2 36 1 0 0 95 50 58 41 13 0 0 0 0 0 36 52 55 54 88 113 96

ECMWFNIL_con_mucape_081.txt.gz
CAPE
594 650 1033 1181 1175 1136 981 962 638 672 591 673 584 457 513 541 568 597 629 617 632 665 811 864 843 894 934 1114 1149 1074 960 994 777 749 633 697 828 984 870 683 677 700
586 632 731 993 1150 958 803 773 644 488 468 589 620 482 477 624 682 538 571 638 680 744 887 833 880 1006 1124 1178 1154 1227 1163 1044 1053 693 779 711 1014 926 917 741 453 604
571 553 538 732 778 619 646 588 404 298 409 630 676 442 478 530 571 438 576 786 700 820 953 1006 1095 1187 1280 1311 1172 1041 1305 1217 1214 811 734 878 994 1005 857 544 476 665
533 547 462 568 589 573 599 426 197 145 383 620 639 557 566 676 623 532 616 780 884 995 1078 1116 1296 1341 1272 1275 1052 1138 1326 1378 1299 1038 876 844 938 798 564 450 483 528
418 437 465 476 536 637 653 461 135 176 351 650 651 532 555 627 685 593 688 828 905 1279 1056 988 1164 1090 1177 1253 1109 1188 1165 1297 1053 888 850 825 799 740 859 854 814 498
393 389 394 489 386 494 461 487 462 388 468 701 751 683 533 468 504 555 794 1008 973 1107 1180 1227 1296 1247 1298 1465 1095 1149 1100 826 748 742 612 737 551 604 626 762 976 984
329 354 426 482 446 402 446 475 508 532 595 685 766 716 535 561 490 550 693 840 851 938 1051 1214 1281 1437 1422 1471 1471 1395 1233 947 829 602 653 892 594 556 634 933 1035 1080
476 548 576 566 581 512 389 381 432 550 618 661 731 743 652 538 478 643 668 778 866 942 1085 1112 1196 1237 1188 1148 1389 1470 1265 984 712 730 683 915 976 942 968 926 1128 1068
377 464 531 560 555 549 569 558 473 485 682 678 682 693 681 618 500 602 527 503 490 796 935 928 994 1012 1049 1222 1385 1454 1351 1019 920 900 1137 1234 1176 1206 1037 1009 1150 1189
262 425 548 619 544 558 562 581 564 589 760 820 764 686 646 538 394 396 460 411 425 586 730 793 780 850 872 1069 1328 1400 1417 1327 1305 1362 1284 1394 1283 1269 1150 1162 1222 1252
3 103 126 341 405 438 465 476 472 535 703 827 766 694 626 497 376 380 423 379 387 463 701 813 756 716 795 1005 1249 1392 1414 1398 1327 1374 1488 1486 1458 1254 1251 1234 1334 1231
112 277 282 302 337 382 406 393 398 452 600 719 770 688 594 523 407 419 469 409 384 483 580 642 710 747 853 933 996 1122 1298 1360 1392 1448 1488 1452 1224 980 874 669 1129 1193
1 10 178 249 289 346 410 435 439 487 566 665 714 643 568 537 465 453 502 417 360 408 364 412 630 724 864 874 805 825 1032 1162 1263 1376 1451 1386 1252 994 847 753 1043 1211
1 2 2 94 168 237 299 356 407 441 518 618 655 634 578 464 449 450 511 430 370 372 309 512 678 534 580 625 622 687 815 924 1009 1086 1021 992 1000 992 1056 1006 1186 1225
0 1 2 2 5 133 155 197 305 397 412 434 537 600 555 542 454 448 490 457 336 281 313 384 402 356 344 349 351 367 460 523 762 766 821 838 887 948 968 1028 1039 1111
0 1 1 1 1 3 5 191 233 303 392 387 409 524 596 534 501 400 411 464 355 314 376 357 334 349 347 362 350 283 263 235 338 536 734 828 834 818 734 722 743 725
0 0 0 2 1 1 3 11 151 232 290 357 361 346 451 476 440 417 368 445 366 325 372 322 344 389 376 344 284 234 268 342 302 272 362 570 791 814 679 413 448 499
0 0 1 1 2 1 2 3 28 92 177 220 226 227 331 372 384 430 363 382 308 364 387 310 372 338 300 266 222 208 178 215 262 270 326 531 670 664 477 251 313 370
2 2 1 1 1 1 4 40 49 67 50 133 86 11 137 221 264 336 302 239 277 386 306 282 391 244 249 236 217 179 143 142 265 376 393 486 458 338 173 208 274 357
2 2 2 2 1 0 0 17 19 23 18 20 2 3 0 19 216 306 319 287 334 372 282 393 382 244 143 165 186 153 69 24 223 263 194 156 129 74 144 207 298 423
2 3 2 2 1 0 0 0 0 1 9 35 4 1 2 21 235 292 249 299 364 353 161 140 363 236 119 145 163 55 0 2 56 44 37 34 67 114 166 248 313 356
1 2 2 2 1 0 0 0 0 1 1 37 10 24 9 21 187 231 252 246 316 245 126 101 298 144 112 143 126 0 0 15 22 17 11 71 104 163 186 83 227 269
1 2 2 1 1 0 0 0 1 0 0 28 15 15 62 72 136 228 213 175 179 169 80 52 55 88 113 137 86 35 3 4 1 47 13 11 132 191 144 32 23 0
1 2 1 2 1 1 0 1 1 1 0 21 49 24 17 67 154 220 149 116 125 105 33 7 73 111 127 113 71 48 28 45 33 41 37 39 139 194 161 134 81 46
4 1 2 2 2 1 1 2 1 1 1 14 49 46 36 8 9 23 76 77 61 42 13 32 102 151 150 120 67 61 11 0 0 0 0 37 138 189 184 177 122 82
3 2 2 2 2 2 2 2 1 1 1 21 60 39 20 10 1 4 15 26 44 47 38 28 95 164 157 138 114 94 46 8 0 0 0 0 123 162 142 160 131 61

ECMWFNIL_con_mucape_084.txt.gz
CAPE
1287 1364 1221 1517 1502 1412 1159 1150 1358 1516 1262 978 820 853 864 928 989 878 825 705 847 762 820 734 557 616 808 1350 1375 1082 938 1088 739 1130 1074 1232 1193 938 988 926 1105 628
951 1092 932 1156 1103 1333 1503 1697 1684 1424 1328 1279 955 918 937 838 821 524 707 755 1069 937 490 534 702 609 1320 1213 1232 1270 967 831 617 992 1410 1393 1317 1111 1010 682 1209 1194
915 945 1061 1228 1528 1615 1648 1549 1193 1286 1182 1125 911 710 910 801 671 610 712 691 558 462 749 986 642 875 1187 1178 1274 1002 780 917 806 1383 1350 1327 1084 1056 724 1217 948 1274
676 930 967 1072 1184 1265 1401 1413 1436 1381 1281 1118 858 886 826 775 656 736 518 522 591 579 665 990 1203 1231 1168 1172 883 1106 972 1200 1308 1399 1323 1221 1116 1039 802 611 715 1332
321 596 836 1030 1048 1084 909 870 730 951 862 720 911 1142 987 819 665 664 721 769 909 815 703 1063 747 982 1556 1212 653 532 526 1109 1190 1259 1187 1128 1066 1055 1259 1338 1397 1352
311 379 642 918 1012 953 927 708 648 952 810 896 1009 1120 988 740 611 674 863 1088 978 1022 960 946 1334 1410 887 463 594 796 865 422 952 1240 1122 1003 1074 1159 1201 1242 1181 1092
350 371 579 839 897 873 793 920 1006 852 888 989 1014 1131 1086 914 809 878 921 1115 890 950 1401 1184 1375 832 830 796 776 1163 860 1019 1105 1312 1180 1091 1189 1411 1235 984 891 902
445 431 465 604 647 726 780 731 781 654 766 951 1023 1059 1078 935 1175 1076 931 975 767 710 744 835 963 610 1336 1314 1191 952 1014 1037 1460 1379 1242 1078 1237 1223 1077 1046 1230 459
286 438 426 421 510 617 533 569 624 776 908 912 965 1023 1187 1259 1047 991 1001 940 1002 616 825 1130 564 525 701 846 894 812 913 1446 1497 1567 1601 1519 1125 1132 1045 834 758 554
4 4 3 98 128 459 535 538 516 676 729 807 920 1029 1026 1226 1212 1311 1129 1028 770 980 1064 869 661 486 507 548 605 1194 1452 1496 1451 1733 1856 1622 1476 1348 741 846 875 1081
4 3 4 4 4 10 324 570 559 579 706 676 684 840 1070 1291 1135 1222 1218 1170 1149 992 942 727 760 542 448 552 668 802 911 1213 1421 1448 1763 1372 1327 1000 785 737 965 1208
3 3 1 2 2 3 79 250 273 368 583 638 666 734 873 890 623 1090 1101 1153 914 815 868 787 845 611 595 438 463 659 1348 1153 1272 1398 1011 1288 820 966 820 806 1113 1160
2 3 2 2 3 2 3 102 163 325 356 562 664 673 744 760 799 568 1010 715 876 856 836 787 763 651 513 447 433 593 1307 1230 1346 1306 740 409 629 711 813 1251 1195 1257
1 2 2 2 3 4 5 24 94 176 355 326 486 610 588 626 671 634 929 603 746 826 899 815 704 620 560 443 471 318 1102 1374 1340 1349 1276 873 930 1019 1197 1297 1495 1401
0 0 2 1 1 3 3 4 17 104 226 342 344 472 575 586 564 604 421 414 770 1054 1076 914 801 747 662 474 449 515 783 1489 1308 1279 1324 1183 1290 1292 1292 1378 1351 1343
0 0 0 1 1 2 2 4 3 83 218 312 387 359 429 532 689 794 483 544 515 852 1039 810 820 931 694 455 444 692 862 1258 1410 1449 1409 1460 1628 1505 1333 1351 1179 1052
0 0 0 0 1 2 3 2 2 3 52 198 338 337 240 369 316 392 461 433 403 534 736 1040 1086 950 678 601 550 538 859 1239 1320 1496 1563 1478 1353 1442 1255 1278 1232 990
0 0 0 0 1 1 1 1 2 44 72 112 123 171 206 226 220 259 227 266 350 348 749 740 826 490 563 504 386 354 375 876 1009 1139 1054 1039 973 964 1001 1301 1430 1452
0 0 0 0 0 0 2 2 2 30 6 72 87 75 80 91 137 146 155 163 519 340 417 376 396 346 376 280 196 304 355 375 742 628 642 623 855 1125 600 458 617 584
1 1 0 1 1 1 1 1 1 1 1 1 1 0 1 1 21 20 57 13 10 65 220 323 333 333 276 222 255 336 374 332 620 546 593 526 594 633 452 544 591 615
0 1 1 1 1 2 1 2 2 2 1 1 0 0 1 1 37 23 22 14 3 20 41 288 333 299 191 163 282 305 276 218 190 498 628 631 786 732 758 595 797 620
0 0 2 1 2 2 1 2 1 2 2 3 2 0 1 1 27 23 9 4 6 86 3 171 259 310 206 107 213 280 247 195 476 940 932 1022 1090 1199 1044 1036 827 705
0 1 1 2 1 1 1 1 2 1 2 1 2 1 2 2 4 31 12 17 32 1 3 150 231 293 161 114 107 214 84 134 676 525 696 885 894 816 692 791 897 603
0 2 2 2 2 1 1 2 2 2 2 2 2 3 2 2 18 55 27 7 6 22 23 60 163 246 122 65 128 53 80 277 235 394 585 507 464 274 257 160 225 183
0 0 3 4 3 2 2 2 2 2 3 1 1 1 1 18 64 68 64 43 23 18 8 34 50 129 88 40 110 60 23 53 93 191 206 152 54 71 109 150 150 126
0 0 0 2 4 3 2 2 1 0 1 1 1 0 9 16 18 20 28 18 14 21 5 1 5 7 0 0 17 74 144 98 45 63 14 3 48 48 97 145 134 97

ECMWFNIL_con_mucape_087.txt.gz
CAPE
996 1112 1330 1288 1546 1203 1192 1539 1135 987 868 970 1690 1054 1060 1114 1094 1070 942 963 907 934 1054 914 789 752 1236 1310 828 786 461 302 547 842 841 948 1127 937 778 895 714 1070
749 926 1003 1048 1316 1475 1298 964 944 1044 1063 918 1042 1580 1040 1037 1195 1210 1080 1107 1095 1016 731 727 611 694 765 1002 973 1111 659 621 507 669 536 522 1036 566 637 979 704 750
613 610 780 1058 924 913 1532 960 814 733 731 718 908 1361 1124 925 938 917 1004 1152 946 1209 970 884 754 654 652 777 904 864 674 545 466 1217 1045 1135 577 1124 1060 977 754 1142
202 407 652 857 977 1032 748 1385 810 537 704 730 767 831 881 1010 840 1086 1027 993 963 873 802 1239 1204 738 521 624 702 793 701 628 677 1034 1235 1442 1426 742 685 1190 1230 652
116 241 516 759 856 915 720 558 677 615 590 553 669 741 696 921 1035 1067 912 754 1091 840 1222 1125 1091 1099 890 932 510 629 512 568 830 1120 1260 596 639 622 628 918 988 840
78 228 354 641 785 870 1094 828 566 660 620 442 498 577 589 720 1223 1143 713 874 502 1148 700 587 1162 988 1015 603 526 562 656 707 900 882 580 484 403 251 513 655 1164 790
49 106 202 309 626 856 1061 981 754 702 662 692 633 370 674 572 872 1265 1148 625 628 450 697 818 673 1107 578 689 526 553 618 653 810 794 620 431 368 367 516 1248 940 851
32 59 63 156 338 567 614 574 685 869 903 744 577 608 579 700 854 1085 1339 906 581 1023 584 892 655 549 512 576 620 564 590 558 712 565 422 457 518 422 369 937 1221 907
12 11 10 20 62 210 296 382 644 712 842 834 749 635 700 1050 791 886 958 966 874 863 758 1107 857 785 655 561 571 435 486 641 616 492 400 434 458 465 523 830 1188 928
6 6 6 6 7 16 55 131 165 124 781 840 887 899 681 1291 1228 1118 1132 1269 861 521 744 930 1079 1214 806 684 846 432 579 462 428 402 388 383 204 210 253 426 812 934
3 4 6 7 5 7 9 9 96 218 308 517 704 833 878 953 1099 910 1444 1213 727 598 589 637 979 830 1188 937 830 841 699 719 702 450 412 391 412 245 273 310 872 882
0 2 1 2 3 3 5 5 7 6 102 326 421 593 792 904 844 1264 1096 1134 870 484 665 463 352 499 711 698 768 1010 880 788 724 940 525 402 447 312 250 376 582 849
0 0 1 2 4 3 2 4 4 5 5 67 285 446 590 781 909 655 1164 964 896 735 588 515 542 789 1314 1235 1259 794 1014 929 816 638 509 411 341 328 449 744 727 1058
0 1 0 0 4 3 4 4 3 4 4 4 106 395 548 567 696 761 633 790 868 753 747 519 356 458 707 1033 1250 1241 1325 1184 1053 935 422 342 515 687 449 312 869 781
0 0 3 0 1 2 2 3 2 3 1 0 0 36 214 527 642 595 600 524 860 1027 732 729 690 711 594 490 997 1253 1092 999 1025 661 687 520 565 728 603 1136 763 1141
0 0 0 1 2 2 3 3 2 2 1 0 25 32 127 180 196 388 652 530 732 852 710 668 632 763 453 498 540 618 943 754 788 741 724 774 538 675 875 1012 1226 1147
1 0 0 1 1 4 6 2 4 4 2 1 1 18 86 138 142 134 215 234 453 350 416 910 775 698 544 497 529 512 846 1089 1250 1033 500 527 528 545 860 1118 1235 877
1 1 1 2 1 1 4 2 4 4 3 4 3 1 2 7 1 1 196 268 240 217 236 324 343 348 362 472 488 487 389 574 741 576 354 532 762 723 521 1191 934 614
5 3 3 2 4 3 2 4 3 4 4 4 3 4 3 13 32 5 1 152 214 210 199 215 223 224 453 460 481 462 420 411 632 540 304 307 616 534 657 952 699 571
3 3 3 2 3 2 3 1 2 3 4 3 4 4 5 3 9 29 40 26 31 2 4 40 207 352 403 387 363 390 392 365 317 456 219 155 371 653 847 1278 1460 1110
2 3 4 3 4 2 3 2 2 4 2 3 2 3 3 4 2 28 40 41 34 20 4 5 0 204 217 240 283 299 315 259 172 149 324 324 491 545 730 585 853 728
1 2 3 5 3 4 2 2 1 1 3 2 1 1 2 2 1 2 2 8 23 38 35 45 8 6 74 102 86 292 248 209 170 221 141 380 619 484 694 495 517 781
2 2 4 4 4 5 4 5 3 2 2 1 2 3 2 0 1 2 0 1 1 25 60 18 15 35 4 2 142 173 185 131 204 215 113 99 1 517 548 342 254 254
1 3 4 5 7 5 5 5 4 3 1 0 0 1 2 2 2 2 1 2 1 0 29 45 37 24 14 13 186 187 162 128 99 99 58 26 171 490 133 89 360 346
0 2 4 6 7 6 6 4 3 4 2 0 0 0 0 1 0 0 0 1 2 2 8 36 59 47 27 63 11 113 47 81 32 36 92 171 161 102 118 180 216 191
1 2 5 9 8 10 8 7 6 4 6 4 1 0 3 1 1 2 1 0 0 1 4 1 23 26 24 20 82 110 125 24 35 13 26 136 80 108 95 118 132 146

ECMWFNIL_con_mucape_090.txt.gz
CAPE
137 97 160 307 590 968 1083 1339 1404 1226 951 949 944 931 911 911 1038 1197 1160 1043 1086 987 994 1047 930 731 740 858 920 705 628 633 516 636 454 466 498 495 517 779 838 648
10 6 41 163 422 787 872 884 1073 1006 843 758 796 837 828 673 588 732 903 1066 972 961 949 978 784 712 725 558 561 682 580 501 550 570 557 541 367 419 541 770 965 825
14 13 16 82 372 754 908 846 878 1083 809 644 667 906 962 833 688 700 602 580 709 969 851 686 542 586 634 681 526 483 540 531 424 506 455 613 742 855 681 793 778 801
17 15 13 36 179 565 852 980 849 874 894 880 887 905 864 968 817 619 620 698 815 806 434 416 657 753 630 561 643 565 493 602 558 552 432 431 576 707 658 682 576 502
12 12 9 7 44 191 516 770 877 727 724 908 971 911 825 848 1031 1016 650 440 479 531 500 525 605 644 580 594 611 572 545 672 774 634 513 420 501 501 531 590 557 461
16 11 8 10 7 10 86 448 541 619 627 639 657 796 861 707 641 718 697 582 708 495 487 479 584 571 595 610 677 635 634 725 798 574 455 491 530 484 451 458 428 416
12 13 10 9 10 8 13 27 81 272 441 611 699 551 681 941 740 490 421 449 347 356 434 566 494 428 509 586 561 635 731 596 711 703 556 528 531 478 440 370 400 404
10 10 9 9 12 8 10 7 4 32 171 244 610 748 694 583 666 642 711 598 591 549 596 508 402 458 542 504 599 589 653 517 460 428 536 536 536 524 467 485 488 486
9 7 6 8 7 7 10 7 6 6 6 74 172 346 627 954 707 530 471 591 483 530 624 480 385 411 514 520 667 600 496 559 537 775 599 566 565 504 479 438 424 372
1 4 0 4 0 2 7 8 9 11 9 7 15 107 234 528 743 588 416 405 399 370 438 472 351 434 603 579 685 622 596 484 457 506 613 552 599 544 461 540 393 427
1 1 2 5 0 3 5 6 8 8 10 9 8 1 40 41 408 733 767 501 335 455 544 569 522 654 580 478 504 594 608 556 480 479 552 659 564 618 578 511 472 438
1 1 1 1 1 3 5 7 8 6 6 6 4 0 2 106 143 59 231 592 579 402 405 479 507 467 421 456 471 610 631 557 526 477 561 612 564 568 470 526 543 436
1 1 1 2 1 3 5 5 6 6 4 1 1 1 1 2 34 126 171 200 307 398 338 388 516 530 390 293 290 425 608 621 528 479 560 679 539 617 523 457 367 344
1 2 1 0 1 2 2 6 6 4 4 2 1 0 1 1 2 16 65 102 156 222 266 337 351 394 449 327 363 503 528 476 541 496 644 729 746 673 559 472 424 321
4 1 1 1 2 2 3 3 3 5 3 2 1 2 2 2 1 0 13 54 74 113 198 281 317 328 418 413 373 364 522 509 571 690 892 784 630 705 611 534 481 373
4 2 1 2 3 3 1 3 3 2 4 2 1 1 2 2 1 1 1 7 3 53 52 226 290 301 385 360 367 402 418 422 572 563 620 584 681 609 787 608 580 423
4 3 3 2 3 3 4 1 1 4 2 0 1 1 1 1 1 1 2 2 1 1 58 222 258 251 324 335 390 475 147 344 327 458 547 514 741 781 813 756 634 518
3 1 1 3 4 0 1 2 3 1 2 1 0 0 0 1 2 0 1 2 2 1 2 6 177 241 242 268 294 288 389 451 324 142 317 471 721 742 669 553 348 425
2 4 2 5 3 1 4 4 2 2 1 1 1 1 0 1 0 0 1 0 2 2 1 2 10 100 214 199 178 208 231 375 310 233 404 466 581 771 835 545 301 348
0 3 1 4 4 3 4 2 3 2 3 2 0 0 0 0 0 1 0 1 1 3 5 5 7 9 16 45 105 154 203 259 388 297 280 336 450 597 814 690 332 252
6 3 5 5 6 7 6 4 3 4 2 1 1 2 2 0 0 0 0 1 1 1 1 4 6 12 15 8 34 128 216 294 277 252 252 332 380 358 564 497 335 354
2 6 8 9 8 7 7 7 7 6 3 1 0 0 0 0 0 0 0 0 1 0 0 0 2 5 16 14 0 0 74 194 212 8 27 150 280 220 85 174 257 333
1 3 6 7 8 7 8 10 11 10 11 2 0 0 1 1 2 0 0 0 0 1 2 0 1 2 18 68 67 59 2 7 18 5 47 118 200 180 22 70 248 314
1 0 2 5 6 9 11 13 10 9 9 15 3 0 0 1 1 1 0 0 0 0 4 1 1 1 0 14 63 84 20 18 10 12 28 32 32 71 51 50 197 247
3 1 0 0 0 0 0 1 9 10 9 12 14 4 1 0 1 1 1 0 0 0 0 3 2 1 0 0 3 34 24 33 28 29 10 11 64 85 41 40 109 186
1 0 4 1 0 0 0 0 1 4 8 8 2 6 6 4 1 1 1 1 0 0 0 1 3 1 0 0 0 0 8 27 35 28 31 14 10 22 59 80 107 199

ECMWFNIL_con_mucape_093.txt.gz
CAPE
0 0 0 0 0 3 276 344 413 468 338 529 529 492 555 680 619 397 418 531 639 698 692 674 707 782 686 729 706 700 627 616 583 488 457 512 517 667 816 788 604 433
10 8 1 0 0 1 2 3 244 382 304 112 132 358 449 582 560 418 344 446 571 615 645 644 673 730 757 718 675 623 683 650 651 616 528 516 635 699 678 716 650 568
10 10 7 5 8 7 2 2 111 214 212 224 267 309 380 469 652 606 635 605 532 479 608 687 636 590 671 716 712 644 640 581 616 673 616 587 531 532 569 650 709 709
6 9 14 12 14 12 6 1 0 1 9 70 124 221 254 348 556 591 623 668 714 610 598 547 591 612 581 533 532 546 559 524 524 486 499 532 488 472 476 537 589 588
3 4 5 7 9 8 8 5 4 1 0 23 6 69 230 234 432 562 510 498 508 570 573 533 450 439 450 514 406 311 373 476 532 528 577 561 479 401 394 402 454 561
0 0 2 2 1 4 10 6 7 5 2 0 0 4 56 179 291 519 545 527 539 560 641 600 521 469 502 488 382 196 329 274 397 449 494 478 505 367 373 466 519 556
0 0 2 0 0 0 9 7 3 4 6 6 4 0 0 0 18 179 410 506 600 472 481 517 543 488 406 354 316 313 316 346 367 481 501 537 525 450 341 380 520 622
0 0 0 0 0 0 6 7 7 9 6 8 6 1 0 0 4 86 226 346 432 506 552 523 515 497 453 384 304 274 333 430 422 467 637 606 431 402 431 435 437 560
0 0 0 0 0 0 5 6 8 10 10 6 2 2 0 0 0 44 135 14 295 392 438 470 466 446 444 434 344 326 355 365 443 587 700 640 538 530 533 543 579 643
0 0 0 0 0 0 5 7 8 8 9 1 3 4 3 0 0 2 57 170 237 269 363 412 391 376 444 476 432 450 453 477 400 441 517 496 482 550 549 556 590 565
0 0 0 0 1 2 6 9 10 9 9 6 3 1 3 3 2 0 23 94 156 254 329 344 330 301 372 416 375 354 331 314 388 422 385 389 262 395 555 626 633 566
0 0 0 2 4 5 8 9 10 10 8 7 4 3 4 6 4 2 1 4 86 187 61 261 266 266 281 326 316 261 272 123 236 258 206 235 320 216 391 646 641 663
0 0 2 5 7 7 8 10 10 8 9 8 4 1 1 1 2 3 2 1 1 20 62 133 183 244 284 259 240 236 177 2 59 293 332 331 328 409 599 672 625 640
3 4 4 7 9 11 10 11 9 8 9 9 6 3 1 0 1 1 2 2 2 2 4 29 78 186 250 258 282 335 295 262 278 315 366 375 348 354 509 738 776 652
5 8 8 7 10 10 9 9 8 7 8 7 6 4 4 2 2 1 1 1 0 1 1 7 7 78 168 235 284 247 235 259 278 294 315 309 385 357 404 427 522 520
6 8 5 6 5 5 5 6 5 4 3 2 2 1 0 1 1 2 2 2 1 0 1 6 8 2 23 138 186 244 258 238 295 333 310 247 183 252 479 682 678 537
6 7 4 4 5 4 4 2 1 0 0 0 0 0 0 0 0 1 2 2 2 1 1 3 5 2 1 30 145 241 251 228 228 298 262 268 309 288 438 590 670 448
5 5 2 3 4 5 5 3 1 0 0 0 0 0 0 0 0 0 0 1 2 1 1 3 5 1 0 0 0 0 64 150 184 194 182 93 97 226 250 469 554 584
4 5 4 4 3 3 2 3 2 2 0 0 0 0 0 0 0 0 0 0 0 0 2 3 4 0 0 0 0 0 0 0 219 166 162 25 184 244 129 382 526 516
0 0 0 1 2 2 0 0 0 3 4 0 0 0 0 0 0 0 0 0 0 0 0 2 3 0 0 0 0 0 0 0 0 34 96 108 4 6 178 235 410 357
0 0 0 0 0 0 0 0 0 0 3 1 0 0 0 0 0 0 0 0 0 0 0 1 1 0 0 0 0 0 0 0 0 34 95 126 70 1 47 220 237 199
0 0 0 0 0 0 0 0 0 0 0 0 0 0 0 0 0 0 0 0 0 0 0 0 0 0 0 0 0 0 0 0 0 34 40 60 16 43 45 57 204 241
0 0 0 0 0 0 0 0 0 0 0 0 0 0 0 0 0 0 0 0 0 0 0 0 0 0 0 0 0 0 0 0 1 3 3 15 2 3 16 26 75 190
0 0 0 0 0 0 0 0 0 0 0 0 0 0 0 0 0 0 0 0 0 0 0 0 0 0 0 0 0 0 0 1 2 3 5 18 23 16 5 19 110 189
0 0 0 0 0 0 0 0 0 0 0 0 0 0 0 0 0 0 0 0 0 0 0 0 0 0 0 0 0 0 0 1 2 2 4 4 43 40 23 11 109 125
0 0 0 0 0 0 0 0 0 0 0 0 0 0 0 0 0 0 0 0 0 0 0 0 0 0 0 0 0 0 0 1 2 3 8 9 24 38 26 19 52 78

ECMWFNIL_con_mucape_096.txt.gz
CAPE
0 0 0 1 1 2 3 4 5 9 4 6 6 6 16 82 139 195 222 4 5 5 226 253 374 539 597 589 654 714 712 680 679 676 667 626 603 606 467 396 370 426
7 5 0 0 0 0 1 1 1 1 3 2 2 2 18 20 96 129 182 188 6 91 350 341 350 421 491 532 568 643 709 658 644 558 562 467 440 444 481 472 424 384
5 0 1 5 5 2 0 0 1 1 1 1 2 1 1 2 21 84 107 123 146 34 104 336 360 425 498 520 520 516 502 549 533 491 483 455 466 428 487 357 426 448
3 0 0 0 2 5 0 0 0 0 0 0 0 0 1 1 3 10 31 50 105 168 208 230 281 336 365 381 414 461 483 472 410 272 224 330 410 417 362 416 468 472
0 0 0 0 0 1 1 0 2 1 0 0 0 0 0 1 0 1 2 12 14 82 159 188 206 272 333 394 395 441 425 389 282 130 108 97 91 274 312 367 387 439
0 0 0 0 0 0 2 3 4 4 3 0 0 0 0 0 1 3 5 7 9 40 12 47 87 221 272 313 370 386 375 298 208 151 116 85 152 317 349 307 404 415
0 0 0 0 1 5 5 3 0 3 1 0 1 0 0 1 2 3 7 7 10 10 16 81 131 0 82 12 138 255 332 346 314 287 265 187 164 215 353 498 492 448
0 0 0 1 3 5 4 3 3 0 0 1 1 1 0 1 1 1 4 6 8 9 5 4 53 97 206 234 209 227 293 218 327 429 354 299 374 361 368 416 458 455
2 3 3 2 3 4 5 4 2 0 0 0 0 0 2 0 1 1 2 3 6 6 7 5 2 2 7 202 286 326 374 320 85 220 265 270 302 286 355 467 419 436
5 4 6 5 5 6 6 4 2 0 0 0 0 0 0 1 0 1 2 2 2 2 6 6 6 5 3 3 166 179 236 292 274 2 66 115 170 235 263 291 295 289
8 6 5 5 5 5 5 2 1 0 0 0 0 0 0 0 0 1 1 1 1 1 6 4 3 2 3 7 48 90 57 225 252 1 3 32 75 82 117 233 188 163
5 5 5 4 4 2 0 0 0 0 0 0 0 0 0 0 0 0 2 1 1 1 3 4 3 3 3 4 7 62 156 128 87 47 2 2 11 49 34 5 16 210
0 0 0 0 0 0 0 0 0 0 0 0 0 0 0 0 0 0 1 1 0 0 1 2 0 1 1 1 2 7 91 163 43 277 256 2 2 15 39 233 281 280
3 0 0 0 0 0 0 0 0 0 0 0 0 0 0 0 0 0 1 1 2 2 2 3 1 1 0 0 1 1 28 86 150 210 189 29 1 2 15 21 185 290
1 1 0 0 0 0 0 0 0 0 0 0 0 0 0 0 0 0 0 0 0 2 2 3 2 2 2 2 2 0 1 1 19 101 1 1 1 2 8 34 67 284
0 0 0 0 0 0 0 0 0 0 0 0 0 0 0 0 0 0 0 0 0 0 2 3 2 2 7 1 1 3 1 0 0 0 0 55 1 2 39 180 96 182
0 0 0 0 0 0 0 0 0 0 0 0 0 0 0 0 0 0 0 0 1 1 2 2 2 2 0 0 0 0 0 0 0 0 8 160 2 3 2 2 160 194
0 0 0 0 0 0 0 0 0 0 0 0 0 0 0 0 0 0 0 0 0 1 1 2 1 0 0 0 0 0 0 0 0 0 0 0 1 2 4 5 85 170
0 0 0 0 0 0 0 0 0 0 0 0 0 0 0 0 0 0 0 0 0 0 0 0 0 0 0 0 0 0 0 0 0 0 0 0 0 48 169 105 7 4
0 0 0 0 0 0 0 0 0 0 0 0 0 0 0 0 0 0 0 0 0 0 0 0 0 0 0 0 0 0 0 0 0 1 5 8 6 5 4 40 2 3
0 0 0 0 0 0 0 0 0 0 0 0 0 0 0 0 0 0 0 0 0 0 0 0 0 0 0 0 0 0 0 1 2 4 4 4 6 7 5 4 2 1
0 0 0 0 0 0 0 0 0 0 0 0 0 0 0 0 0 0 0 0 0 0 0 0 0 0 0 0 0 0 0 0 2 5 3 3 4 4 3 4 4 2
0 0 0 0 0 0 0 0 0 0 0 0 0 0 0 0 0 0 0 0 0 0 0 0 0 0 0 0 0 0 0 1 2 8 9 12 12 7 14 2 2 85
0 0 0 0 0 0 0 0 0 0 0 0 0 0 0 0 0 0 0 0 0 0 0 0 0 0 0 0 0 0 0 0 1 11 17 5 10 9 4 4 1 2
0 0 0 0 0 0 0 0 0 0 0 0 0 0 0 0 0 0 0 0 0 0 0 0 0 0 0 0 0 0 0 0 0 4 11 7 4 16 3 0 8 32
0 0 0 0 0 0 0 0 0 0 0 0 0 0 0 0 0 0 0 0 0 0 0 0 0 0 0 0 0 0 0 0 0 1 2 20 4 20 29 30 10 28

ECMWFNIL_con_mucape_099.txt.gz
CAPE
0 0 0 0 0 0 1 2 2 4 5 4 4 4 3 3 5 12 35 37 34 51 87 99 74 45 17 7 16 62 126 224 278 360 427 510 549 556 519 456 422 425
0 0 0 0 0 0 0 0 1 1 3 4 3 2 4 3 5 6 6 9 24 47 60 87 84 45 21 29 49 45 89 183 269 330 382 418 464 466 434 387 348 365
0 0 0 0 0 0 0 0 0 0 0 1 1 2 2 4 4 4 4 4 5 7 18 44 70 58 34 28 36 31 97 190 248 287 300 313 301 314 315 266 196 167
0 0 0 0 0 0 0 0 0 0 0 0 0 0 0 1 3 3 2 2 7 1 2 6 14 22 15 15 16 14 32 141 245 284 312 324 318 282 248 189 141 105
0 0 0 0 0 0 0 0 0 0 0 0 0 1 0 1 2 4 5 6 6 2 3 3 3 4 8 12 16 17 24 31 63 150 209 228 239 274 267 190 135 100
0 0 0 0 1 0 1 1 1 1 1 0 0 0 0 1 2 2 3 4 5 6 7 5 5 6 6 8 9 7 9 24 44 75 165 218 270 314 349 284 164 147
0 0 1 4 1 3 1 1 2 1 1 0 0 0 0 0 1 0 0 1 3 4 5 4 5 5 4 7 6 4 6 6 19 82 156 195 198 228 217 228 169 156
3 4 5 4 2 1 0 0 0 0 0 0 0 0 0 0 0 1 1 0 0 2 4 4 4 4 4 6 5 7 8 8 6 6 53 106 84 121 145 160 146 153
5 3 1 0 0 0 0 0 0 0 0 0 0 0 0 0 0 0 0 1 1 1 2 2 1 1 1 1 1 2 3 5 7 6 6 22 72 106 85 80 135 134
2 0 0 0 0 0 0 0 0 0 0 0 0 0 0 0 0 0 0 0 1 0 1 1 0 0 0 0 0 1 0 1 4 6 5 2 2 2 3 5 67 125
0 0 0 0 0 0 0 0 0 0 0 0 0 0 0 0 0 0 0 0 1 1 2 1 2 2 1 1 0 0 0 1 1 2 3 0 1 2 4 4 8 32
0 0 0 0 0 0 0 0 0 0 0 0 0 0 0 0 0 0 1 0 1 2 2 2 2 2 2 1 1 0 0 0 1 0 0 0 1 1 3 5 6 10
0 0 0 0 0 0 0 0 0 0 0 0 0 0 0 0 0 0 0 1 2 1 2 2 3 2 0 1 1 1 0 0 0 0 0 0 0 0 1 3 4 9
0 0 0 0 0 0 0 0 0 0 0 0 0 0 0 0 0 0 0 1 2 2 3 4 2 0 0 1 1 1 1 0 0 0 0 0 0 0 1 2 4 5
0 0 0 0 0 0 0 0 0 0 0 0 0 0 0 0 0 0 0 0 2 2 1 4 0 1 1 2 1 0 0 0 0 0 0 0 0 0 0 0 2 7
0 0 0 0 0 0 0 0 0 0 0 0 0 0 0 0 0 0 0 1 0 0 0 1 1 0 4 1 1 1 0 0 0 0 0 0 0 0 0 1 4 6
0 0 0 0 0 0 0 0 0 0 0 0 0 0 0 0 0 0 0 0 0 0 1 1 0 0 0 0 0 0 0 1 1 0 2 6 5 4 5 6 4 4
0 0 0 0 0 0 0 0 0 0 0 0 0 0 0 0 0 0 0 0 0 0 0 0 0 0 0 0 0 0 0 1 1 3 4 4 4 6 5 6 4 4
0 0 0 0 0 0 0 0 0 0 0 0 0 0 0 0 0 0 0 0 0 0 0 0 0 0 0 0 0 0 0 0 1 3 3 2 5 5 5 4 5 5
0 0 0 0 0 0 0 0 0 0 0 0 0 0 0 0 0 0 0 0 0 0 0 0 0 0 0 0 0 0 0 0 1 2 4 4 4 6 6 5 3 5
0 0 0 0 0 0 0 0 0 0 0 0 0 0 0 0 0 0 0 0 0 0 0 0 0 0 0 0 0 0 0 0 0 2 4 4 4 4 5 8 8 5
0 0 0 0 0 0 0 0 0 0 0 0 0 0 0 0 0 0 0 0 0 0 0 0 0 0 0 0 0 0 0 0 0 1 2 1 1 2 6 11 10 7
0 0 0 0 0 0 0 0 0 0 0 0 0 0 0 0 0 0 0 0 0 0 0 0 0 0 0 0 0 0 0 0 1 1 1 1 1 3 6 6 6 4
0 0 0 0 0 0 0 0 0 0 0 0 0 0 0 0 0 0 0 0 0 0 0 0 0 0 0 0 0 0 0 0 1 1 1 2 0 1 3 6 3 6
0 0 0 0 0 0 0 0 0 0 0 0 0 0 0 0 0 0 0 0 0 0 0 0 0 0 0 0 0 0 0 0 0 1 2 1 1 1 1 2 6 4
0 0 0 0 0 0 0 0 0 0 0 0 0 0 0 0 0 0 0 0 0 0 0 0 0 0 0 0 0 0 0 0 0 0 0 1 1 2 4 1 0 4

ECMWFNIL_con_mucape_102.txt.gz
CAPE
386 312 0 0 0 0 0 0 0 1 2 1 2 2 3 2 3 3 6 7 7 6 6 6 8 8 7 8 7 9 27 93 149 231 287 316 338 363 362 350 434 512
298 0 0 0 0 0 0 0 0 0 0 0 1 2 1 2 3 2 3 4 4 6 4 5 4 3 4 5 8 8 8 10 18 101 163 227 287 324 314 337 337 344
0 0 0 0 0 0 0 0 0 0 0 0 1 1 0 1 2 3 3 3 4 6 7 6 5 3 2 2 4 5 6 8 8 7 8 15 142 219 282 316 310 333
0 0 0 0 0 0 0 0 0 0 0 0 0 0 0 0 2 3 5 4 6 6 4 4 5 5 3 3 4 4 4 7 6 6 6 6 8 23 109 209 238 272
0 0 0 0 0 0 0 0 0 0 0 0 0 0 0 0 0 1 2 3 2 4 5 4 3 3 2 3 2 3 1 3 2 3 5 8 9 7 17 89 203 265
0 0 0 0 0 0 0 0 0 0 0 0 0 0 0 0 0 0 0 0 0 2 0 1 1 0 0 0 0 1 1 2 1 1 2 3 3 3 5 8 32 145
0 0 0 0 0 0 0 0 0 0 0 0 0 0 0 0 0 1 0 0 1 1 2 2 2 1 1 1 1 1 0 0 1 1 0 1 2 1 4 6 8 14
0 0 0 0 0 0 0 0 0 0 0 0 0 0 0 0 1 1 1 1 1 2 3 2 2 2 1 2 1 1 0 1 1 1 1 0 1 1 1 2 6 6
0 0 0 0 0 0 0 0 0 0 0 0 0 0 0 0 0 2 2 2 2 2 2 2 2 2 1 1 1 1 1 0 0 0 0 1 1 1 0 1 2 4
0 0 0 0 0 0 0 0 0 0 0 0 0 0 0 0 0 1 2 2 2 2 3 2 2 1 2 2 1 1 1 0 0 0 0 0 0 0 0 1 2 2
0 0 0 0 0 0 0 0 0 0 0 0 0 0 0 0 0 1 1 1 2 2 3 3 1 2 2 2 1 1 0 0 1 1 1 1 0 0 1 0 1 1
0 0 0 0 0 0 0 0 0 0 0 0 0 0 0 0 0 1 2 2 2 2 2 1 1 1 1 1 1 1 0 1 3 4 4 2 1 0 0 0 0 0
0 0 0 0 0 0 0 0 0 0 0 0 0 0 0 0 0 1 2 2 2 1 2 2 0 1 0 1 1 0 0 0 3 4 2 0 0 1 1 0 0 0
0 0 0 0 0 0 0 0 0 0 0 0 0 0 0 0 0 0 0 0 1 2 2 1 0 0 1 0 0 0 0 0 3 3 2 3 5 4 5 6 8 6
0 0 0 0 0 0 0 0 0 0 0 0 0 0 0 0 0 0 0 0 0 0 0 0 0 0 1 1 0 0 0 0 1 2 3 4 3 4 3 5 7 6
0 0 0 0 0 0 0 0 0 0 0 0 0 0 0 0 0 0 0 0 0 0 0 0 0 1 3 0 0 0 0 0 0 1 2 3 4 3 3 4 4 6
0 0 0 0 0 0 0 0 0 0 0 0 0 0 0 0 0 0 0 0 0 0 0 0 0 1 0 0 0 0 0 0 0 2 2 3 3 3 3 3 4 3
0 0 0 0 0 0 0 0 0 0 0 0 0 0 0 0 0 0 0 0 0 0 0 0 0 0 0 0 0 0 0 0 0 2 2 2 3 2 2 2 2 2
0 0 0 0 0 0 0 0 0 0 0 0 0 0 0 0 0 0 0 0 0 0 0 0 0 0 0 0 0 0 0 0 1 2 2 2 2 1 2 2 3 4
0 0 0 0 0 0 0 0 0 0 0 0 0 0 0 0 0 0 0 0 0 0 0 0 0 0 0 0 0 0 0 0 1 2 2 2 2 2 2 3 2 5
0 0 0 0 0 0 0 0 0 0 0 0 0 0 0 0 0 0 0 0 0 0 0 0 0 0 0 0 0 0 0 0 1 2 2 2 2 2 2 2 2 4
0 0 0 0 0 0 0 0 0 0 0 0 0 0 0 0 0 0 0 0 0 0 0 0 0 0 0 0 0 0 0 0 1 2 2 2 2 2 2 2 2 3
0 0 0 0 0 0 0 0 0 0 0 0 0 0 0 0 0 0 0 0 0 0 0 0 0 0 0 0 0 0 0 0 1 2 2 2 2 2 2 1 2 4
0 0 0 0 0 0 0 0 0 0 0 0 0 0 0 0 0 0 0 0 0 0 0 0 0 0 0 0 0 0 0 0 1 2 2 3 2 2 2 1 3 6
0 0 0 0 0 0 0 0 0 0 0 0 0 0 0 0 0 0 0 0 0 0 0 0 0 0 0 0 0 0 0 0 1 1 2 2 2 2 2 1 1 2
0 0 0 0 0 0 0 0 0 0 0 0 0 0 0 0 0 0 0 0 0 0 0 0 0 0 0 0 0 0 0 0 0 1 2 2 2 3 2 1 1 1

ECMWFNIL_con_mucape_105.txt.gz
CAPE
18 1 1 1 2 1 2 2 2 0 2 4 3 1 0 0 1 0 3 7 4 1 0 0 0 0 0 0 0 1 1 2 2 4 2 5 11 43 127 168 253 464
0 2 1 1 2 2 2 2 3 2 1 1 1 2 1 0 0 0 0 1 2 2 1 0 0 0 0 0 0 1 0 0 1 2 2 3 5 10 18 46 160 343
1 2 1 2 2 3 2 1 1 1 1 1 1 1 1 2 0 0 0 0 2 0 0 0 0 0 0 0 0 0 0 0 1 1 2 2 3 6 5 6 7 17
2 2 2 1 0 0 0 0 0 0 0 0 1 1 1 2 0 0 0 1 2 2 2 0 0 0 0 0 1 1 2 1 1 2 2 0 1 2 3 5 6 6
1 1 0 0 0 0 0 0 0 0 0 0 1 1 1 1 1 1 1 2 2 2 1 1 1 1 1 0 1 1 1 0 1 1 1 2 1 2 2 4 4 3
0 0 0 0 0 0 0 0 0 0 0 0 0 0 1 1 1 2 2 2 0 2 1 0 0 1 0 0 0 0 0 0 0 0 0 0 0 0 1 2 2 3
0 0 0 0 0 0 0 0 0 0 0 0 0 0 0 0 1 1 1 1 1 1 0 0 0 0 0 0 0 0 0 0 0 0 0 0 0 0 0 1 1 1
0 0 0 0 0 0 0 0 0 0 0 0 0 0 1 0 1 1 1 1 1 0 0 0 0 0 0 1 0 0 0 1 1 1 1 1 2 2 2 2 1 1
0 0 0 0 0 0 0 0 0 0 0 0 0 0 0 0 1 0 0 0 0 0 0 0 0 0 0 0 1 0 0 0 2 2 2 2 1 1 0 0 1 2
0 0 0 0 0 0 0 0 0 0 0 0 0 0 0 0 1 0 0 0 0 0 0 0 0 0 0 0 0 0 0 0 0 1 2 2 1 0 0 1 0 1
0 0 0 0 0 0 0 0 0 0 0 0 0 0 0 0 0 0 0 0 0 0 0 0 0 0 0 0 0 0 0 0 0 0 0 0 0 2 3 3 3 4
0 0 0 0 0 0 0 0 0 0 0 0 0 0 0 0 0 0 0 0 0 0 0 0 0 0 0 0 0 0 0 0 1 1 0 2 1 1 1 1 3 2
0 0 0 0 0 0 0 0 0 0 0 0 0 0 0 0 0 0 0 0 0 0 0 0 0 0 0 0 0 0 1 1 2 4 5 3 2 2 1 2 2 3
0 0 0 0 0 0 0 0 0 0 0 0 0 0 0 0 0 0 0 0 0 0 0 0 0 0 0 0 0 0 0 2 2 3 2 1 1 0 2 2 2 4
0 0 0 0 0 0 0 0 0 0 0 0 0 0 0 0 0 0 0 0 0 0 0 0 0 0 1 3 1 0 1 2 3 3 2 2 1 0 0 1 1 2
0 0 0 0 0 0 0 0 0 0 0 0 0 0 0 0 0 0 0 0 0 0 0 0 0 0 1 0 0 1 1 2 3 4 4 3 3 0 0 1 2 5
0 0 0 0 0 0 0 0 0 0 0 0 0 0 0 0 0 0 0 0 0 0 0 0 0 0 0 0 0 0 0 2 2 4 4 3 3 2 3 2 1 2
0 0 0 0 0 0 0 0 0 0 0 0 0 0 0 0 0 0 0 0 0 0 0 0 0 0 0 0 0 0 0 1 1 3 3 2 3 2 2 3 2 4
0 0 0 0 0 0 0 0 0 0 0 0 0 0 0 0 0 0 0 0 0 0 0 0 0 0 0 0 0 0 0 0 0 2 2 4 3 2 2 2 4 5
0 0 0 0 0 0 0 0 0 0 0 0 0 0 0 0 0 0 0 0 0 0 0 0 0 0 0 0 0 0 0 0 0 2 3 4 3 1 2 2 3 4
0 0 0 0 0 0 0 0 0 0 0 0 0 0 0 0 0 0 0 0 0 0 0 0 0 0 0 0 0 0 0 0 0 1 1 1 1 1 2 2 2 5
0 0 0 0 0 0 0 0 0 0 0 0 0 0 0 0 0 0 0 0 0 0 0 0 0 0 0 0 0 0 0 0 0 0 1 2 2 3 2 2 2 3
0 0 0 0 0 0 0 0 0 0 0 0 0 0 0 0 0 0 0 0 0 0 0 0 0 0 0 0 0 0 0 0 0 0 0 2 3 4 2 2 2 2
0 0 0 0 0 0 0 0 0 0 0 0 0 0 0 0 0 0 0 0 0 0 0 0 0 0 0 0 0 0 0 0 0 0 2 2 2 3 3 3 3 2
0 0 0 0 0 0 0 0 0 0 0 0 0 0 0 0 0 0 0 0 0 0 0 0 0 0 0 0 0 0 0 0 0 0 1 2 2 2 2 2 2 2
0 0 0 0 0 0 0 0 0 0 0 0 0 0 0 0 0 0 0 0 0 0 0 0 0 0 0 0 0 0 0 0 0 0 2 2 2 1 1 1 1 1

ECMWFNIL_con_mucape_108.txt.gz
CAPE
316 274 4 5 3 3 4 5 4 4 4 4 3 4 4 5 5 7 8 8 8 5 5 4 2 2 0 1 1 2 2 4 4 7 6 7 9 15 16 19 20 14
5 5 3 3 3 5 5 5 5 4 4 6 5 4 6 6 6 4 6 7 6 4 2 1 0 0 0 0 1 2 2 2 7 6 6 4 4 7 12 14 15 16
6 5 3 4 4 4 4 5 5 5 4 5 6 6 5 6 6 5 4 3 0 0 0 0 0 0 0 0 0 0 2 3 3 4 4 4 7 8 9 9 11 12
5 4 3 3 3 3 4 2 4 2 4 2 3 3 2 3 3 2 1 1 0 0 0 0 0 0 0 0 0 0 2 2 2 3 3 3 5 5 5 6 7 6
4 4 3 2 1 0 0 0 0 0 0 0 2 0 1 0 0 0 0 0 0 0 0 0 0 0 0 0 0 0 2 2 2 2 2 3 3 4 4 5 5 6
2 0 0 0 0 0 0 0 0 0 0 0 0 0 0 0 0 0 0 0 0 0 0 0 0 0 0 0 0 0 3 2 4 3 4 4 4 5 6 6 6 5
3 0 0 0 0 0 0 0 0 0 0 0 0 0 0 0 0 0 0 0 0 0 0 0 0 0 0 0 0 0 1 3 4 3 3 3 7 6 6 7 6 5
2 0 0 0 0 0 0 0 0 0 0 0 0 0 0 0 0 0 0 0 0 0 0 0 0 0 0 0 0 0 2 3 3 4 4 6 8 5 5 7 12 9
4 0 0 1 0 0 0 0 0 0 0 0 0 0 0 0 0 0 0 0 0 0 0 0 0 0 0 0 0 0 1 3 4 4 5 5 6 5 3 6 7 11
0 0 0 0 0 0 0 0 0 0 0 0 0 0 0 0 0 0 0 0 0 0 0 0 0 0 0 0 0 0 1 2 3 4 4 5 6 6 6 5 5 8
0 0 0 0 0 0 0 0 0 0 0 0 0 0 0 0 0 0 0 0 0 0 0 0 0 0 0 0 0 0 0 1 2 4 5 4 5 4 3 5 5 5
0 0 0 0 0 0 0 0 0 0 0 0 0 0 0 0 0 0 0 0 0 0 0 0 0 0 0 0 0 0 0 1 1 2 3 2 2 3 3 4 6 5
0 0 0 0 0 0 0 0 0 0 0 0 0 0 0 0 0 0 0 0 0 0 0 0 0 0 0 0 0 0 0 0 0 2 2 2 3 1 2 4 4 5
0 0 0 0 0 0 0 0 0 0 0 0 0 0 0 0 0 0 0 0 0 0 0 0 0 0 0 0 0 0 1 0 0 1 0 0 3 1 4 4 5 4
0 0 0 0 0 0 0 0 0 0 0 0 0 0 0 0 0 0 0 0 0 0 0 0 0 0 0 0 0 0 2 0 2 0 2 0 1 1 4 5 5 6
0 0 0 0 0 0 0 0 0 0 0 0 0 0 0 0 0 0 0 0 0 0 0 0 0 0 0 0 0 0 0 0 0 1 2 2 3 2 4 4 6 9
0 0 0 0 0 0 0 0 0 0 0 0 0 0 0 0 0 0 0 0 0 0 0 0 0 0 0 0 0 0 0 0 0 0 2 2 3 4 5 4 5 7
0 0 0 0 0 0 0 0 0 0 0 0 0 0 0 0 0 0 0 0 0 0 0 0 0 0 0 0 0 0 0 2 0 0 2 3 5 6 5 6 5 6
0 0 0 0 0 0 0 0 0 0 0 0 0 0 0 0 0 0 0 0 0 0 0 0 0 0 0 0 0 0 0 0 0 0 1 4 5 5 8 8 8 6
0 0 0 0 0 0 0 0 0 0 0 0 0 0 0 0 0 0 0 0 0 0 0 0 0 0 0 0 0 0 0 0 0 0 1 3 1 3 9 7 8 8
0 0 0 0 0 0 0 0 0 0 0 0 0 0 0 0 0 0 0 0 0 0 0 0 0 0 0 0 0 0 0 0 0 0 2 2 4 7 3 8 9 9
0 0 0 0 0 0 0 0 0 0 0 0 0 0 0 0 0 0 0 0 0 0 0 0 0 0 0 0 0 0 0 0 0 0 2 2 6 4 6 2 8 7
0 0 0 0 0 0 0 0 0 0 0 0 0 0 0 0 0 0 0 0 0 0 0 0 0 0 0 0 0 0 0 0 0 0 0 2 3 4 3 2 8 0
1 0 0 0 0 0 0 0 0 0 0 0 0 0 0 0 0 0 0 0 0 0 0 0 0 0 0 0 0 0 0 0 0 0 0 2 2 4 4 4 0 0
0 0 0 0 0 0 0 0 0 0 0 0 0 0 0 0 0 0 0 0 0 0 0 0 0 0 0 0 0 0 0 0 0 0 1 2 0 1 2 2 3 1
0 0 0 0 0 0 0 0 0 0 0 0 0 0 0 0 0 0 0 0 0 0 0 0 0 0 0 0 0 0 0 0 0 0 0 0 0 0 0 2 1 1

ECMWFNIL_con_mucape_111.txt.gz
CAPE
5 6 5 5 4 5 5 7 5 6 6 6 6 6 4 5 5 6 3 2 0 0 0 0 0 0 0 0 0 0 0 1 2 2 4 6 8 9 9 8 10 12
3 3 3 4 3 3 4 6 5 5 3 5 5 6 5 5 5 1 0 0 0 0 0 0 0 0 0 0 0 1 0 1 1 1 3 2 5 6 9 9 9 8
3 3 3 5 5 5 3 4 5 4 3 4 4 2 1 1 0 0 0 0 0 0 0 0 0 0 0 0 0 0 0 2 1 3 5 2 4 7 7 8 9 10
1 2 3 4 5 2 1 3 4 2 4 2 0 0 0 0 0 0 0 0 0 0 0 0 0 0 0 0 0 0 0 1 3 5 5 5 3 4 6 9 10 9
2 1 0 1 1 0 0 0 0 0 0 0 0 0 0 0 0 0 0 0 0 0 0 0 0 0 0 0 0 0 0 2 5 2 1 2 6 5 6 7 8 9
0 0 0 0 0 2 0 0 0 0 0 1 1 0 0 0 0 0 0 0 0 0 0 0 0 0 0 0 0 0 0 0 3 2 1 3 5 5 6 8 10 11
2 3 0 0 0 0 0 1 0 0 0 0 0 0 0 0 0 0 0 0 0 0 0 0 0 0 0 0 0 0 0 0 0 2 2 2 6 8 7 7 10 11
3 4 4 1 0 0 0 0 0 0 0 0 0 0 0 0 0 0 0 0 0 0 0 0 0 0 0 0 0 0 0 0 0 0 2 2 5 6 5 8 12 6
2 2 2 0 0 0 0 0 0 0 0 0 0 0 0 0 0 0 0 0 0 0 0 0 0 0 0 0 0 0 0 0 0 0 0 2 2 2 3 6 7 10
1 0 0 0 0 0 0 0 0 0 0 0 0 0 0 0 0 0 0 0 0 0 0 0 0 0 0 0 0 0 1 0 0 0 0 0 0 2 2 5 6 7
83 0 0 0 0 0 0 0 0 0 0 0 0 0 0 0 0 0 0 0 0 0 0 0 0 0 0 0 0 0 1 0 1 0 0 0 1 1 5 6 7 10
0 0 0 0 0 0 0 0 0 0 0 0 0 0 0 0 0 0 0 0 0 0 0 0 0 0 0 0 0 0 0 0 0 0 0 0 0 2 6 8 10 6
1 0 0 0 0 0 0 0 0 0 0 0 0 0 0 0 0 0 0 0 0 0 0 0 0 0 0 0 0 0 0 0 0 0 0 1 2 1 4 5 6 6
0 0 0 0 0 0 0 0 0 0 0 0 0 0 0 0 0 0 0 0 0 0 0 0 0 0 0 0 0 0 1 0 0 0 2 2 1 0 0 2 2 3
0 0 0 0 0 0 0 0 0 0 0 0 0 0 0 0 0 0 0 0 0 0 0 0 0 0 0 0 0 0 0 0 0 0 0 0 0 0 2 0 0 1
0 0 0 0 0 0 0 0 0 0 0 0 0 0 0 0 0 0 0 0 0 0 0 0 0 0 0 0 0 0 0 3 0 0 0 0 0 0 2 0 2 5
0 0 0 0 0 0 0 0 0 0 0 0 0 0 0 0 0 0 0 0 0 0 0 0 0 0 0 0 0 0 0 0 0 0 0 0 0 2 1 0 4 3
0 0 0 0 0 0 0 0 0 0 0 0 0 0 0 0 0 0 0 0 0 0 0 0 0 0 0 0 0 0 0 0 1 0 0 1 1 1 2 3 4 3
0 0 0 0 0 0 0 0 0 0 0 0 0 0 0 0 0 0 0 0 0 0 0 0 0 0 0 0 0 0 0 0 0 0 0 0 1 2 4 4 3 1
0 0 0 0 0 0 0 0 0 0 0 0 0 0 0 0 0 0 0 0 0 0 0 0 0 0 0 0 0 0 0 0 0 0 0 0 1 1 4 2 1 0
0 0 0 0 0 0 0 0 0 0 0 0 0 0 0 0 0 0 0 0 0 0 0 0 0 0 0 0 0 0 0 0 0 0 0 0 0 1 0 0 1 0
0 0 0 0 0 0 0 0 0 0 0 0 0 0 0 0 0 0 0 0 0 0 0 0 0 0 0 0 0 0 0 0 0 0 0 0 0 0 0 0 0 0
0 0 0 0 0 0 0 0 0 0 0 0 0 0 0 0 0 0 0 0 0 0 0 0 0 0 0 0 0 0 0 0 0 0 0 0 0 0 0 0 0 0
0 0 0 0 0 0 0 0 0 0 0 0 0 0 0 0 0 0 0 0 0 0 0 0 0 0 0 0 0 0 0 0 0 0 0 0 0 0 0 1 0 0
0 0 0 0 0 0 0 0 0 0 0 0 0 0 0 0 0 0 0 0 0 0 0 0 0 0 0 0 0 0 0 0 0 0 0 0 0 0 0 0 0 0
0 0 0 0 0 0 0 0 0 0 0 0 0 0 0 0 0 0 0 0 0 0 0 0 0 0 0 0 0 0 0 0 0 0 0 0 0 0 0 0 0 0

ECMWFNIL_con_mucape_117.txt.gz
CAPE
393 350 275 240 180 103 55 0 0 0 0 0 0 0 0 0 0 0 0 0 0 0 0 0 0 0 0 0 0 0 0 0 0 0 0 0 0 0 0 0 0 0
368 240 251 230 191 71 0 0 0 0 0 0 0 0 0 0 0 0 0 0 0 0 0 0 0 0 0 0 0 0 0 0 0 0 0 0 0 0 0 0 0 0
189 0 0 0 0 0 0 0 0 0 0 0 0 0 0 0 0 0 0 0 0 0 0 0 0 0 0 0 0 0 0 0 0 0 0 0 0 0 0 0 0 0
0 0 0 0 0 0 0 0 0 0 0 0 0 0 0 0 0 0 0 0 0 0 0 0 0 0 0 0 0 0 0 0 0 0 0 0 0 0 0 0 0 0
0 67 0 0 0 0 0 0 0 0 0 0 0 0 0 0 0 0 0 0 0 0 0 0 0 0 0 0 0 0 0 0 0 0 0 0 0 0 0 0 0 0
87 24 0 0 0 0 0 0 0 0 0 0 0 0 0 0 0 0 0 0 0 0 0 0 0 0 0 0 0 0 0 0 0 0 0 0 0 0 0 0 0 0
0 0 0 0 0 0 0 0 0 0 0 0 0 0 0 0 0 0 0 0 0 0 0 0 0 0 0 0 0 0 0 0 0 0 0 0 0 0 0 0 0 0
0 0 0 0 0 0 0 0 0 0 0 0 0 0 0 0 0 0 0 0 0 0 0 0 0 0 0 0 0 0 0 0 0 0 0 0 0 0 0 0 0 0
0 0 0 0 0 0 0 0 0 0 0 0 0 0 0 0 0 0 0 0 0 0 0 0 0 0 0 0 0 0 0 0 0 0 0 0 0 0 0 0 0 0
0 0 0 0 0 0 0 0 0 0 0 0 0 0 0 0 0 0 0 0 0 0 0 0 0 0 0 0 0 0 0 0 0 0 0 0 0 0 0 0 0 0
0 0 0 0 62 0 0 0 0 0 0 0 0 0 0 0 0 0 0 0 0 0 0 0 0 0 0 0 0 0 0 0 0 0 0 0 0 0 0 0 0 0
0 0 0 30 100 130 127 0 0 0 0 0 0 0 0 0 0 0 0 0 0 0 0 0 0 0 0 0 0 0 0 0 0 0 0 0 0 0 0 0 0 0
0 0 0 0 0 0 0 0 0 0 0 0 0 0 0 0 0 0 0 0 0 0 0 0 0 0 0 0 0 0 0 0 0 0 0 0 0 0 0 0 0 0
0 0 0 0 0 0 0 0 0 0 0 0 0 0 0 0 0 0 0 0 0 0 0 0 0 0 0 0 0 0 0 0 0 0 0 0 0 0 0 0 0 0
0 0 0 0 0 0 0 0 0 0 0 0 0 0 0 0 0 0 0 0 0 0 0 0 0 0 0 0 0 0 0 0 0 0 0 0 0 0 0 0 0 0
0 0 0 0 0 0 0 0 0 0 0 0 0 0 0 0 0 0 0 0 0 0 0 0 0 0 0 0 0 0 0 0 0 0 0 0 0 0 0 0 0 0
0 0 0 0 0 0 0 0 0 0 0 0 0 0 0 0 0 0 0 0 0 0 0 0 0 0 0 0 0 0 0 0 0 0 0 0 0 0 0 0 0 0
0 0 0 0 0 0 0 0 0 0 0 0 0 0 0 0 0 0 0 0 0 0 0 0 0 0 0 0 0 0 0 0 0 0 0 0 0 0 0 0 0 0
180 0 0 0 0 0 0 0 0 0 0 0 0 0 0 0 0 0 0 0 0 0 0 0 0 0 0 0 0 0 0 0 0 0 0 0 0 0 0 0 0 0
56 0 0 0 0 0 0 0 0 0 0 0 0 0 0 0 0 0 0 0 0 0 0 0 0 0 0 0 0 0 0 0 0 0 0 0 0 0 0 0 0 0
0 0 0 0 0 5 19 0 0 0 0 0 0 0 0 0 0 0 0 0 0 0 0 0 0 0 0 0 0 0 0 0 0 0 0 0 0 0 0 0 0 0
0 0 0 0 17 9 0 0 0 0 0 0 0 0 0 0 0 0 0 0 0 0 0 0 0 0 0 0 0 0 0 0 0 0 0 0 0 0 0 0 0 0
0 0 0 0 0 0 0 0 0 0 0 0 0 0 0 0 0 0 0 0 0 0 0 0 0 0 0 0 0 0 0 0 0 0 0 0 0 0 0 0 0 0
0 0 0 0 0 0 0 0 0 0 0 0 0 0 0 0 0 0 0 0 0 0 0 0 0 0 0 0 0 0 0 0 0 0 0 0 0 0 0 0 0 0
0 0 0 0 0 0 0 0 0 0 0 0 0 0 0 0 0 0 0 0 0 0 0 0 0 0 0 0 0 0 0 0 0 0 0 0 0 0 0 0 0 0
0 0 0 0 0 0 0 0 0 0 0 0 0 0 0 0 0 0 0 0 0 0 0 0 0 0 0 0 0 0 0 0 0 0 0 0 0 0 0 0 0 0

ECMWFNIL_con_mucape_120.txt.gz
CAPE
551 458 418 363 348 294 224 0 0 0 0 0 0 0 0 0 0 0 0 0 0 0 0 0 0 0 0 0 0 0 0 0 0 0 0 0 0 0 0 0 0 0
445 420 411 382 319 214 0 0 0 0 0 0 0 0 0 0 0 0 0 0 0 0 0 0 0 0 0 0 0 0 0 0 0 0 0 0 0 0 0 0 0 0
483 456 418 374 295 184 0 0 0 0 0 0 0 0 0 0 0 0 0 0 0 0 0 0 0 0 0 0 0 0 0 0 0 0 0 0 0 0 0 0 0 0
443 400 391 340 219 153 10 0 0 0 0 0 0 0 0 0 0 0 0 0 0 0 0 0 0 0 0 0 0 0 0 0 0 0 0 0 0 0 0 0 0 0
390 369 307 220 138 112 107 26 0 0 0 0 0 0 0 0 0 0 0 0 0 0 0 0 0 0 0 0 0 0 0 0 0 0 0 0 0 0 0 0 0 0
308 183 34 18 0 77 119 18 0 0 0 0 0 0 0 0 0 0 0 0 0 0 0 0 0 0 0 0 0 0 0 0 0 0 0 0 0 0 0 0 0 0
216 101 74 76 95 137 125 0 0 0 0 0 0 0 0 0 0 0 0 0 0 0 0 0 0 0 0 0 0 0 0 0 0 0 0 0 0 0 0 0 0 0
91 84 80 99 142 151 0 0 0 0 0 0 0 0 0 0 0 0 0 0 0 0 0 0 0 0 0 0 0 0 0 0 0 0 0 0 0 0 0 0 0 0
45 39 70 94 114 0 0 0 0 0 0 0 0 0 0 0 0 0 0 0 0 0 0 0 0 0 0 0 0 0 0 0 0 0 0 0 0 0 0 0 0 0
0 0 0 0 0 0 0 0 0 0 0 0 0 0 0 0 0 0 0 0 0 0 0 0 0 0 0 0 0 0 0 0 0 0 0 0 0 0 0 0 0 0
0 0 0 0 0 0 0 0 0 0 0 0 0 0 0 0 0 0 0 0 0 0 0 0 0 0 0 0 0 0 0 0 0 0 0 0 0 0 0 0 0 0
0 0 0 0 0 0 0 0 0 39 132 125 0 0 0 0 0 0 0 0 0 0 0 0 0 0 0 0 0 0 0 0 0 0 0 0 0 0 0 0 0 0
0 0 0 0 0 0 0 0 0 0 0 0 0 0 0 0 0 0 0 0 0 0 0 0 0 0 0 0 0 0 0 0 0 0 0 0 0 0 0 0 0 0
0 0 0 0 0 0 0 0 0 0 0 0 0 0 0 0 0 0 0 0 0 0 0 0 0 0 0 0 0 0 0 0 0 0 0 0 0 0 0 0 0 0
0 0 0 0 0 0 0 0 0 0 0 0 0 0 0 0 0 0 0 0 0 0 0 0 0 0 0 0 0 0 0 0 0 0 0 0 0 0 0 0 0 0
0 0 0 0 0 0 0 0 0 0 0 0 0 0 0 0 0 0 0 0 0 0 0 0 0 0 0 0 0 0 0 0 0 0 0 0 0 0 0 0 0 0
0 0 0 0 0 0 0 0 0 0 0 0 0 0 0 0 0 0 0 0 0 0 0 0 0 0 0 0 0 0 0 0 0 0 0 0 0 0 0 0 0 0
0 186 0 0 0 0 0 0 0 0 0 0 0 0 0 0 0 0 0 0 0 0 0 0 0 0 0 0 0 0 0 0 0 0 0 0 0 0 0 0 0 0
0 0 0 0 0 0 0 0 56 44 16 0 0 0 0 0 0 0 0 0 0 0 0 0 0 0 0 0 0 0 0 0 0 0 0 0 0 0 0 0 0 0
0 0 0 87 0 0 0 2 26 16 3 0 0 0 0 0 0 0 0 0 0 0 0 0 0 0 0 0 0 0 0 0 0 0 0 0 0 0 0 0 0 0
0 133 0 112 0 0 0 3 10 0 0 0 0 0 0 0 0 0 0 0 0 0 0 0 0 0 0 0 0 0 0 0 0 0 0 0 0 0 0 0 0 0
126 137 147 36 0 0 4 19 3 0 0 0 0 0 0 0 0 0 0 0 0 0 0 0 0 0 0 0 0 0 0 0 0 0 0 0 0 0 0 0 0 0
119 98 73 0 0 0 2 7 0 0 0 0 0 0 0 0 0 0 0 0 0 0 0 0 0 0 0 0 0 0 0 0 0 0 0 0 0 0 0 0 0 0
64 17 0 0 0 0 0 0 0 0 0 0 0 0 0 0 0 0 0 0 0 0 0 0 0 0 0 0 0 0 0 0 0 0 0 0 0 0 0 0 0 0
0 0 0 0 0 0 0 0 0 0 0 0 0 0 0 0 0 0 0 0 0 0 0 0 0 0 0 0 0 0 0 0 0 0 0 0 0 0 0 0 0 0
0 0 0 0 0 0 0 0 0 0 0 0 0 0 0 0 0 0 0 0 0 0 0 0 0 0 0 0 0 0 0 0 0 0 0 0 0 0 0 0 0 0

ECMWFNIL_con_mucape_123.txt.gz
CAPE
747 747 696 617 609 586 552 452 311 188 0 0 0 0 0 0 0 0 0 0 0 0 0 0 0 0 0 0 0 0 0 0 0 0 0 0 0 0 0 0 0 0
736 715 680 692 658 560 440 354 234 136 0 0 0 0 0 0 0 0 0 0 0 0 0 0 0 0 0 0 0 0 0 0 0 0 0 0 0 0 0 0 0 0
767 739 752 759 645 504 431 341 199 21 0 0 0 0 0 0 0 0 0 0 0 0 0 0 0 0 0 0 0 0 0 0 0 0 0 0 0 0 0 0 0 0
767 750 752 647 533 453 427 324 196 0 0 0 0 0 0 0 0 0 0 0 0 0 0 0 0 0 0 0 0 0 0 0 0 0 0 0 0 0 0 0 0 0
689 598 550 498 425 450 429 298 202 144 130 16 0 0 0 0 0 0 0 0 0 0 0 0 0 0 0 0 0 0 0 0 0 0 0 0 0 0 0 0 0 0
593 573 502 422 405 467 390 295 199 148 150 0 0 0 0 0 0 0 0 0 0 0 0 0 0 0 0 0 0 0 0 0 0 0 0 0 0 0 0 0 0 0
568 481 419 377 474 475 292 201 156 164 162 4 0 0 0 0 0 0 0 0 0 0 0 0 0 0 0 0 0 0 0 0 0 0 0 0 0 0 0 0 0 0
418 448 447 495 468 335 202 155 170 196 170 0 0 0 0 0 0 0 0 0 0 0 0 0 0 0 0 0 0 0 0 0 0 0 0 0 0 0 0 0 0 0
475 486 506 444 354 242 167 160 201 217 72 0 0 0 0 0 0 0 0 0 0 0 0 0 0 0 0 0 0 0 0 0 0 0 0 0 0 0 0 0 0 0
434 415 368 356 286 195 150 162 202 181 0 0 0 0 0 0 0 0 0 0 0 0 0 0 0 0 0 0 0 0 0 0 0 0 0 0 0 0 0 0 0 0
287 254 231 208 159 75 42 91 140 52 0 0 0 0 0 0 0 0 0 0 0 0 0 0 0 0 0 0 0 0 0 0 0 0 0 0 0 0 0 0 0 0
46 0 0 0 0 0 0 0 0 0 0 0 0 0 7 75 0 0 0 0 0 0 0 0 0 0 0 0 0 0 0 0 0 0 0 0 0 0 0 0 0 0
0 0 0 0 0 0 0 0 0 0 0 17 59 56 19 0 0 0 0 0 0 0 0 0 0 0 0 0 0 0 0 0 0 0 0 0 0 0 0 0 0 0
0 0 0 0 0 0 0 0 0 0 39 0 0 0 0 0 0 0 0 0 0 0 0 0 0 0 0 0 0 0 0 0 0 0 0 0 0 0 0 0 0 0
0 0 0 0 0 0 0 0 0 0 0 0 0 0 0 0 0 0 0 0 0 0 0 0 0 0 0 0 0 0 0 0 0 0 0 0 0 0 0 0 0 0
0 0 0 0 0 0 0 0 0 0 0 0 0 0 0 0 0 0 0 0 0 0 0 0 0 0 0 0 0 0 0 0 0 0 0 0 0 0 0 0 0 0
0 0 0 0 0 0 0 0 0 0 0 0 0 0 0 0 0 0 0 0 0 0 0 0 0 0 0 0 0 0 0 0 0 0 0 0 0 0 0 0 0 0
0 0 0 0 20 41 31 32 0 0 0 0 0 38 0 0 0 0 0 0 0 0 0 0 0 0 0 0 0 0 0 0 0 0 0 0 0 0 0 0 0 0
0 0 0 68 152 147 133 113 0 0 0 26 66 62 24 0 0 0 0 0 0 0 0 0 0 0 0 0 0 0 0 0 0 0 0 0 0 0 0 0 0 0
0 0 5 109 134 124 107 0 0 0 0 20 46 25 1 0 0 0 0 0 0 0 0 0 0 0 0 0 0 0 0 0 0 0 0 0 0 0 0 0 0 0
0 0 20 50 33 0 0 0 0 0 0 14 15 2 0 0 0 0 0 0 0 0 0 0 0 0 0 0 0 0 0 0 0 0 0 0 0 0 0 0 0 0
32 15 0 29 59 27 0 0 0 0 1 3 1 0 0 0 0 0 0 0 0 0 0 0 0 0 0 0 0 0 0 0 0 0 0 0 0 0 0 0 0 0
107 36 8 32 61 60 68 36 0 0 0 0 0 0 0 0 0 0 0 0 0 0 0 0 0 0 0 0 0 0 0 0 0 0 0 0 0 0 0 0 0 0
156 81 7 36 54 53 18 0 0 0 0 0 0 0 0 0 0 0 0 0 0 0 0 0 0 0 0 0 0 0 0 0 0 0 0 0 0 0 0 0 0 0
60 55 34 24 42 3 0 0 0 0 2 0 0 0 0 0 0 0 0 0 0 0 0 0 0 0 0 0 0 0 0 0 0 0 0 0 0 0 0 0 0 0
3 7 21 6 0 0 0 0 0 0 0 0 0 0 0 0 0 0 0 0 0 0 0 0 0 0 0 0 0 0 0 0 0 0 0 0 0 0 0 0 0 0

ECMWFNIL_con_mucape_126.txt.gz
CAPE
601 615 639 644 644 628 554 410 421 431 402 304 55 0 0 0 0 0 0 0 0 0 0 0 0 0 0 0 0 0 0 0 0 0 0 0 0 0 0 0 0 0
514 598 599 623 692 646 509 466 465 429 347 206 29 0 0 0 0 0 0 0 0 0 0 0 0 0 0 0 0 0 0 0 0 0 0 0 0 0 0 0 0 0
578 602 608 636 736 635 548 508 468 412 311 46 0 0 0 0 0 0 0 0 0 0 0 0 0 0 0 0 0 0 0 0 0 0 0 0 0 0 0 0 0 0
562 572 640 723 751 739 674 517 437 408 293 37 0 0 0 0 0 0 0 0 0 0 0 0 0 0 0 0 0 0 0 0 0 0 0 0 0 0 0 0 0 0
612 638 694 740 734 704 540 389 332 311 159 6 0 0 0 0 0 0 0 0 0 0 0 0 0 0 0 0 0 0 0 0 0 0 0 0 0 0 0 0 0 0
638 656 650 677 712 555 373 274 312 246 48 0 0 0 0 0 0 0 0 0 0 0 0 0 0 0 0 0 0 0 0 0 0 0 0 0 0 0 0 0 0 0
600 625 747 672 570 392 294 231 280 199 1 0 0 0 0 0 0 0 0 0 0 0 0 0 0 0 0 0 0 0 0 0 0 0 0 0 0 0 0 0 0 0
677 700 678 588 375 275 211 232 290 200 0 0 0 0 0 0 0 0 0 0 0 0 0 0 0 0 0 0 0 0 0 0 0 0 0 0 0 0 0 0 0 0
748 657 489 375 305 265 212 301 338 226 0 0 6 54 0 0 0 0 0 0 0 0 0 0 0 0 0 0 0 0 0 0 0 0 0 0 0 0 0 0 0 0
567 491 368 312 301 231 269 320 317 169 0 16 135 0 0 0 0 0 0 0 0 0 0 0 0 0 0 0 0 0 0 0 0 0 0 0 0 0 0 0 0 0
464 426 402 321 221 193 289 297 181 0 0 126 87 0 0 0 0 0 0 0 0 0 0 0 0 0 0 0 0 0 0 0 0 0 0 0 0 0 0 0 0 0
472 432 334 204 191 264 212 0 0 0 0 0 0 0 0 0 0 0 0 0 0 0 0 0 0 0 0 0 0 0 0 0 0 0 0 0 0 0 0 0 0 0
422 295 319 369 325 114 16 0 0 0 0 0 0 0 0 0 0 0 0 0 0 0 0 0 0 0 0 0 0 0 0 0 0 0 0 0 0 0 0 0 0 0
341 395 412 299 0 0 0 0 0 0 0 0 0 0 0 0 0 0 0 0 0 0 0 0 0 0 0 0 0 0 0 0 0 0 0 0 0 0 0 0 0 0
481 446 258 0 0 0 0 0 0 0 0 0 0 0 0 0 0 0 0 0 0 0 0 0 0 0 0 0 0 0 0 0 0 0 0 0 0 0 0 0 0 0
526 337 213 0 0 0 0 0 0 0 0 0 0 0 0 0 0 0 0 0 0 0 0 0 0 0 0 0 0 0 0 0 0 0 0 0 0 0 0 0 0 0
427 240 0 0 0 0 0 0 0 0 0 0 0 0 0 0 0 8 4 0 0 0 0 0 0 0 0 0 0 0 0 0 0 0 0 0 0 0 0 0 0 0
150 0 0 0 0 6 5 0 0 0 0 0 0 0 0 2 20 14 2 0 0 0 0 0 0 0 0 0 0 0 0 0 0 0 0 0 0 0 0 0 0 0
0 0 0 0 8 9 0 0 1 3 0 0 0 0 15 52 28 8 0 0 0 0 0 0 0 0 0 0 0 0 0 0 0 0 0 0 0 0 0 0 0 0
0 0 0 0 0 0 9 40 72 98 27 0 26 27 41 41 19 4 0 0 0 0 0 0 0 0 0 0 0 0 0 0 0 0 0 0 0 0 0 0 0 0
0 0 0 0 0 0 4 73 92 85 111 67 35 16 22 19 12 4 0 0 0 0 0 0 0 0 0 0 0 0 0 0 0 0 0 0 0 0 0 0 0 0
0 0 0 0 0 0 2 85 83 72 51 23 5 5 2 2 1 0 0 0 0 0 0 0 0 0 0 0 0 0 0 0 0 0 0 0 0 0 0 0 0 0
15 18 18 14 0 1 18 28 30 18 0 0 0 0 0 0 0 0 0 0 0 0 0 0 0 0 0 0 0 0 0 0 0 0 0 0 0 0 0 0 0 0
35 68 72 57 15 6 59 29 32 3 0 0 0 0 0 0 0 0 0 0 0 0 0 0 0 0 0 0 0 0 0 0 0 0 0 0 0 0 0 0 0 0
129 114 131 92 34 88 70 21 0 0 0 0 0 0 0 0 0 0 0 0 0 0 0 0 0 0 0 0 0 0 0 0 0 0 0 0 0 0 0 0 0 0
110 146 142 97 52 0 13 11 1 0 0 0 0 0 0 0 0 0 0 0 0 0 0 0 0 0 0 0 0 0 0 0 0 0 0 0 0 0 0 0 0 0